<?xml version="1.0" encoding="UTF-8" standalone="no" ?>
<gpx xmlns="http://www.topografix.com/GPX/1/1" xmlns:xsi="http://www.w3.org/2001/XMLSchema-instance" xsi:schemaLocation="http://www.topografix.com/GPX/1/1 http://www.topografix.com/GPX/1/1/gpx.xsd" version="1.1" creator="VisuGPX - https://www.visugpx.com">
  <metadata>
    <name>Montferrier 2018 pinedes du lez</name>
    <desc><![CDATA[
]]></desc>
  </metadata>
  <wpt lat="43.66535" lon="3.8559">
    <ele>80.7</ele>
    <name><![CDATA[Montferrier  (départ)]]></name>
  </wpt>
  <wpt lat="43.66742" lon="3.85752">
    <ele>75.3</ele>
    <name><![CDATA[Montferrier  (fin)]]></name>
    <desc><![CDATA[Créé par Mes parcours sur Android

Nom : Montferrier 
Type d'activité : cyclisme
Description : -
Distance totale : 32,47 km (20,2 mi)
Durée totale : 2:50:53
Durée du déplacement : 2:46:00
Vitesse moyenne : 11,40 km/h (7,1 mi/h)
Vitesse moyenne de déplacement : 11,74 km/h (7,3 mi/h)
Vitesse max. : 34,34 km/h (21,3 mi/h)
Vitesse moyenne : 5:16 min/km (8:28 min/mi)
Allure moyenne : 5:07 min/km (8:14 min/mi)
Vitesse maximale : 1:45 min/km (2:49 min/mi)
Élévation max. : 184 m (604 pi)
Élévation min. : 92 m (303 pi)
Dénivelé : 605 m (1984 pi)
Pente max. : 17 %
Pente min. : -16 %
Date d'enregistrement : 16/9/2018 08:12]]></desc>
  </wpt>
  <trk>
    <name><![CDATA[Pinède Montferrier Sur Lez]]></name>
    <extensions>
      <line xmlns="http://www.topografix.com/GPX/gpx_style/0/2">
        <color>00FF00</color>
        <width>4</width>
      </line>
    </extensions>
    <trkseg>
      <trkpt lat="43.66531" lon="3.85699">
        <ele>81</ele>
        <time>2024-04-19T06:05:55.000Z</time>
      </trkpt>
      <trkpt lat="43.66539" lon="3.85701">
        <ele>80.8</ele>
        <time>2024-04-19T06:05:57.728Z</time>
      </trkpt>
      <trkpt lat="43.66586" lon="3.85697">
        <ele>79.9</ele>
        <time>2024-04-19T06:06:13.789Z</time>
      </trkpt>
      <trkpt lat="43.6661" lon="3.857">
        <ele>79.2</ele>
        <time>2024-04-19T06:06:21.769Z</time>
      </trkpt>
      <trkpt lat="43.66615" lon="3.85706">
        <ele>79.3</ele>
        <time>2024-04-19T06:06:24.277Z</time>
      </trkpt>
      <trkpt lat="43.66624" lon="3.85793">
        <ele>81.1</ele>
        <time>2024-04-19T06:06:49.392Z</time>
      </trkpt>
      <trkpt lat="43.66631" lon="3.85821">
        <ele>81.8</ele>
        <time>2024-04-19T06:06:57.976Z</time>
      </trkpt>
      <trkpt lat="43.66657" lon="3.85833">
        <ele>81.3</ele>
        <time>2024-04-19T06:07:07.350Z</time>
      </trkpt>
      <trkpt lat="43.66669" lon="3.85834">
        <ele>81</ele>
        <time>2024-04-19T06:07:11.380Z</time>
      </trkpt>
      <trkpt lat="43.6668" lon="3.85819">
        <ele>80</ele>
        <time>2024-04-19T06:07:16.267Z</time>
      </trkpt>
      <trkpt lat="43.66684" lon="3.85812">
        <ele>79.6</ele>
        <time>2024-04-19T06:07:18.308Z</time>
      </trkpt>
      <trkpt lat="43.66714" lon="3.85763">
        <ele>76.4</ele>
        <time>2024-04-19T06:07:32.997Z</time>
      </trkpt>
      <trkpt lat="43.66717" lon="3.85755">
        <ele>76.2</ele>
        <time>2024-04-19T06:07:35.145Z</time>
      </trkpt>
      <trkpt lat="43.66726" lon="3.85739">
        <ele>75.9</ele>
        <time>2024-04-19T06:07:40.126Z</time>
      </trkpt>
      <trkpt lat="43.66733" lon="3.8573">
        <ele>75.6</ele>
        <time>2024-04-19T06:07:43.269Z</time>
      </trkpt>
      <trkpt lat="43.66739" lon="3.85739">
        <ele>75.4</ele>
        <time>2024-04-19T06:07:46.258Z</time>
      </trkpt>
      <trkpt lat="43.66738" lon="3.85746">
        <ele>75.4</ele>
        <time>2024-04-19T06:07:48.123Z</time>
      </trkpt>
      <trkpt lat="43.66732" lon="3.85756">
        <ele>75.6</ele>
        <time>2024-04-19T06:07:51.754Z</time>
      </trkpt>
      <trkpt lat="43.66743" lon="3.85766">
        <ele>75.3</ele>
        <time>2024-04-19T06:07:56.196Z</time>
      </trkpt>
      <trkpt lat="43.66756" lon="3.85774">
        <ele>74.4</ele>
        <time>2024-04-19T06:08:00.697Z</time>
      </trkpt>
      <trkpt lat="43.66756" lon="3.85786">
        <ele>74.4</ele>
        <time>2024-04-19T06:08:03.835Z</time>
      </trkpt>
      <trkpt lat="43.66745" lon="3.85807">
        <ele>75.6</ele>
        <time>2024-04-19T06:08:12.158Z</time>
      </trkpt>
      <trkpt lat="43.66737" lon="3.85813">
        <ele>76.7</ele>
        <time>2024-04-19T06:08:17.074Z</time>
      </trkpt>
      <trkpt lat="43.66728" lon="3.85809">
        <ele>77.5</ele>
        <time>2024-04-19T06:08:21.573Z</time>
      </trkpt>
      <trkpt lat="43.66724" lon="3.85819">
        <ele>78.3</ele>
        <time>2024-04-19T06:08:25.674Z</time>
      </trkpt>
      <trkpt lat="43.66718" lon="3.85848">
        <ele>79.8</ele>
        <time>2024-04-19T06:08:35.512Z</time>
      </trkpt>
      <trkpt lat="43.66713" lon="3.85853">
        <ele>80.3</ele>
        <time>2024-04-19T06:08:38.413Z</time>
      </trkpt>
      <trkpt lat="43.66644" lon="3.85824">
        <ele>81.5</ele>
        <time>2024-04-19T06:09:05.869Z</time>
      </trkpt>
      <trkpt lat="43.66639" lon="3.85822">
        <ele>81.6</ele>
        <time>2024-04-19T06:09:07.867Z</time>
      </trkpt>
      <trkpt lat="43.66633" lon="3.85831">
        <ele>82.1</ele>
        <time>2024-04-19T06:09:11.699Z</time>
      </trkpt>
      <trkpt lat="43.66625" lon="3.85844">
        <ele>83.3</ele>
        <time>2024-04-19T06:09:17.834Z</time>
      </trkpt>
      <trkpt lat="43.66621" lon="3.85855">
        <ele>84.2</ele>
        <time>2024-04-19T06:09:22.320Z</time>
      </trkpt>
      <trkpt lat="43.66618" lon="3.85863">
        <ele>84.9</ele>
        <time>2024-04-19T06:09:25.676Z</time>
      </trkpt>
      <trkpt lat="43.66609" lon="3.85887">
        <ele>86.8</ele>
        <time>2024-04-19T06:09:35.392Z</time>
      </trkpt>
      <trkpt lat="43.66606" lon="3.85893">
        <ele>87.1</ele>
        <time>2024-04-19T06:09:37.679Z</time>
      </trkpt>
      <trkpt lat="43.666" lon="3.85919">
        <ele>88.3</ele>
        <time>2024-04-19T06:09:46.347Z</time>
      </trkpt>
      <trkpt lat="43.66612" lon="3.85968">
        <ele>90.9</ele>
        <time>2024-04-19T06:10:03.263Z</time>
      </trkpt>
      <trkpt lat="43.66611" lon="3.8598">
        <ele>91.3</ele>
        <time>2024-04-19T06:10:06.914Z</time>
      </trkpt>
      <trkpt lat="43.66605" lon="3.85991">
        <ele>90.5</ele>
        <time>2024-04-19T06:10:10.067Z</time>
      </trkpt>
      <trkpt lat="43.66602" lon="3.86017">
        <ele>90.4</ele>
        <time>2024-04-19T06:10:16.842Z</time>
      </trkpt>
      <trkpt lat="43.66603" lon="3.86046">
        <ele>90.8</ele>
        <time>2024-04-19T06:10:24.898Z</time>
      </trkpt>
      <trkpt lat="43.66597" lon="3.86067">
        <ele>88.5</ele>
        <time>2024-04-19T06:10:30.065Z</time>
      </trkpt>
      <trkpt lat="43.66595" lon="3.86073">
        <ele>87.7</ele>
        <time>2024-04-19T06:10:31.576Z</time>
      </trkpt>
      <trkpt lat="43.66593" lon="3.8608">
        <ele>86.9</ele>
        <time>2024-04-19T06:10:33.299Z</time>
      </trkpt>
      <trkpt lat="43.66592" lon="3.86087">
        <ele>86.2</ele>
        <time>2024-04-19T06:10:34.931Z</time>
      </trkpt>
      <trkpt lat="43.66595" lon="3.86101">
        <ele>86.1</ele>
        <time>2024-04-19T06:10:38.641Z</time>
      </trkpt>
      <trkpt lat="43.66606" lon="3.86124">
        <ele>86.4</ele>
        <time>2024-04-19T06:10:46.196Z</time>
      </trkpt>
      <trkpt lat="43.66621" lon="3.86145">
        <ele>85.9</ele>
        <time>2024-04-19T06:10:53.384Z</time>
      </trkpt>
      <trkpt lat="43.66642" lon="3.86161">
        <ele>85.8</ele>
        <time>2024-04-19T06:11:01.943Z</time>
      </trkpt>
      <trkpt lat="43.66657" lon="3.86176">
        <ele>82.7</ele>
        <time>2024-04-19T06:11:07.799Z</time>
      </trkpt>
      <trkpt lat="43.66668" lon="3.8618">
        <ele>82.3</ele>
        <time>2024-04-19T06:11:11.497Z</time>
      </trkpt>
      <trkpt lat="43.66681" lon="3.86182">
        <ele>82.5</ele>
        <time>2024-04-19T06:11:16.456Z</time>
      </trkpt>
      <trkpt lat="43.66699" lon="3.86181">
        <ele>83.9</ele>
        <time>2024-04-19T06:11:24.828Z</time>
      </trkpt>
      <trkpt lat="43.66715" lon="3.86186">
        <ele>82.6</ele>
        <time>2024-04-19T06:11:30.017Z</time>
      </trkpt>
      <trkpt lat="43.6674" lon="3.86196">
        <ele>79.6</ele>
        <time>2024-04-19T06:11:38.250Z</time>
      </trkpt>
      <trkpt lat="43.66747" lon="3.86198">
        <ele>79.1</ele>
        <time>2024-04-19T06:11:40.511Z</time>
      </trkpt>
      <trkpt lat="43.66767" lon="3.86198">
        <ele>78</ele>
        <time>2024-04-19T06:11:46.837Z</time>
      </trkpt>
      <trkpt lat="43.66798" lon="3.86205">
        <ele>72.8</ele>
        <time>2024-04-19T06:11:56.773Z</time>
      </trkpt>
      <trkpt lat="43.66814" lon="3.86204">
        <ele>70.3</ele>
        <time>2024-04-19T06:12:01.839Z</time>
      </trkpt>
      <trkpt lat="43.66819" lon="3.86211">
        <ele>68.1</ele>
        <time>2024-04-19T06:12:04.090Z</time>
      </trkpt>
      <trkpt lat="43.6682" lon="3.86224">
        <ele>65.6</ele>
        <time>2024-04-19T06:12:07.082Z</time>
      </trkpt>
      <trkpt lat="43.66813" lon="3.8624">
        <ele>63.7</ele>
        <time>2024-04-19T06:12:11.360Z</time>
      </trkpt>
      <trkpt lat="43.66805" lon="3.86244">
        <ele>64.1</ele>
        <time>2024-04-19T06:12:14.930Z</time>
      </trkpt>
      <trkpt lat="43.66792" lon="3.86243">
        <ele>65.8</ele>
        <time>2024-04-19T06:12:22.213Z</time>
      </trkpt>
      <trkpt lat="43.66784" lon="3.86241">
        <ele>67.2</ele>
        <time>2024-04-19T06:12:27.521Z</time>
      </trkpt>
      <trkpt lat="43.66749" lon="3.86246">
        <ele>67.8</ele>
        <time>2024-04-19T06:12:40.934Z</time>
      </trkpt>
      <trkpt lat="43.6673" lon="3.86241">
        <ele>67.7</ele>
        <time>2024-04-19T06:12:47.816Z</time>
      </trkpt>
      <trkpt lat="43.66696" lon="3.86226">
        <ele>69</ele>
        <time>2024-04-19T06:13:02.286Z</time>
      </trkpt>
      <trkpt lat="43.66656" lon="3.86222">
        <ele>67.3</ele>
        <time>2024-04-19T06:13:15.054Z</time>
      </trkpt>
      <trkpt lat="43.66651" lon="3.86221">
        <ele>67.3</ele>
        <time>2024-04-19T06:13:16.880Z</time>
      </trkpt>
      <trkpt lat="43.66628" lon="3.86207">
        <ele>70.5</ele>
        <time>2024-04-19T06:13:30.774Z</time>
      </trkpt>
      <trkpt lat="43.66616" lon="3.86202">
        <ele>71.4</ele>
        <time>2024-04-19T06:13:36.484Z</time>
      </trkpt>
      <trkpt lat="43.66598" lon="3.86206">
        <ele>68.9</ele>
        <time>2024-04-19T06:13:42.251Z</time>
      </trkpt>
      <trkpt lat="43.6658" lon="3.86206">
        <ele>67</ele>
        <time>2024-04-19T06:13:47.945Z</time>
      </trkpt>
      <trkpt lat="43.66575" lon="3.86204">
        <ele>66.6</ele>
        <time>2024-04-19T06:13:49.591Z</time>
      </trkpt>
      <trkpt lat="43.66561" lon="3.86197">
        <ele>65.6</ele>
        <time>2024-04-19T06:13:54.301Z</time>
      </trkpt>
      <trkpt lat="43.66554" lon="3.86194">
        <ele>64.7</ele>
        <time>2024-04-19T06:13:56.619Z</time>
      </trkpt>
      <trkpt lat="43.66544" lon="3.86188">
        <ele>63.2</ele>
        <time>2024-04-19T06:14:00.067Z</time>
      </trkpt>
      <trkpt lat="43.66538" lon="3.86181">
        <ele>62.7</ele>
        <time>2024-04-19T06:14:02.551Z</time>
      </trkpt>
      <trkpt lat="43.66531" lon="3.86172">
        <ele>62.1</ele>
        <time>2024-04-19T06:14:05.575Z</time>
      </trkpt>
      <trkpt lat="43.66527" lon="3.86161">
        <ele>62.5</ele>
        <time>2024-04-19T06:14:09.286Z</time>
      </trkpt>
      <trkpt lat="43.66527" lon="3.86144">
        <ele>64.3</ele>
        <time>2024-04-19T06:14:16.574Z</time>
      </trkpt>
      <trkpt lat="43.66527" lon="3.86128">
        <ele>66.1</ele>
        <time>2024-04-19T06:14:23.670Z</time>
      </trkpt>
      <trkpt lat="43.66518" lon="3.86121">
        <ele>65.3</ele>
        <time>2024-04-19T06:14:26.937Z</time>
      </trkpt>
      <trkpt lat="43.66507" lon="3.86107">
        <ele>64.7</ele>
        <time>2024-04-19T06:14:31.729Z</time>
      </trkpt>
      <trkpt lat="43.66494" lon="3.86095">
        <ele>64.6</ele>
        <time>2024-04-19T06:14:37.270Z</time>
      </trkpt>
      <trkpt lat="43.66486" lon="3.8609">
        <ele>65</ele>
        <time>2024-04-19T06:14:40.937Z</time>
      </trkpt>
      <trkpt lat="43.66482" lon="3.86094">
        <ele>64.4</ele>
        <time>2024-04-19T06:14:42.498Z</time>
      </trkpt>
      <trkpt lat="43.66464" lon="3.86099">
        <ele>62.5</ele>
        <time>2024-04-19T06:14:48.306Z</time>
      </trkpt>
      <trkpt lat="43.66457" lon="3.86097">
        <ele>62.2</ele>
        <time>2024-04-19T06:14:50.584Z</time>
      </trkpt>
      <trkpt lat="43.66449" lon="3.86093">
        <ele>62</ele>
        <time>2024-04-19T06:14:53.448Z</time>
      </trkpt>
      <trkpt lat="43.66405" lon="3.86063">
        <ele>62.8</ele>
        <time>2024-04-19T06:15:12.107Z</time>
      </trkpt>
      <trkpt lat="43.66389" lon="3.86059">
        <ele>61.4</ele>
        <time>2024-04-19T06:15:17.250Z</time>
      </trkpt>
      <trkpt lat="43.6638" lon="3.86059">
        <ele>60.1</ele>
        <time>2024-04-19T06:15:20.097Z</time>
      </trkpt>
      <trkpt lat="43.66351" lon="3.86065">
        <ele>55.1</ele>
        <time>2024-04-19T06:15:29.372Z</time>
      </trkpt>
      <trkpt lat="43.66344" lon="3.86063">
        <ele>54.2</ele>
        <time>2024-04-19T06:15:31.633Z</time>
      </trkpt>
      <trkpt lat="43.66334" lon="3.8606">
        <ele>52.8</ele>
        <time>2024-04-19T06:15:34.870Z</time>
      </trkpt>
      <trkpt lat="43.66329" lon="3.86055">
        <ele>52.6</ele>
        <time>2024-04-19T06:15:36.893Z</time>
      </trkpt>
      <trkpt lat="43.66317" lon="3.86041">
        <ele>52.4</ele>
        <time>2024-04-19T06:15:42.353Z</time>
      </trkpt>
      <trkpt lat="43.66312" lon="3.86037">
        <ele>51.8</ele>
        <time>2024-04-19T06:15:44.181Z</time>
      </trkpt>
      <trkpt lat="43.66306" lon="3.86032">
        <ele>50.9</ele>
        <time>2024-04-19T06:15:46.397Z</time>
      </trkpt>
      <trkpt lat="43.66294" lon="3.86026">
        <ele>50.6</ele>
        <time>2024-04-19T06:15:50.692Z</time>
      </trkpt>
      <trkpt lat="43.66281" lon="3.86025">
        <ele>50.2</ele>
        <time>2024-04-19T06:15:54.982Z</time>
      </trkpt>
      <trkpt lat="43.66262" lon="3.86019">
        <ele>51.8</ele>
        <time>2024-04-19T06:16:04.176Z</time>
      </trkpt>
      <trkpt lat="43.66245" lon="3.86016">
        <ele>53.5</ele>
        <time>2024-04-19T06:16:12.752Z</time>
      </trkpt>
      <trkpt lat="43.66238" lon="3.86016">
        <ele>53.7</ele>
        <time>2024-04-19T06:16:15.519Z</time>
      </trkpt>
      <trkpt lat="43.66228" lon="3.86023">
        <ele>53.3</ele>
        <time>2024-04-19T06:16:19.159Z</time>
      </trkpt>
      <trkpt lat="43.66223" lon="3.86025">
        <ele>53.3</ele>
        <time>2024-04-19T06:16:21.040Z</time>
      </trkpt>
      <trkpt lat="43.66205" lon="3.86029">
        <ele>54</ele>
        <time>2024-04-19T06:16:28.479Z</time>
      </trkpt>
      <trkpt lat="43.66177" lon="3.86027">
        <ele>55.2</ele>
        <time>2024-04-19T06:16:40.084Z</time>
      </trkpt>
      <trkpt lat="43.66171" lon="3.86026">
        <ele>55.4</ele>
        <time>2024-04-19T06:16:42.508Z</time>
      </trkpt>
      <trkpt lat="43.66146" lon="3.86025">
        <ele>54.8</ele>
        <time>2024-04-19T06:16:50.915Z</time>
      </trkpt>
      <trkpt lat="43.66112" lon="3.86024">
        <ele>53.6</ele>
        <time>2024-04-19T06:17:01.970Z</time>
      </trkpt>
      <trkpt lat="43.66084" lon="3.86006">
        <ele>56.1</ele>
        <time>2024-04-19T06:17:16.480Z</time>
      </trkpt>
      <trkpt lat="43.66054" lon="3.8599">
        <ele>55.6</ele>
        <time>2024-04-19T06:17:27.567Z</time>
      </trkpt>
      <trkpt lat="43.66042" lon="3.85978">
        <ele>55.1</ele>
        <time>2024-04-19T06:17:32.403Z</time>
      </trkpt>
      <trkpt lat="43.66024" lon="3.8597">
        <ele>54</ele>
        <time>2024-04-19T06:17:38.384Z</time>
      </trkpt>
      <trkpt lat="43.66015" lon="3.85971">
        <ele>53.6</ele>
        <time>2024-04-19T06:17:41.242Z</time>
      </trkpt>
      <trkpt lat="43.65953" lon="3.85981">
        <ele>50.8</ele>
        <time>2024-04-19T06:18:00.987Z</time>
      </trkpt>
      <trkpt lat="43.65907" lon="3.85982">
        <ele>51.3</ele>
        <time>2024-04-19T06:18:18.189Z</time>
      </trkpt>
      <trkpt lat="43.65898" lon="3.85981">
        <ele>51.7</ele>
        <time>2024-04-19T06:18:21.944Z</time>
      </trkpt>
      <trkpt lat="43.65891" lon="3.85975">
        <ele>52.6</ele>
        <time>2024-04-19T06:18:26.214Z</time>
      </trkpt>
      <trkpt lat="43.65876" lon="3.85957">
        <ele>55.7</ele>
        <time>2024-04-19T06:18:38.417Z</time>
      </trkpt>
      <trkpt lat="43.65872" lon="3.8595">
        <ele>56.8</ele>
        <time>2024-04-19T06:18:42.602Z</time>
      </trkpt>
      <trkpt lat="43.65861" lon="3.85936">
        <ele>59.2</ele>
        <time>2024-04-19T06:18:51.942Z</time>
      </trkpt>
      <trkpt lat="43.65853" lon="3.85932">
        <ele>60</ele>
        <time>2024-04-19T06:18:56.124Z</time>
      </trkpt>
      <trkpt lat="43.65848" lon="3.8593">
        <ele>60.3</ele>
        <time>2024-04-19T06:18:58.385Z</time>
      </trkpt>
      <trkpt lat="43.65841" lon="3.85927">
        <ele>60.8</ele>
        <time>2024-04-19T06:19:01.684Z</time>
      </trkpt>
      <trkpt lat="43.65833" lon="3.85919">
        <ele>61.8</ele>
        <time>2024-04-19T06:19:06.661Z</time>
      </trkpt>
      <trkpt lat="43.65818" lon="3.85898">
        <ele>65.2</ele>
        <time>2024-04-19T06:19:19.934Z</time>
      </trkpt>
      <trkpt lat="43.65812" lon="3.85895">
        <ele>65.9</ele>
        <time>2024-04-19T06:19:23.247Z</time>
      </trkpt>
      <trkpt lat="43.65799" lon="3.85899">
        <ele>65.8</ele>
        <time>2024-04-19T06:19:27.952Z</time>
      </trkpt>
      <trkpt lat="43.65787" lon="3.85899">
        <ele>66.2</ele>
        <time>2024-04-19T06:19:32.770Z</time>
      </trkpt>
      <trkpt lat="43.65782" lon="3.85897">
        <ele>66.7</ele>
        <time>2024-04-19T06:19:35.346Z</time>
      </trkpt>
      <trkpt lat="43.65773" lon="3.85892">
        <ele>67.7</ele>
        <time>2024-04-19T06:19:40.266Z</time>
      </trkpt>
      <trkpt lat="43.65741" lon="3.85878">
        <ele>71.1</ele>
        <time>2024-04-19T06:19:57.185Z</time>
      </trkpt>
      <trkpt lat="43.65733" lon="3.85876">
        <ele>71.6</ele>
        <time>2024-04-19T06:20:00.763Z</time>
      </trkpt>
      <trkpt lat="43.65709" lon="3.85877">
        <ele>71.2</ele>
        <time>2024-04-19T06:20:09.014Z</time>
      </trkpt>
      <trkpt lat="43.65689" lon="3.85866">
        <ele>71.7</ele>
        <time>2024-04-19T06:20:17.381Z</time>
      </trkpt>
      <trkpt lat="43.65673" lon="3.85851">
        <ele>72.1</ele>
        <time>2024-04-19T06:20:24.836Z</time>
      </trkpt>
      <trkpt lat="43.65667" lon="3.85845">
        <ele>72.4</ele>
        <time>2024-04-19T06:20:27.878Z</time>
      </trkpt>
      <trkpt lat="43.65645" lon="3.85836">
        <ele>72.3</ele>
        <time>2024-04-19T06:20:36.062Z</time>
      </trkpt>
      <trkpt lat="43.65626" lon="3.85825">
        <ele>72.2</ele>
        <time>2024-04-19T06:20:43.399Z</time>
      </trkpt>
      <trkpt lat="43.65616" lon="3.85821">
        <ele>71.8</ele>
        <time>2024-04-19T06:20:46.752Z</time>
      </trkpt>
      <trkpt lat="43.65572" lon="3.85843">
        <ele>71.8</ele>
        <time>2024-04-19T06:21:03.667Z</time>
      </trkpt>
      <trkpt lat="43.65549" lon="3.85851">
        <ele>72.2</ele>
        <time>2024-04-19T06:21:12.703Z</time>
      </trkpt>
      <trkpt lat="43.65538" lon="3.8585">
        <ele>71.4</ele>
        <time>2024-04-19T06:21:16.190Z</time>
      </trkpt>
      <trkpt lat="43.65529" lon="3.85821">
        <ele>67.7</ele>
        <time>2024-04-19T06:21:23.412Z</time>
      </trkpt>
      <trkpt lat="43.65526" lon="3.85816">
        <ele>67</ele>
        <time>2024-04-19T06:21:24.898Z</time>
      </trkpt>
      <trkpt lat="43.65528" lon="3.85809">
        <ele>66.4</ele>
        <time>2024-04-19T06:21:26.621Z</time>
      </trkpt>
      <trkpt lat="43.6552" lon="3.85797">
        <ele>64.8</ele>
        <time>2024-04-19T06:21:30.355Z</time>
      </trkpt>
      <trkpt lat="43.65492" lon="3.85776">
        <ele>61.5</ele>
        <time>2024-04-19T06:21:40.432Z</time>
      </trkpt>
      <trkpt lat="43.65482" lon="3.85771">
        <ele>60.1</ele>
        <time>2024-04-19T06:21:43.796Z</time>
      </trkpt>
      <trkpt lat="43.65466" lon="3.85767">
        <ele>58.6</ele>
        <time>2024-04-19T06:21:48.939Z</time>
      </trkpt>
      <trkpt lat="43.65461" lon="3.85763">
        <ele>57.8</ele>
        <time>2024-04-19T06:21:50.767Z</time>
      </trkpt>
      <trkpt lat="43.65451" lon="3.85752">
        <ele>56.1</ele>
        <time>2024-04-19T06:21:54.810Z</time>
      </trkpt>
      <trkpt lat="43.65444" lon="3.85735">
        <ele>54.4</ele>
        <time>2024-04-19T06:21:59.286Z</time>
      </trkpt>
      <trkpt lat="43.65438" lon="3.85714">
        <ele>53.1</ele>
        <time>2024-04-19T06:22:04.454Z</time>
      </trkpt>
      <trkpt lat="43.65435" lon="3.85705">
        <ele>52.8</ele>
        <time>2024-04-19T06:22:06.740Z</time>
      </trkpt>
      <trkpt lat="43.65426" lon="3.85683">
        <ele>51.9</ele>
        <time>2024-04-19T06:22:12.524Z</time>
      </trkpt>
      <trkpt lat="43.65426" lon="3.85676">
        <ele>51.2</ele>
        <time>2024-04-19T06:22:14.126Z</time>
      </trkpt>
      <trkpt lat="43.65421" lon="3.85663">
        <ele>49.9</ele>
        <time>2024-04-19T06:22:17.495Z</time>
      </trkpt>
      <trkpt lat="43.65417" lon="3.85657">
        <ele>49.3</ele>
        <time>2024-04-19T06:22:19.363Z</time>
      </trkpt>
      <trkpt lat="43.65409" lon="3.85647">
        <ele>48.4</ele>
        <time>2024-04-19T06:22:22.775Z</time>
      </trkpt>
      <trkpt lat="43.65396" lon="3.85627">
        <ele>47.8</ele>
        <time>2024-04-19T06:22:29.181Z</time>
      </trkpt>
      <trkpt lat="43.6538" lon="3.85636">
        <ele>47.2</ele>
        <time>2024-04-19T06:22:34.806Z</time>
      </trkpt>
      <trkpt lat="43.65376" lon="3.85641">
        <ele>47.1</ele>
        <time>2024-04-19T06:22:36.648Z</time>
      </trkpt>
      <trkpt lat="43.65369" lon="3.85651">
        <ele>46.9</ele>
        <time>2024-04-19T06:22:40.074Z</time>
      </trkpt>
      <trkpt lat="43.65358" lon="3.85667">
        <ele>46.7</ele>
        <time>2024-04-19T06:22:45.631Z</time>
      </trkpt>
      <trkpt lat="43.65344" lon="3.85685">
        <ele>44.7</ele>
        <time>2024-04-19T06:22:51.679Z</time>
      </trkpt>
      <trkpt lat="43.6533" lon="3.85684">
        <ele>43.6</ele>
        <time>2024-04-19T06:22:56.114Z</time>
      </trkpt>
      <trkpt lat="43.65322" lon="3.85685">
        <ele>44.2</ele>
        <time>2024-04-19T06:22:59.809Z</time>
      </trkpt>
      <trkpt lat="43.65322" lon="3.85667">
        <ele>44.8</ele>
        <time>2024-04-19T06:23:05.257Z</time>
      </trkpt>
      <trkpt lat="43.65316" lon="3.85659">
        <ele>45.4</ele>
        <time>2024-04-19T06:23:09.057Z</time>
      </trkpt>
      <trkpt lat="43.65302" lon="3.85648">
        <ele>46.2</ele>
        <time>2024-04-19T06:23:15.874Z</time>
      </trkpt>
      <trkpt lat="43.65293" lon="3.85638">
        <ele>46.9</ele>
        <time>2024-04-19T06:23:20.941Z</time>
      </trkpt>
      <trkpt lat="43.65295" lon="3.85617">
        <ele>47.7</ele>
        <time>2024-04-19T06:23:27.482Z</time>
      </trkpt>
      <trkpt lat="43.65308" lon="3.85586">
        <ele>47.6</ele>
        <time>2024-04-19T06:23:36.744Z</time>
      </trkpt>
      <trkpt lat="43.6533" lon="3.85557">
        <ele>48.2</ele>
        <time>2024-04-19T06:23:48.432Z</time>
      </trkpt>
      <trkpt lat="43.65341" lon="3.85549">
        <ele>48.2</ele>
        <time>2024-04-19T06:23:52.925Z</time>
      </trkpt>
      <trkpt lat="43.65355" lon="3.85544">
        <ele>48.1</ele>
        <time>2024-04-19T06:23:58.043Z</time>
      </trkpt>
      <trkpt lat="43.65394" lon="3.85518">
        <ele>47.7</ele>
        <time>2024-04-19T06:24:13.260Z</time>
      </trkpt>
      <trkpt lat="43.65449" lon="3.85469">
        <ele>47.4</ele>
        <time>2024-04-19T06:24:36.585Z</time>
      </trkpt>
      <trkpt lat="43.65464" lon="3.85451">
        <ele>47.9</ele>
        <time>2024-04-19T06:24:44.354Z</time>
      </trkpt>
      <trkpt lat="43.65468" lon="3.85447">
        <ele>47.6</ele>
        <time>2024-04-19T06:24:45.916Z</time>
      </trkpt>
      <trkpt lat="43.65469" lon="3.85436">
        <ele>48.4</ele>
        <time>2024-04-19T06:24:49.937Z</time>
      </trkpt>
      <trkpt lat="43.65475" lon="3.85423">
        <ele>49.2</ele>
        <time>2024-04-19T06:24:55.018Z</time>
      </trkpt>
      <trkpt lat="43.65485" lon="3.85406">
        <ele>49.9</ele>
        <time>2024-04-19T06:25:01.608Z</time>
      </trkpt>
      <trkpt lat="43.65491" lon="3.85382">
        <ele>50.3</ele>
        <time>2024-04-19T06:25:08.717Z</time>
      </trkpt>
      <trkpt lat="43.65491" lon="3.85349">
        <ele>51.1</ele>
        <time>2024-04-19T06:25:18.307Z</time>
      </trkpt>
      <trkpt lat="43.65488" lon="3.85338">
        <ele>51.7</ele>
        <time>2024-04-19T06:25:22.165Z</time>
      </trkpt>
      <trkpt lat="43.6548" lon="3.85335">
        <ele>53.4</ele>
        <time>2024-04-19T06:25:28.311Z</time>
      </trkpt>
      <trkpt lat="43.65479" lon="3.85342">
        <ele>53.8</ele>
        <time>2024-04-19T06:25:30.708Z</time>
      </trkpt>
      <trkpt lat="43.65473" lon="3.85354">
        <ele>55.6</ele>
        <time>2024-04-19T06:25:37.555Z</time>
      </trkpt>
      <trkpt lat="43.65467" lon="3.85358">
        <ele>56.8</ele>
        <time>2024-04-19T06:25:42.038Z</time>
      </trkpt>
      <trkpt lat="43.65464" lon="3.85369">
        <ele>56.9</ele>
        <time>2024-04-19T06:25:45.227Z</time>
      </trkpt>
      <trkpt lat="43.65456" lon="3.85383">
        <ele>57.3</ele>
        <time>2024-04-19T06:25:50.370Z</time>
      </trkpt>
      <trkpt lat="43.65452" lon="3.85389">
        <ele>57.6</ele>
        <time>2024-04-19T06:25:52.878Z</time>
      </trkpt>
      <trkpt lat="43.65426" lon="3.85421">
        <ele>58.6</ele>
        <time>2024-04-19T06:26:06.649Z</time>
      </trkpt>
      <trkpt lat="43.65407" lon="3.85439">
        <ele>58.8</ele>
        <time>2024-04-19T06:26:15.203Z</time>
      </trkpt>
      <trkpt lat="43.65363" lon="3.85469">
        <ele>58.2</ele>
        <time>2024-04-19T06:26:32.290Z</time>
      </trkpt>
      <trkpt lat="43.65349" lon="3.8548">
        <ele>55.8</ele>
        <time>2024-04-19T06:26:37.384Z</time>
      </trkpt>
      <trkpt lat="43.6534" lon="3.8548">
        <ele>55</ele>
        <time>2024-04-19T06:26:40.231Z</time>
      </trkpt>
      <trkpt lat="43.65332" lon="3.85476">
        <ele>54.8</ele>
        <time>2024-04-19T06:26:43.094Z</time>
      </trkpt>
      <trkpt lat="43.65324" lon="3.85469">
        <ele>55.6</ele>
        <time>2024-04-19T06:26:47.598Z</time>
      </trkpt>
      <trkpt lat="43.65318" lon="3.85465">
        <ele>56.2</ele>
        <time>2024-04-19T06:26:50.827Z</time>
      </trkpt>
      <trkpt lat="43.65305" lon="3.8547">
        <ele>56.4</ele>
        <time>2024-04-19T06:26:55.935Z</time>
      </trkpt>
      <trkpt lat="43.65292" lon="3.85485">
        <ele>59</ele>
        <time>2024-04-19T06:27:06.241Z</time>
      </trkpt>
      <trkpt lat="43.65288" lon="3.85489">
        <ele>59.7</ele>
        <time>2024-04-19T06:27:09.118Z</time>
      </trkpt>
      <trkpt lat="43.65279" lon="3.85502">
        <ele>60.6</ele>
        <time>2024-04-19T06:27:14.996Z</time>
      </trkpt>
      <trkpt lat="43.65265" lon="3.85517">
        <ele>61.6</ele>
        <time>2024-04-19T06:27:22.663Z</time>
      </trkpt>
      <trkpt lat="43.65259" lon="3.85527">
        <ele>61.8</ele>
        <time>2024-04-19T06:27:26.294Z</time>
      </trkpt>
      <trkpt lat="43.65254" lon="3.85536">
        <ele>62.1</ele>
        <time>2024-04-19T06:27:29.624Z</time>
      </trkpt>
      <trkpt lat="43.65248" lon="3.85543">
        <ele>62.6</ele>
        <time>2024-04-19T06:27:33.105Z</time>
      </trkpt>
      <trkpt lat="43.65245" lon="3.85554">
        <ele>62.4</ele>
        <time>2024-04-19T06:27:35.968Z</time>
      </trkpt>
      <trkpt lat="43.65243" lon="3.85563">
        <ele>62.2</ele>
        <time>2024-04-19T06:27:38.222Z</time>
      </trkpt>
      <trkpt lat="43.65245" lon="3.8558">
        <ele>61.5</ele>
        <time>2024-04-19T06:27:42.164Z</time>
      </trkpt>
      <trkpt lat="43.6524" lon="3.85604">
        <ele>60.2</ele>
        <time>2024-04-19T06:27:47.880Z</time>
      </trkpt>
      <trkpt lat="43.65226" lon="3.85622">
        <ele>59.9</ele>
        <time>2024-04-19T06:27:54.470Z</time>
      </trkpt>
      <trkpt lat="43.65215" lon="3.85624">
        <ele>60.1</ele>
        <time>2024-04-19T06:27:58.712Z</time>
      </trkpt>
      <trkpt lat="43.65206" lon="3.85617">
        <ele>60.6</ele>
        <time>2024-04-19T06:28:03.065Z</time>
      </trkpt>
      <trkpt lat="43.65193" lon="3.85608">
        <ele>61</ele>
        <time>2024-04-19T06:28:08.795Z</time>
      </trkpt>
      <trkpt lat="43.65187" lon="3.85603">
        <ele>60.7</ele>
        <time>2024-04-19T06:28:11.022Z</time>
      </trkpt>
      <trkpt lat="43.65184" lon="3.85597">
        <ele>60.6</ele>
        <time>2024-04-19T06:28:12.823Z</time>
      </trkpt>
      <trkpt lat="43.65176" lon="3.85555">
        <ele>60.4</ele>
        <time>2024-04-19T06:28:23.964Z</time>
      </trkpt>
      <trkpt lat="43.6517" lon="3.85537">
        <ele>60.7</ele>
        <time>2024-04-19T06:28:29.497Z</time>
      </trkpt>
      <trkpt lat="43.65156" lon="3.85504">
        <ele>61</ele>
        <time>2024-04-19T06:28:39.845Z</time>
      </trkpt>
      <trkpt lat="43.65141" lon="3.85492">
        <ele>61</ele>
        <time>2024-04-19T06:28:46.111Z</time>
      </trkpt>
      <trkpt lat="43.65127" lon="3.85484">
        <ele>61.1</ele>
        <time>2024-04-19T06:28:51.700Z</time>
      </trkpt>
      <trkpt lat="43.6511" lon="3.85479">
        <ele>60.4</ele>
        <time>2024-04-19T06:28:57.268Z</time>
      </trkpt>
      <trkpt lat="43.65108" lon="3.85466">
        <ele>60.6</ele>
        <time>2024-04-19T06:29:00.977Z</time>
      </trkpt>
      <trkpt lat="43.65104" lon="3.85397">
        <ele>61.6</ele>
        <time>2024-04-19T06:29:20.246Z</time>
      </trkpt>
      <trkpt lat="43.65104" lon="3.85389">
        <ele>61.7</ele>
        <time>2024-04-19T06:29:22.455Z</time>
      </trkpt>
      <trkpt lat="43.65108" lon="3.85368">
        <ele>63.3</ele>
        <time>2024-04-19T06:29:30.389Z</time>
      </trkpt>
      <trkpt lat="43.65106" lon="3.85347">
        <ele>62.8</ele>
        <time>2024-04-19T06:29:35.410Z</time>
      </trkpt>
      <trkpt lat="43.65108" lon="3.85316">
        <ele>62.1</ele>
        <time>2024-04-19T06:29:42.822Z</time>
      </trkpt>
      <trkpt lat="43.65113" lon="3.85295">
        <ele>61.3</ele>
        <time>2024-04-19T06:29:47.882Z</time>
      </trkpt>
      <trkpt lat="43.65155" lon="3.85248">
        <ele>61</ele>
        <time>2024-04-19T06:30:07.089Z</time>
      </trkpt>
      <trkpt lat="43.65168" lon="3.85235">
        <ele>61</ele>
        <time>2024-04-19T06:30:12.889Z</time>
      </trkpt>
      <trkpt lat="43.65173" lon="3.85231">
        <ele>61</ele>
        <time>2024-04-19T06:30:14.978Z</time>
      </trkpt>
      <trkpt lat="43.6518" lon="3.85224">
        <ele>61.1</ele>
        <time>2024-04-19T06:30:18.216Z</time>
      </trkpt>
      <trkpt lat="43.65185" lon="3.85226">
        <ele>61.5</ele>
        <time>2024-04-19T06:30:20.628Z</time>
      </trkpt>
      <trkpt lat="43.65205" lon="3.85229">
        <ele>62.5</ele>
        <time>2024-04-19T06:30:29.144Z</time>
      </trkpt>
      <trkpt lat="43.65217" lon="3.85232">
        <ele>62.9</ele>
        <time>2024-04-19T06:30:34.031Z</time>
      </trkpt>
      <trkpt lat="43.65228" lon="3.85227">
        <ele>63.4</ele>
        <time>2024-04-19T06:30:38.830Z</time>
      </trkpt>
      <trkpt lat="43.65231" lon="3.85219">
        <ele>63.6</ele>
        <time>2024-04-19T06:30:41.425Z</time>
      </trkpt>
      <trkpt lat="43.65231" lon="3.85199">
        <ele>63.6</ele>
        <time>2024-04-19T06:30:46.656Z</time>
      </trkpt>
      <trkpt lat="43.65225" lon="3.85165">
        <ele>63.4</ele>
        <time>2024-04-19T06:30:55.591Z</time>
      </trkpt>
      <trkpt lat="43.65208" lon="3.85123">
        <ele>64.3</ele>
        <time>2024-04-19T06:31:09.240Z</time>
      </trkpt>
      <trkpt lat="43.6518" lon="3.85076">
        <ele>64.7</ele>
        <time>2024-04-19T06:31:25.618Z</time>
      </trkpt>
      <trkpt lat="43.65172" lon="3.8506">
        <ele>65</ele>
        <time>2024-04-19T06:31:31.055Z</time>
      </trkpt>
      <trkpt lat="43.65169" lon="3.85048">
        <ele>65.4</ele>
        <time>2024-04-19T06:31:34.867Z</time>
      </trkpt>
      <trkpt lat="43.65167" lon="3.85036">
        <ele>65.7</ele>
        <time>2024-04-19T06:31:38.447Z</time>
      </trkpt>
      <trkpt lat="43.65166" lon="3.85016">
        <ele>66.8</ele>
        <time>2024-04-19T06:31:45.146Z</time>
      </trkpt>
      <trkpt lat="43.65173" lon="3.84946">
        <ele>71.9</ele>
        <time>2024-04-19T06:32:10.780Z</time>
      </trkpt>
      <trkpt lat="43.65175" lon="3.84937">
        <ele>72.3</ele>
        <time>2024-04-19T06:32:13.750Z</time>
      </trkpt>
      <trkpt lat="43.65181" lon="3.84923">
        <ele>73.2</ele>
        <time>2024-04-19T06:32:19.199Z</time>
      </trkpt>
      <trkpt lat="43.65189" lon="3.84917">
        <ele>73.8</ele>
        <time>2024-04-19T06:32:23.264Z</time>
      </trkpt>
      <trkpt lat="43.65195" lon="3.84915">
        <ele>74.2</ele>
        <time>2024-04-19T06:32:26.011Z</time>
      </trkpt>
      <trkpt lat="43.65203" lon="3.84913">
        <ele>74.6</ele>
        <time>2024-04-19T06:32:29.447Z</time>
      </trkpt>
      <trkpt lat="43.6521" lon="3.84909">
        <ele>75.1</ele>
        <time>2024-04-19T06:32:32.831Z</time>
      </trkpt>
      <trkpt lat="43.6522" lon="3.84901">
        <ele>75.6</ele>
        <time>2024-04-19T06:32:37.621Z</time>
      </trkpt>
      <trkpt lat="43.65231" lon="3.84885">
        <ele>76.2</ele>
        <time>2024-04-19T06:32:44.119Z</time>
      </trkpt>
      <trkpt lat="43.6524" lon="3.84841">
        <ele>77.4</ele>
        <time>2024-04-19T06:32:57.527Z</time>
      </trkpt>
      <trkpt lat="43.65244" lon="3.8483">
        <ele>77.2</ele>
        <time>2024-04-19T06:33:00.535Z</time>
      </trkpt>
      <trkpt lat="43.65247" lon="3.84764">
        <ele>76.1</ele>
        <time>2024-04-19T06:33:16.666Z</time>
      </trkpt>
      <trkpt lat="43.65244" lon="3.84713">
        <ele>76.8</ele>
        <time>2024-04-19T06:33:30.862Z</time>
      </trkpt>
      <trkpt lat="43.65247" lon="3.84672">
        <ele>78.1</ele>
        <time>2024-04-19T06:33:43.235Z</time>
      </trkpt>
      <trkpt lat="43.65246" lon="3.84651">
        <ele>79.5</ele>
        <time>2024-04-19T06:33:50.665Z</time>
      </trkpt>
      <trkpt lat="43.65247" lon="3.84613">
        <ele>81.9</ele>
        <time>2024-04-19T06:34:03.874Z</time>
      </trkpt>
      <trkpt lat="43.65248" lon="3.84599">
        <ele>82.8</ele>
        <time>2024-04-19T06:34:08.781Z</time>
      </trkpt>
      <trkpt lat="43.65251" lon="3.84582">
        <ele>84</ele>
        <time>2024-04-19T06:34:15.020Z</time>
      </trkpt>
      <trkpt lat="43.65252" lon="3.84574">
        <ele>84.4</ele>
        <time>2024-04-19T06:34:17.663Z</time>
      </trkpt>
      <trkpt lat="43.65251" lon="3.84556">
        <ele>85.8</ele>
        <time>2024-04-19T06:34:24.384Z</time>
      </trkpt>
      <trkpt lat="43.65252" lon="3.84531">
        <ele>87.4</ele>
        <time>2024-04-19T06:34:33.114Z</time>
      </trkpt>
      <trkpt lat="43.65255" lon="3.84501">
        <ele>89</ele>
        <time>2024-04-19T06:34:43.138Z</time>
      </trkpt>
      <trkpt lat="43.65251" lon="3.84471">
        <ele>90.8</ele>
        <time>2024-04-19T06:34:53.530Z</time>
      </trkpt>
      <trkpt lat="43.65248" lon="3.84461">
        <ele>90.8</ele>
        <time>2024-04-19T06:34:56.362Z</time>
      </trkpt>
      <trkpt lat="43.65245" lon="3.84455">
        <ele>91</ele>
        <time>2024-04-19T06:34:58.512Z</time>
      </trkpt>
      <trkpt lat="43.65212" lon="3.84348">
        <ele>95.7</ele>
        <time>2024-04-19T06:35:34.865Z</time>
      </trkpt>
      <trkpt lat="43.65209" lon="3.84332">
        <ele>96.1</ele>
        <time>2024-04-19T06:35:39.668Z</time>
      </trkpt>
      <trkpt lat="43.6522" lon="3.84336">
        <ele>95.2</ele>
        <time>2024-04-19T06:35:43.266Z</time>
      </trkpt>
      <trkpt lat="43.65252" lon="3.8431">
        <ele>92.1</ele>
        <time>2024-04-19T06:35:55.008Z</time>
      </trkpt>
      <trkpt lat="43.65257" lon="3.84308">
        <ele>90.8</ele>
        <time>2024-04-19T06:35:56.654Z</time>
      </trkpt>
      <trkpt lat="43.65263" lon="3.84304">
        <ele>89.3</ele>
        <time>2024-04-19T06:35:58.761Z</time>
      </trkpt>
      <trkpt lat="43.65269" lon="3.84305">
        <ele>87.5</ele>
        <time>2024-04-19T06:36:00.673Z</time>
      </trkpt>
      <trkpt lat="43.65274" lon="3.84309">
        <ele>85.8</ele>
        <time>2024-04-19T06:36:02.500Z</time>
      </trkpt>
      <trkpt lat="43.65279" lon="3.84312">
        <ele>84.3</ele>
        <time>2024-04-19T06:36:04.225Z</time>
      </trkpt>
      <trkpt lat="43.65285" lon="3.84313">
        <ele>83</ele>
        <time>2024-04-19T06:36:06.136Z</time>
      </trkpt>
      <trkpt lat="43.65289" lon="3.84318">
        <ele>81.9</ele>
        <time>2024-04-19T06:36:07.842Z</time>
      </trkpt>
      <trkpt lat="43.65296" lon="3.84331">
        <ele>79.8</ele>
        <time>2024-04-19T06:36:11.551Z</time>
      </trkpt>
      <trkpt lat="43.65299" lon="3.84336">
        <ele>79.2</ele>
        <time>2024-04-19T06:36:13.038Z</time>
      </trkpt>
      <trkpt lat="43.65334" lon="3.84353">
        <ele>75.6</ele>
        <time>2024-04-19T06:36:24.773Z</time>
      </trkpt>
      <trkpt lat="43.6534" lon="3.84359">
        <ele>75.2</ele>
        <time>2024-04-19T06:36:27.116Z</time>
      </trkpt>
      <trkpt lat="43.65349" lon="3.84368">
        <ele>74.1</ele>
        <time>2024-04-19T06:36:30.629Z</time>
      </trkpt>
      <trkpt lat="43.65355" lon="3.84376">
        <ele>73.1</ele>
        <time>2024-04-19T06:36:33.267Z</time>
      </trkpt>
      <trkpt lat="43.65358" lon="3.84383">
        <ele>72.5</ele>
        <time>2024-04-19T06:36:35.129Z</time>
      </trkpt>
      <trkpt lat="43.65353" lon="3.84392">
        <ele>72.6</ele>
        <time>2024-04-19T06:36:38.211Z</time>
      </trkpt>
      <trkpt lat="43.65338" lon="3.84413">
        <ele>72</ele>
        <time>2024-04-19T06:36:45.300Z</time>
      </trkpt>
      <trkpt lat="43.65334" lon="3.84424">
        <ele>72.5</ele>
        <time>2024-04-19T06:36:49.152Z</time>
      </trkpt>
      <trkpt lat="43.65334" lon="3.84432">
        <ele>73</ele>
        <time>2024-04-19T06:36:51.922Z</time>
      </trkpt>
      <trkpt lat="43.65345" lon="3.84427">
        <ele>71.6</ele>
        <time>2024-04-19T06:36:55.585Z</time>
      </trkpt>
      <trkpt lat="43.65379" lon="3.84437">
        <ele>68.1</ele>
        <time>2024-04-19T06:37:06.581Z</time>
      </trkpt>
      <trkpt lat="43.65384" lon="3.84438">
        <ele>67.5</ele>
        <time>2024-04-19T06:37:08.179Z</time>
      </trkpt>
      <trkpt lat="43.65391" lon="3.84434">
        <ele>66.8</ele>
        <time>2024-04-19T06:37:10.575Z</time>
      </trkpt>
      <trkpt lat="43.65392" lon="3.84426">
        <ele>66.7</ele>
        <time>2024-04-19T06:37:12.591Z</time>
      </trkpt>
      <trkpt lat="43.65399" lon="3.84376">
        <ele>68.4</ele>
        <time>2024-04-19T06:37:28.009Z</time>
      </trkpt>
      <trkpt lat="43.65396" lon="3.84349">
        <ele>68.7</ele>
        <time>2024-04-19T06:37:35.499Z</time>
      </trkpt>
      <trkpt lat="43.65395" lon="3.84328">
        <ele>68.6</ele>
        <time>2024-04-19T06:37:40.894Z</time>
      </trkpt>
      <trkpt lat="43.65405" lon="3.84302">
        <ele>70.4</ele>
        <time>2024-04-19T06:37:51.026Z</time>
      </trkpt>
      <trkpt lat="43.65419" lon="3.84276">
        <ele>69.4</ele>
        <time>2024-04-19T06:37:58.486Z</time>
      </trkpt>
      <trkpt lat="43.65433" lon="3.84279">
        <ele>70.7</ele>
        <time>2024-04-19T06:38:05.395Z</time>
      </trkpt>
      <trkpt lat="43.65444" lon="3.84277">
        <ele>72</ele>
        <time>2024-04-19T06:38:11.309Z</time>
      </trkpt>
      <trkpt lat="43.6545" lon="3.84288">
        <ele>71.8</ele>
        <time>2024-04-19T06:38:14.699Z</time>
      </trkpt>
      <trkpt lat="43.65449" lon="3.84297">
        <ele>71.4</ele>
        <time>2024-04-19T06:38:16.783Z</time>
      </trkpt>
      <trkpt lat="43.65447" lon="3.84325">
        <ele>70.3</ele>
        <time>2024-04-19T06:38:23.222Z</time>
      </trkpt>
      <trkpt lat="43.65447" lon="3.84344">
        <ele>69.6</ele>
        <time>2024-04-19T06:38:27.571Z</time>
      </trkpt>
      <trkpt lat="43.65452" lon="3.84395">
        <ele>67.6</ele>
        <time>2024-04-19T06:38:39.350Z</time>
      </trkpt>
      <trkpt lat="43.65461" lon="3.84456">
        <ele>66</ele>
        <time>2024-04-19T06:38:53.981Z</time>
      </trkpt>
      <trkpt lat="43.65462" lon="3.84487">
        <ele>65.7</ele>
        <time>2024-04-19T06:39:01.773Z</time>
      </trkpt>
      <trkpt lat="43.65466" lon="3.84502">
        <ele>66</ele>
        <time>2024-04-19T06:39:06.308Z</time>
      </trkpt>
      <trkpt lat="43.65473" lon="3.84527">
        <ele>65.1</ele>
        <time>2024-04-19T06:39:12.443Z</time>
      </trkpt>
      <trkpt lat="43.65475" lon="3.84542">
        <ele>65.4</ele>
        <time>2024-04-19T06:39:16.787Z</time>
      </trkpt>
      <trkpt lat="43.65476" lon="3.84564">
        <ele>65</ele>
        <time>2024-04-19T06:39:22.130Z</time>
      </trkpt>
      <trkpt lat="43.65476" lon="3.84598">
        <ele>63.1</ele>
        <time>2024-04-19T06:39:29.912Z</time>
      </trkpt>
      <trkpt lat="43.65475" lon="3.84605">
        <ele>62.7</ele>
        <time>2024-04-19T06:39:31.545Z</time>
      </trkpt>
      <trkpt lat="43.65467" lon="3.84637">
        <ele>63.3</ele>
        <time>2024-04-19T06:39:41.105Z</time>
      </trkpt>
      <trkpt lat="43.65453" lon="3.84758">
        <ele>61.2</ele>
        <time>2024-04-19T06:40:10.933Z</time>
      </trkpt>
      <trkpt lat="43.65454" lon="3.84801">
        <ele>62.2</ele>
        <time>2024-04-19T06:40:23.381Z</time>
      </trkpt>
      <trkpt lat="43.65463" lon="3.84814">
        <ele>63.2</ele>
        <time>2024-04-19T06:40:29.412Z</time>
      </trkpt>
      <trkpt lat="43.65472" lon="3.84836">
        <ele>62.9</ele>
        <time>2024-04-19T06:40:35.700Z</time>
      </trkpt>
      <trkpt lat="43.65483" lon="3.84872">
        <ele>63.6</ele>
        <time>2024-04-19T06:40:46.744Z</time>
      </trkpt>
      <trkpt lat="43.65487" lon="3.8489">
        <ele>64.1</ele>
        <time>2024-04-19T06:40:52.273Z</time>
      </trkpt>
      <trkpt lat="43.65485" lon="3.84899">
        <ele>64.5</ele>
        <time>2024-04-19T06:40:55.243Z</time>
      </trkpt>
      <trkpt lat="43.65477" lon="3.84928">
        <ele>65.7</ele>
        <time>2024-04-19T06:41:04.867Z</time>
      </trkpt>
      <trkpt lat="43.65476" lon="3.84935">
        <ele>66.3</ele>
        <time>2024-04-19T06:41:07.609Z</time>
      </trkpt>
      <trkpt lat="43.65474" lon="3.84946">
        <ele>67.1</ele>
        <time>2024-04-19T06:41:11.691Z</time>
      </trkpt>
      <trkpt lat="43.65475" lon="3.84964">
        <ele>66.6</ele>
        <time>2024-04-19T06:41:15.900Z</time>
      </trkpt>
      <trkpt lat="43.6548" lon="3.84991">
        <ele>65.3</ele>
        <time>2024-04-19T06:41:22.278Z</time>
      </trkpt>
      <trkpt lat="43.65492" lon="3.85001">
        <ele>65.4</ele>
        <time>2024-04-19T06:41:27.457Z</time>
      </trkpt>
      <trkpt lat="43.65505" lon="3.85019">
        <ele>65.5</ele>
        <time>2024-04-19T06:41:34.222Z</time>
      </trkpt>
      <trkpt lat="43.6551" lon="3.85022">
        <ele>65.6</ele>
        <time>2024-04-19T06:41:36.308Z</time>
      </trkpt>
      <trkpt lat="43.65516" lon="3.85022">
        <ele>65.8</ele>
        <time>2024-04-19T06:41:38.717Z</time>
      </trkpt>
      <trkpt lat="43.65522" lon="3.85014">
        <ele>66.3</ele>
        <time>2024-04-19T06:41:42.367Z</time>
      </trkpt>
      <trkpt lat="43.6553" lon="3.85006">
        <ele>66.6</ele>
        <time>2024-04-19T06:41:46.294Z</time>
      </trkpt>
      <trkpt lat="43.6554" lon="3.84995">
        <ele>66.2</ele>
        <time>2024-04-19T06:41:50.498Z</time>
      </trkpt>
      <trkpt lat="43.65548" lon="3.84974">
        <ele>65.8</ele>
        <time>2024-04-19T06:41:56.282Z</time>
      </trkpt>
      <trkpt lat="43.6555" lon="3.84952">
        <ele>66</ele>
        <time>2024-04-19T06:42:02.310Z</time>
      </trkpt>
      <trkpt lat="43.65557" lon="3.84908">
        <ele>66.6</ele>
        <time>2024-04-19T06:42:14.788Z</time>
      </trkpt>
      <trkpt lat="43.65555" lon="3.84897">
        <ele>67.4</ele>
        <time>2024-04-19T06:42:18.870Z</time>
      </trkpt>
      <trkpt lat="43.6556" lon="3.84894">
        <ele>67.5</ele>
        <time>2024-04-19T06:42:20.956Z</time>
      </trkpt>
      <trkpt lat="43.6557" lon="3.84885">
        <ele>67.7</ele>
        <time>2024-04-19T06:42:25.501Z</time>
      </trkpt>
      <trkpt lat="43.65571" lon="3.84871">
        <ele>68.4</ele>
        <time>2024-04-19T06:42:30.091Z</time>
      </trkpt>
      <trkpt lat="43.65572" lon="3.8486">
        <ele>69.1</ele>
        <time>2024-04-19T06:42:33.943Z</time>
      </trkpt>
      <trkpt lat="43.65579" lon="3.84847">
        <ele>70.6</ele>
        <time>2024-04-19T06:42:40.439Z</time>
      </trkpt>
      <trkpt lat="43.65582" lon="3.84839">
        <ele>71.4</ele>
        <time>2024-04-19T06:42:43.984Z</time>
      </trkpt>
      <trkpt lat="43.65588" lon="3.84817">
        <ele>73.1</ele>
        <time>2024-04-19T06:42:52.518Z</time>
      </trkpt>
      <trkpt lat="43.65588" lon="3.84808">
        <ele>73.7</ele>
        <time>2024-04-19T06:42:55.697Z</time>
      </trkpt>
      <trkpt lat="43.65592" lon="3.84779">
        <ele>74.6</ele>
        <time>2024-04-19T06:43:04.519Z</time>
      </trkpt>
      <trkpt lat="43.65599" lon="3.84756">
        <ele>74.8</ele>
        <time>2024-04-19T06:43:11.273Z</time>
      </trkpt>
      <trkpt lat="43.65606" lon="3.8474">
        <ele>74.7</ele>
        <time>2024-04-19T06:43:16.054Z</time>
      </trkpt>
      <trkpt lat="43.65612" lon="3.84745">
        <ele>74.1</ele>
        <time>2024-04-19T06:43:18.270Z</time>
      </trkpt>
      <trkpt lat="43.65616" lon="3.84757">
        <ele>73.6</ele>
        <time>2024-04-19T06:43:21.294Z</time>
      </trkpt>
      <trkpt lat="43.65618" lon="3.84768">
        <ele>73.5</ele>
        <time>2024-04-19T06:43:24.152Z</time>
      </trkpt>
      <trkpt lat="43.65625" lon="3.84791">
        <ele>72.3</ele>
        <time>2024-04-19T06:43:29.863Z</time>
      </trkpt>
      <trkpt lat="43.6563" lon="3.84802">
        <ele>71.2</ele>
        <time>2024-04-19T06:43:32.836Z</time>
      </trkpt>
      <trkpt lat="43.6564" lon="3.84819">
        <ele>69.5</ele>
        <time>2024-04-19T06:43:37.850Z</time>
      </trkpt>
      <trkpt lat="43.65645" lon="3.84824">
        <ele>69</ele>
        <time>2024-04-19T06:43:39.802Z</time>
      </trkpt>
      <trkpt lat="43.65651" lon="3.84812">
        <ele>69.2</ele>
        <time>2024-04-19T06:43:43.849Z</time>
      </trkpt>
      <trkpt lat="43.65653" lon="3.84804">
        <ele>69.5</ele>
        <time>2024-04-19T06:43:46.435Z</time>
      </trkpt>
      <trkpt lat="43.65657" lon="3.84779">
        <ele>70</ele>
        <time>2024-04-19T06:43:53.723Z</time>
      </trkpt>
      <trkpt lat="43.65664" lon="3.84764">
        <ele>70.2</ele>
        <time>2024-04-19T06:43:58.621Z</time>
      </trkpt>
      <trkpt lat="43.6568" lon="3.84777">
        <ele>69.5</ele>
        <time>2024-04-19T06:44:04.611Z</time>
      </trkpt>
      <trkpt lat="43.65703" lon="3.84791">
        <ele>69.5</ele>
        <time>2024-04-19T06:44:13.697Z</time>
      </trkpt>
      <trkpt lat="43.65711" lon="3.84792">
        <ele>69.9</ele>
        <time>2024-04-19T06:44:17.098Z</time>
      </trkpt>
      <trkpt lat="43.65713" lon="3.84784">
        <ele>70.4</ele>
        <time>2024-04-19T06:44:19.982Z</time>
      </trkpt>
      <trkpt lat="43.65712" lon="3.84773">
        <ele>71.1</ele>
        <time>2024-04-19T06:44:23.834Z</time>
      </trkpt>
      <trkpt lat="43.65709" lon="3.84711">
        <ele>74.5</ele>
        <time>2024-04-19T06:44:44.580Z</time>
      </trkpt>
      <trkpt lat="43.65707" lon="3.84671">
        <ele>76.6</ele>
        <time>2024-04-19T06:44:57.822Z</time>
      </trkpt>
      <trkpt lat="43.65708" lon="3.84631">
        <ele>79.3</ele>
        <time>2024-04-19T06:45:12.015Z</time>
      </trkpt>
      <trkpt lat="43.65706" lon="3.84602">
        <ele>80.5</ele>
        <time>2024-04-19T06:45:21.152Z</time>
      </trkpt>
      <trkpt lat="43.65705" lon="3.84587">
        <ele>81.4</ele>
        <time>2024-04-19T06:45:26.302Z</time>
      </trkpt>
      <trkpt lat="43.65706" lon="3.84573">
        <ele>82.2</ele>
        <time>2024-04-19T06:45:31.046Z</time>
      </trkpt>
      <trkpt lat="43.65707" lon="3.84545">
        <ele>83.6</ele>
        <time>2024-04-19T06:45:40.200Z</time>
      </trkpt>
      <trkpt lat="43.65706" lon="3.84524">
        <ele>84.7</ele>
        <time>2024-04-19T06:45:47.147Z</time>
      </trkpt>
      <trkpt lat="43.65707" lon="3.84509">
        <ele>85.2</ele>
        <time>2024-04-19T06:45:51.703Z</time>
      </trkpt>
      <trkpt lat="43.65714" lon="3.84485">
        <ele>86.2</ele>
        <time>2024-04-19T06:45:59.725Z</time>
      </trkpt>
      <trkpt lat="43.65715" lon="3.84465">
        <ele>87.3</ele>
        <time>2024-04-19T06:46:06.424Z</time>
      </trkpt>
      <trkpt lat="43.65715" lon="3.84447">
        <ele>87.9</ele>
        <time>2024-04-19T06:46:11.871Z</time>
      </trkpt>
      <trkpt lat="43.65741" lon="3.84376">
        <ele>91.1</ele>
        <time>2024-04-19T06:46:36.719Z</time>
      </trkpt>
      <trkpt lat="43.65754" lon="3.84357">
        <ele>93</ele>
        <time>2024-04-19T06:46:46.227Z</time>
      </trkpt>
      <trkpt lat="43.65762" lon="3.84333">
        <ele>93.4</ele>
        <time>2024-04-19T06:46:53.604Z</time>
      </trkpt>
      <trkpt lat="43.65768" lon="3.8432">
        <ele>94.4</ele>
        <time>2024-04-19T06:46:59.004Z</time>
      </trkpt>
      <trkpt lat="43.65773" lon="3.84306">
        <ele>95.6</ele>
        <time>2024-04-19T06:47:04.798Z</time>
      </trkpt>
      <trkpt lat="43.6577" lon="3.8429">
        <ele>96</ele>
        <time>2024-04-19T06:47:09.600Z</time>
      </trkpt>
      <trkpt lat="43.65743" lon="3.84216">
        <ele>94.7</ele>
        <time>2024-04-19T06:47:29.895Z</time>
      </trkpt>
      <trkpt lat="43.65737" lon="3.84207">
        <ele>94</ele>
        <time>2024-04-19T06:47:32.696Z</time>
      </trkpt>
      <trkpt lat="43.65724" lon="3.84179">
        <ele>94.8</ele>
        <time>2024-04-19T06:47:42.355Z</time>
      </trkpt>
      <trkpt lat="43.65706" lon="3.84133">
        <ele>98.9</ele>
        <time>2024-04-19T06:48:01.906Z</time>
      </trkpt>
      <trkpt lat="43.657" lon="3.84121">
        <ele>99.6</ele>
        <time>2024-04-19T06:48:06.626Z</time>
      </trkpt>
      <trkpt lat="43.65702" lon="3.84114">
        <ele>100.3</ele>
        <time>2024-04-19T06:48:09.650Z</time>
      </trkpt>
      <trkpt lat="43.65708" lon="3.84109">
        <ele>101.2</ele>
        <time>2024-04-19T06:48:13.539Z</time>
      </trkpt>
      <trkpt lat="43.65723" lon="3.84098">
        <ele>103</ele>
        <time>2024-04-19T06:48:22.241Z</time>
      </trkpt>
      <trkpt lat="43.65741" lon="3.84085">
        <ele>104.6</ele>
        <time>2024-04-19T06:48:31.714Z</time>
      </trkpt>
      <trkpt lat="43.6577" lon="3.84062">
        <ele>105.8</ele>
        <time>2024-04-19T06:48:45.247Z</time>
      </trkpt>
      <trkpt lat="43.65778" lon="3.84059">
        <ele>105.8</ele>
        <time>2024-04-19T06:48:48.243Z</time>
      </trkpt>
      <trkpt lat="43.65782" lon="3.84064">
        <ele>105.2</ele>
        <time>2024-04-19T06:48:49.949Z</time>
      </trkpt>
      <trkpt lat="43.65793" lon="3.84072">
        <ele>104.2</ele>
        <time>2024-04-19T06:48:53.881Z</time>
      </trkpt>
      <trkpt lat="43.65799" lon="3.84074">
        <ele>103.8</ele>
        <time>2024-04-19T06:48:55.833Z</time>
      </trkpt>
      <trkpt lat="43.65803" lon="3.84081">
        <ele>103.9</ele>
        <time>2024-04-19T06:48:58.282Z</time>
      </trkpt>
      <trkpt lat="43.65807" lon="3.84086">
        <ele>103.7</ele>
        <time>2024-04-19T06:49:00.025Z</time>
      </trkpt>
      <trkpt lat="43.65815" lon="3.84101">
        <ele>103</ele>
        <time>2024-04-19T06:49:04.290Z</time>
      </trkpt>
      <trkpt lat="43.65832" lon="3.84129">
        <ele>103.7</ele>
        <time>2024-04-19T06:49:14.676Z</time>
      </trkpt>
      <trkpt lat="43.65857" lon="3.84178">
        <ele>103.4</ele>
        <time>2024-04-19T06:49:30.029Z</time>
      </trkpt>
      <trkpt lat="43.65879" lon="3.84249">
        <ele>101.7</ele>
        <time>2024-04-19T06:49:48.456Z</time>
      </trkpt>
      <trkpt lat="43.65895" lon="3.84289">
        <ele>100</ele>
        <time>2024-04-19T06:49:58.916Z</time>
      </trkpt>
      <trkpt lat="43.65918" lon="3.8436">
        <ele>99.7</ele>
        <time>2024-04-19T06:50:18.932Z</time>
      </trkpt>
      <trkpt lat="43.65928" lon="3.8438">
        <ele>98.7</ele>
        <time>2024-04-19T06:50:24.495Z</time>
      </trkpt>
      <trkpt lat="43.65934" lon="3.84393">
        <ele>98.8</ele>
        <time>2024-04-19T06:50:28.642Z</time>
      </trkpt>
      <trkpt lat="43.65942" lon="3.84413">
        <ele>99</ele>
        <time>2024-04-19T06:50:34.847Z</time>
      </trkpt>
      <trkpt lat="43.65945" lon="3.84418">
        <ele>98.9</ele>
        <time>2024-04-19T06:50:36.440Z</time>
      </trkpt>
      <trkpt lat="43.65952" lon="3.84429">
        <ele>97.9</ele>
        <time>2024-04-19T06:50:39.792Z</time>
      </trkpt>
      <trkpt lat="43.6596" lon="3.84438">
        <ele>97.1</ele>
        <time>2024-04-19T06:50:43.055Z</time>
      </trkpt>
      <trkpt lat="43.65969" lon="3.84465">
        <ele>95.5</ele>
        <time>2024-04-19T06:50:49.858Z</time>
      </trkpt>
      <trkpt lat="43.65976" lon="3.84491">
        <ele>92.9</ele>
        <time>2024-04-19T06:50:56.207Z</time>
      </trkpt>
      <trkpt lat="43.65976" lon="3.84501">
        <ele>92.3</ele>
        <time>2024-04-19T06:50:58.495Z</time>
      </trkpt>
      <trkpt lat="43.65986" lon="3.84526">
        <ele>91</ele>
        <time>2024-04-19T06:51:05.033Z</time>
      </trkpt>
      <trkpt lat="43.65991" lon="3.84529">
        <ele>90.3</ele>
        <time>2024-04-19T06:51:06.757Z</time>
      </trkpt>
      <trkpt lat="43.65998" lon="3.84516">
        <ele>88.9</ele>
        <time>2024-04-19T06:51:10.465Z</time>
      </trkpt>
      <trkpt lat="43.66001" lon="3.84509">
        <ele>88</ele>
        <time>2024-04-19T06:51:12.327Z</time>
      </trkpt>
      <trkpt lat="43.66006" lon="3.84498">
        <ele>86.1</ele>
        <time>2024-04-19T06:51:15.300Z</time>
      </trkpt>
      <trkpt lat="43.6601" lon="3.84491">
        <ele>85.1</ele>
        <time>2024-04-19T06:51:17.341Z</time>
      </trkpt>
      <trkpt lat="43.66015" lon="3.84483">
        <ele>83.8</ele>
        <time>2024-04-19T06:51:19.761Z</time>
      </trkpt>
      <trkpt lat="43.66021" lon="3.84483">
        <ele>81.8</ele>
        <time>2024-04-19T06:51:21.659Z</time>
      </trkpt>
      <trkpt lat="43.66026" lon="3.84485">
        <ele>80.1</ele>
        <time>2024-04-19T06:51:23.305Z</time>
      </trkpt>
      <trkpt lat="43.66037" lon="3.84491">
        <ele>75.9</ele>
        <time>2024-04-19T06:51:27.046Z</time>
      </trkpt>
      <trkpt lat="43.66047" lon="3.84492">
        <ele>72.1</ele>
        <time>2024-04-19T06:51:30.217Z</time>
      </trkpt>
      <trkpt lat="43.66055" lon="3.84489">
        <ele>69.4</ele>
        <time>2024-04-19T06:51:32.839Z</time>
      </trkpt>
      <trkpt lat="43.66063" lon="3.84488">
        <ele>67.6</ele>
        <time>2024-04-19T06:51:35.380Z</time>
      </trkpt>
      <trkpt lat="43.66072" lon="3.84491">
        <ele>65.2</ele>
        <time>2024-04-19T06:51:38.309Z</time>
      </trkpt>
      <trkpt lat="43.66082" lon="3.84486">
        <ele>63.3</ele>
        <time>2024-04-19T06:51:41.673Z</time>
      </trkpt>
      <trkpt lat="43.66091" lon="3.84481">
        <ele>62.2</ele>
        <time>2024-04-19T06:51:44.741Z</time>
      </trkpt>
      <trkpt lat="43.66096" lon="3.84479">
        <ele>61.5</ele>
        <time>2024-04-19T06:51:46.387Z</time>
      </trkpt>
      <trkpt lat="43.66099" lon="3.84472">
        <ele>61.2</ele>
        <time>2024-04-19T06:51:48.249Z</time>
      </trkpt>
      <trkpt lat="43.66105" lon="3.84459">
        <ele>59.9</ele>
        <time>2024-04-19T06:51:51.778Z</time>
      </trkpt>
      <trkpt lat="43.66104" lon="3.84448">
        <ele>60.1</ele>
        <time>2024-04-19T06:51:54.912Z</time>
      </trkpt>
      <trkpt lat="43.661" lon="3.84437">
        <ele>61</ele>
        <time>2024-04-19T06:51:59.398Z</time>
      </trkpt>
      <trkpt lat="43.66097" lon="3.84425">
        <ele>61.3</ele>
        <time>2024-04-19T06:52:03.077Z</time>
      </trkpt>
      <trkpt lat="43.66094" lon="3.84416">
        <ele>61.4</ele>
        <time>2024-04-19T06:52:05.784Z</time>
      </trkpt>
      <trkpt lat="43.66091" lon="3.84408">
        <ele>61.5</ele>
        <time>2024-04-19T06:52:08.255Z</time>
      </trkpt>
      <trkpt lat="43.66087" lon="3.844">
        <ele>61.5</ele>
        <time>2024-04-19T06:52:10.799Z</time>
      </trkpt>
      <trkpt lat="43.66083" lon="3.84393">
        <ele>61.4</ele>
        <time>2024-04-19T06:52:13.024Z</time>
      </trkpt>
      <trkpt lat="43.66079" lon="3.84385">
        <ele>62.2</ele>
        <time>2024-04-19T06:52:16.729Z</time>
      </trkpt>
      <trkpt lat="43.66076" lon="3.84377">
        <ele>62.9</ele>
        <time>2024-04-19T06:52:20.085Z</time>
      </trkpt>
      <trkpt lat="43.66073" lon="3.84366">
        <ele>63.4</ele>
        <time>2024-04-19T06:52:23.795Z</time>
      </trkpt>
      <trkpt lat="43.66055" lon="3.84318">
        <ele>63.1</ele>
        <time>2024-04-19T06:52:37.607Z</time>
      </trkpt>
      <trkpt lat="43.6605" lon="3.84307">
        <ele>63.5</ele>
        <time>2024-04-19T06:52:41.493Z</time>
      </trkpt>
      <trkpt lat="43.66044" lon="3.843">
        <ele>64.5</ele>
        <time>2024-04-19T06:52:45.835Z</time>
      </trkpt>
      <trkpt lat="43.66039" lon="3.84296">
        <ele>65.1</ele>
        <time>2024-04-19T06:52:48.773Z</time>
      </trkpt>
      <trkpt lat="43.66032" lon="3.84288">
        <ele>65.3</ele>
        <time>2024-04-19T06:52:52.290Z</time>
      </trkpt>
      <trkpt lat="43.66029" lon="3.84282">
        <ele>64.6</ele>
        <time>2024-04-19T06:52:53.959Z</time>
      </trkpt>
      <trkpt lat="43.66029" lon="3.84258">
        <ele>63.2</ele>
        <time>2024-04-19T06:52:59.451Z</time>
      </trkpt>
      <trkpt lat="43.66025" lon="3.84237">
        <ele>63</ele>
        <time>2024-04-19T06:53:04.914Z</time>
      </trkpt>
      <trkpt lat="43.65988" lon="3.84171">
        <ele>64.9</ele>
        <time>2024-04-19T06:53:29.018Z</time>
      </trkpt>
      <trkpt lat="43.65979" lon="3.84145">
        <ele>65</ele>
        <time>2024-04-19T06:53:36.669Z</time>
      </trkpt>
      <trkpt lat="43.65953" lon="3.84098">
        <ele>68.2</ele>
        <time>2024-04-19T06:53:56.364Z</time>
      </trkpt>
      <trkpt lat="43.65949" lon="3.84089">
        <ele>68</ele>
        <time>2024-04-19T06:53:58.916Z</time>
      </trkpt>
      <trkpt lat="43.65932" lon="3.84067">
        <ele>69</ele>
        <time>2024-04-19T06:54:08.559Z</time>
      </trkpt>
      <trkpt lat="43.6592" lon="3.84061">
        <ele>70.3</ele>
        <time>2024-04-19T06:54:15.004Z</time>
      </trkpt>
      <trkpt lat="43.65915" lon="3.84057">
        <ele>70.7</ele>
        <time>2024-04-19T06:54:17.614Z</time>
      </trkpt>
      <trkpt lat="43.65911" lon="3.84052">
        <ele>71.4</ele>
        <time>2024-04-19T06:54:20.622Z</time>
      </trkpt>
      <trkpt lat="43.65907" lon="3.84035">
        <ele>70.4</ele>
        <time>2024-04-19T06:54:24.713Z</time>
      </trkpt>
      <trkpt lat="43.65888" lon="3.83984">
        <ele>69</ele>
        <time>2024-04-19T06:54:38.265Z</time>
      </trkpt>
      <trkpt lat="43.65892" lon="3.83978">
        <ele>68.3</ele>
        <time>2024-04-19T06:54:40.132Z</time>
      </trkpt>
      <trkpt lat="43.65912" lon="3.84002">
        <ele>67.6</ele>
        <time>2024-04-19T06:54:48.971Z</time>
      </trkpt>
      <trkpt lat="43.6592" lon="3.83993">
        <ele>66.9</ele>
        <time>2024-04-19T06:54:52.233Z</time>
      </trkpt>
      <trkpt lat="43.6593" lon="3.83902">
        <ele>68.3</ele>
        <time>2024-04-19T06:55:17.938Z</time>
      </trkpt>
      <trkpt lat="43.65932" lon="3.83842">
        <ele>69.4</ele>
        <time>2024-04-19T06:55:34.941Z</time>
      </trkpt>
      <trkpt lat="43.65928" lon="3.83819">
        <ele>69.7</ele>
        <time>2024-04-19T06:55:41.474Z</time>
      </trkpt>
      <trkpt lat="43.65925" lon="3.83806">
        <ele>70</ele>
        <time>2024-04-19T06:55:45.400Z</time>
      </trkpt>
      <trkpt lat="43.65919" lon="3.83792">
        <ele>70.5</ele>
        <time>2024-04-19T06:55:50.268Z</time>
      </trkpt>
      <trkpt lat="43.65916" lon="3.8377">
        <ele>71</ele>
        <time>2024-04-19T06:55:56.718Z</time>
      </trkpt>
      <trkpt lat="43.65928" lon="3.83749">
        <ele>71.4</ele>
        <time>2024-04-19T06:56:04.183Z</time>
      </trkpt>
      <trkpt lat="43.65934" lon="3.8375">
        <ele>71.6</ele>
        <time>2024-04-19T06:56:06.607Z</time>
      </trkpt>
      <trkpt lat="43.65969" lon="3.83768">
        <ele>71.9</ele>
        <time>2024-04-19T06:56:20.447Z</time>
      </trkpt>
      <trkpt lat="43.65983" lon="3.8376">
        <ele>72</ele>
        <time>2024-04-19T06:56:26.037Z</time>
      </trkpt>
      <trkpt lat="43.66006" lon="3.83743">
        <ele>72.5</ele>
        <time>2024-04-19T06:56:36.046Z</time>
      </trkpt>
      <trkpt lat="43.66013" lon="3.83734">
        <ele>73</ele>
        <time>2024-04-19T06:56:40.127Z</time>
      </trkpt>
      <trkpt lat="43.66015" lon="3.83727">
        <ele>73.4</ele>
        <time>2024-04-19T06:56:42.622Z</time>
      </trkpt>
      <trkpt lat="43.66017" lon="3.83708">
        <ele>74.1</ele>
        <time>2024-04-19T06:56:48.515Z</time>
      </trkpt>
      <trkpt lat="43.66024" lon="3.83685">
        <ele>75.2</ele>
        <time>2024-04-19T06:56:56.445Z</time>
      </trkpt>
      <trkpt lat="43.66034" lon="3.83675">
        <ele>75.9</ele>
        <time>2024-04-19T06:57:01.792Z</time>
      </trkpt>
      <trkpt lat="43.66061" lon="3.83662">
        <ele>77.7</ele>
        <time>2024-04-19T06:57:14.437Z</time>
      </trkpt>
      <trkpt lat="43.66078" lon="3.8366">
        <ele>78.9</ele>
        <time>2024-04-19T06:57:22.171Z</time>
      </trkpt>
      <trkpt lat="43.66095" lon="3.83669">
        <ele>79.7</ele>
        <time>2024-04-19T06:57:29.734Z</time>
      </trkpt>
      <trkpt lat="43.66111" lon="3.83684">
        <ele>79.7</ele>
        <time>2024-04-19T06:57:36.723Z</time>
      </trkpt>
      <trkpt lat="43.66128" lon="3.83698">
        <ele>80</ele>
        <time>2024-04-19T06:57:44.222Z</time>
      </trkpt>
      <trkpt lat="43.6615" lon="3.8372">
        <ele>79.6</ele>
        <time>2024-04-19T06:57:53.607Z</time>
      </trkpt>
      <trkpt lat="43.66168" lon="3.83741">
        <ele>78.7</ele>
        <time>2024-04-19T06:58:01.198Z</time>
      </trkpt>
      <trkpt lat="43.66192" lon="3.83757">
        <ele>78.2</ele>
        <time>2024-04-19T06:58:10.296Z</time>
      </trkpt>
      <trkpt lat="43.66235" lon="3.83778">
        <ele>75.5</ele>
        <time>2024-04-19T06:58:24.721Z</time>
      </trkpt>
      <trkpt lat="43.66304" lon="3.83816">
        <ele>73.9</ele>
        <time>2024-04-19T06:58:49.872Z</time>
      </trkpt>
      <trkpt lat="43.66325" lon="3.83839">
        <ele>73</ele>
        <time>2024-04-19T06:58:58.624Z</time>
      </trkpt>
      <trkpt lat="43.66335" lon="3.83857">
        <ele>71.6</ele>
        <time>2024-04-19T06:59:03.818Z</time>
      </trkpt>
      <trkpt lat="43.66338" lon="3.83865">
        <ele>71.4</ele>
        <time>2024-04-19T06:59:05.966Z</time>
      </trkpt>
      <trkpt lat="43.66339" lon="3.83872">
        <ele>71.2</ele>
        <time>2024-04-19T06:59:07.627Z</time>
      </trkpt>
      <trkpt lat="43.66338" lon="3.83896">
        <ele>70.2</ele>
        <time>2024-04-19T06:59:13.128Z</time>
      </trkpt>
      <trkpt lat="43.66339" lon="3.83903">
        <ele>69.9</ele>
        <time>2024-04-19T06:59:14.760Z</time>
      </trkpt>
      <trkpt lat="43.6635" lon="3.83916">
        <ele>69.7</ele>
        <time>2024-04-19T06:59:19.776Z</time>
      </trkpt>
      <trkpt lat="43.66362" lon="3.83908">
        <ele>71</ele>
        <time>2024-04-19T06:59:26.405Z</time>
      </trkpt>
      <trkpt lat="43.66382" lon="3.83897">
        <ele>72.3</ele>
        <time>2024-04-19T06:59:35.844Z</time>
      </trkpt>
      <trkpt lat="43.66395" lon="3.83899">
        <ele>72.4</ele>
        <time>2024-04-19T06:59:40.686Z</time>
      </trkpt>
      <trkpt lat="43.66407" lon="3.83906">
        <ele>72.5</ele>
        <time>2024-04-19T06:59:45.508Z</time>
      </trkpt>
      <trkpt lat="43.66508" lon="3.83959">
        <ele>70.5</ele>
        <time>2024-04-19T07:00:22.423Z</time>
      </trkpt>
      <trkpt lat="43.66523" lon="3.8396">
        <ele>70.4</ele>
        <time>2024-04-19T07:00:27.742Z</time>
      </trkpt>
      <trkpt lat="43.66525" lon="3.83968">
        <ele>70.2</ele>
        <time>2024-04-19T07:00:29.748Z</time>
      </trkpt>
      <trkpt lat="43.66522" lon="3.83984">
        <ele>69.3</ele>
        <time>2024-04-19T07:00:33.530Z</time>
      </trkpt>
      <trkpt lat="43.6653" lon="3.83994">
        <ele>68.6</ele>
        <time>2024-04-19T07:00:36.942Z</time>
      </trkpt>
      <trkpt lat="43.66627" lon="3.8406">
        <ele>68.9</ele>
        <time>2024-04-19T07:01:16.362Z</time>
      </trkpt>
      <trkpt lat="43.66636" lon="3.84076">
        <ele>67.9</ele>
        <time>2024-04-19T07:01:20.999Z</time>
      </trkpt>
      <trkpt lat="43.66642" lon="3.84107">
        <ele>67.1</ele>
        <time>2024-04-19T07:01:28.563Z</time>
      </trkpt>
      <trkpt lat="43.66648" lon="3.84106">
        <ele>67.3</ele>
        <time>2024-04-19T07:01:30.988Z</time>
      </trkpt>
      <trkpt lat="43.66654" lon="3.84096">
        <ele>68.5</ele>
        <time>2024-04-19T07:01:36.190Z</time>
      </trkpt>
      <trkpt lat="43.66645" lon="3.8403">
        <ele>76.5</ele>
        <time>2024-04-19T07:02:07.016Z</time>
      </trkpt>
      <trkpt lat="43.66641" lon="3.84011">
        <ele>79.3</ele>
        <time>2024-04-19T07:02:17.242Z</time>
      </trkpt>
      <trkpt lat="43.66646" lon="3.83996">
        <ele>82.1</ele>
        <time>2024-04-19T07:02:27.197Z</time>
      </trkpt>
      <trkpt lat="43.66648" lon="3.83989">
        <ele>82.9</ele>
        <time>2024-04-19T07:02:30.431Z</time>
      </trkpt>
      <trkpt lat="43.66653" lon="3.83981">
        <ele>83.9</ele>
        <time>2024-04-19T07:02:34.712Z</time>
      </trkpt>
      <trkpt lat="43.66658" lon="3.83975">
        <ele>84.5</ele>
        <time>2024-04-19T07:02:37.928Z</time>
      </trkpt>
      <trkpt lat="43.66658" lon="3.83962">
        <ele>86.2</ele>
        <time>2024-04-19T07:02:44.271Z</time>
      </trkpt>
      <trkpt lat="43.66652" lon="3.83953">
        <ele>87.2</ele>
        <time>2024-04-19T07:02:48.921Z</time>
      </trkpt>
      <trkpt lat="43.66651" lon="3.83946">
        <ele>88.2</ele>
        <time>2024-04-19T07:02:52.582Z</time>
      </trkpt>
      <trkpt lat="43.66657" lon="3.83936">
        <ele>89.2</ele>
        <time>2024-04-19T07:02:57.404Z</time>
      </trkpt>
      <trkpt lat="43.66659" lon="3.83929">
        <ele>89.7</ele>
        <time>2024-04-19T07:03:00.060Z</time>
      </trkpt>
      <trkpt lat="43.66659" lon="3.83921">
        <ele>90.2</ele>
        <time>2024-04-19T07:03:02.830Z</time>
      </trkpt>
      <trkpt lat="43.66655" lon="3.83914">
        <ele>90.3</ele>
        <time>2024-04-19T07:03:05.278Z</time>
      </trkpt>
      <trkpt lat="43.66649" lon="3.839">
        <ele>90.3</ele>
        <time>2024-04-19T07:03:09.534Z</time>
      </trkpt>
      <trkpt lat="43.66645" lon="3.83886">
        <ele>90.5</ele>
        <time>2024-04-19T07:03:13.702Z</time>
      </trkpt>
      <trkpt lat="43.66649" lon="3.83868">
        <ele>90.9</ele>
        <time>2024-04-19T07:03:19.101Z</time>
      </trkpt>
      <trkpt lat="43.66657" lon="3.83853">
        <ele>90.7</ele>
        <time>2024-04-19T07:03:23.759Z</time>
      </trkpt>
      <trkpt lat="43.6666" lon="3.83834">
        <ele>90</ele>
        <time>2024-04-19T07:03:28.209Z</time>
      </trkpt>
      <trkpt lat="43.66652" lon="3.83832">
        <ele>90</ele>
        <time>2024-04-19T07:03:31.148Z</time>
      </trkpt>
      <trkpt lat="43.66654" lon="3.83831">
        <ele>89.9</ele>
        <time>2024-04-19T07:03:31.820Z</time>
      </trkpt>
      <trkpt lat="43.66662" lon="3.83829">
        <ele>89.8</ele>
        <time>2024-04-19T07:03:34.651Z</time>
      </trkpt>
      <trkpt lat="43.66672" lon="3.8383">
        <ele>90.2</ele>
        <time>2024-04-19T07:03:38.762Z</time>
      </trkpt>
      <trkpt lat="43.6668" lon="3.83836">
        <ele>91</ele>
        <time>2024-04-19T07:03:43.142Z</time>
      </trkpt>
      <trkpt lat="43.66693" lon="3.83849">
        <ele>91.9</ele>
        <time>2024-04-19T07:03:50.078Z</time>
      </trkpt>
      <trkpt lat="43.66702" lon="3.83861">
        <ele>92.5</ele>
        <time>2024-04-19T07:03:55.341Z</time>
      </trkpt>
      <trkpt lat="43.66709" lon="3.83874">
        <ele>92.8</ele>
        <time>2024-04-19T07:03:59.933Z</time>
      </trkpt>
      <trkpt lat="43.66707" lon="3.83896">
        <ele>92.2</ele>
        <time>2024-04-19T07:04:05.114Z</time>
      </trkpt>
      <trkpt lat="43.66708" lon="3.8393">
        <ele>90.8</ele>
        <time>2024-04-19T07:04:12.900Z</time>
      </trkpt>
      <trkpt lat="43.66704" lon="3.83967">
        <ele>87.8</ele>
        <time>2024-04-19T07:04:21.460Z</time>
      </trkpt>
      <trkpt lat="43.66708" lon="3.83983">
        <ele>86.5</ele>
        <time>2024-04-19T07:04:25.334Z</time>
      </trkpt>
      <trkpt lat="43.66714" lon="3.83985">
        <ele>86.5</ele>
        <time>2024-04-19T07:04:27.565Z</time>
      </trkpt>
      <trkpt lat="43.66723" lon="3.83985">
        <ele>86.6</ele>
        <time>2024-04-19T07:04:30.933Z</time>
      </trkpt>
      <trkpt lat="43.66736" lon="3.83983">
        <ele>86.6</ele>
        <time>2024-04-19T07:04:35.661Z</time>
      </trkpt>
      <trkpt lat="43.66746" lon="3.83981">
        <ele>86.8</ele>
        <time>2024-04-19T07:04:39.546Z</time>
      </trkpt>
      <trkpt lat="43.66754" lon="3.8399">
        <ele>85.4</ele>
        <time>2024-04-19T07:04:42.809Z</time>
      </trkpt>
      <trkpt lat="43.66768" lon="3.84013">
        <ele>82.3</ele>
        <time>2024-04-19T07:04:49.687Z</time>
      </trkpt>
      <trkpt lat="43.66775" lon="3.84016">
        <ele>81.8</ele>
        <time>2024-04-19T07:04:52.005Z</time>
      </trkpt>
      <trkpt lat="43.66783" lon="3.84017">
        <ele>81.6</ele>
        <time>2024-04-19T07:04:54.698Z</time>
      </trkpt>
      <trkpt lat="43.66811" lon="3.84043">
        <ele>77.2</ele>
        <time>2024-04-19T07:05:05.368Z</time>
      </trkpt>
      <trkpt lat="43.66822" lon="3.84046">
        <ele>76.5</ele>
        <time>2024-04-19T07:05:08.914Z</time>
      </trkpt>
      <trkpt lat="43.66839" lon="3.84049">
        <ele>75.7</ele>
        <time>2024-04-19T07:05:14.335Z</time>
      </trkpt>
      <trkpt lat="43.66854" lon="3.84054">
        <ele>74.5</ele>
        <time>2024-04-19T07:05:19.216Z</time>
      </trkpt>
      <trkpt lat="43.66861" lon="3.84056">
        <ele>73.9</ele>
        <time>2024-04-19T07:05:21.477Z</time>
      </trkpt>
      <trkpt lat="43.66874" lon="3.84063">
        <ele>71.4</ele>
        <time>2024-04-19T07:05:25.890Z</time>
      </trkpt>
      <trkpt lat="43.66881" lon="3.84061">
        <ele>71.1</ele>
        <time>2024-04-19T07:05:28.169Z</time>
      </trkpt>
      <trkpt lat="43.66889" lon="3.84062">
        <ele>70.3</ele>
        <time>2024-04-19T07:05:30.710Z</time>
      </trkpt>
      <trkpt lat="43.66898" lon="3.84055">
        <ele>69.7</ele>
        <time>2024-04-19T07:05:33.976Z</time>
      </trkpt>
      <trkpt lat="43.66903" lon="3.84048">
        <ele>69.5</ele>
        <time>2024-04-19T07:05:36.339Z</time>
      </trkpt>
      <trkpt lat="43.66907" lon="3.84042">
        <ele>69.2</ele>
        <time>2024-04-19T07:05:38.206Z</time>
      </trkpt>
      <trkpt lat="43.66912" lon="3.84031">
        <ele>68.9</ele>
        <time>2024-04-19T07:05:41.291Z</time>
      </trkpt>
      <trkpt lat="43.66915" lon="3.84018">
        <ele>68.4</ele>
        <time>2024-04-19T07:05:44.413Z</time>
      </trkpt>
      <trkpt lat="43.66914" lon="3.84">
        <ele>68.8</ele>
        <time>2024-04-19T07:05:49.610Z</time>
      </trkpt>
      <trkpt lat="43.66914" lon="3.8399">
        <ele>69</ele>
        <time>2024-04-19T07:05:52.462Z</time>
      </trkpt>
      <trkpt lat="43.6691" lon="3.83977">
        <ele>70.2</ele>
        <time>2024-04-19T07:05:57.914Z</time>
      </trkpt>
      <trkpt lat="43.66906" lon="3.83969">
        <ele>70.8</ele>
        <time>2024-04-19T07:06:01.269Z</time>
      </trkpt>
      <trkpt lat="43.66893" lon="3.83955">
        <ele>71.2</ele>
        <time>2024-04-19T07:06:07.696Z</time>
      </trkpt>
      <trkpt lat="43.66886" lon="3.83934">
        <ele>70.8</ele>
        <time>2024-04-19T07:06:13.320Z</time>
      </trkpt>
      <trkpt lat="43.66881" lon="3.83889">
        <ele>72.3</ele>
        <time>2024-04-19T07:06:27.073Z</time>
      </trkpt>
      <trkpt lat="43.66881" lon="3.83878">
        <ele>72.6</ele>
        <time>2024-04-19T07:06:30.312Z</time>
      </trkpt>
      <trkpt lat="43.66882" lon="3.83843">
        <ele>73.2</ele>
        <time>2024-04-19T07:06:40.175Z</time>
      </trkpt>
      <trkpt lat="43.66884" lon="3.83835">
        <ele>73</ele>
        <time>2024-04-19T07:06:42.180Z</time>
      </trkpt>
      <trkpt lat="43.66883" lon="3.83818">
        <ele>74.8</ele>
        <time>2024-04-19T07:06:49.479Z</time>
      </trkpt>
      <trkpt lat="43.66876" lon="3.83798">
        <ele>76.5</ele>
        <time>2024-04-19T07:06:57.709Z</time>
      </trkpt>
      <trkpt lat="43.6687" lon="3.83777">
        <ele>75.9</ele>
        <time>2024-04-19T07:07:02.995Z</time>
      </trkpt>
      <trkpt lat="43.66869" lon="3.83762">
        <ele>76</ele>
        <time>2024-04-19T07:07:07.047Z</time>
      </trkpt>
      <trkpt lat="43.66866" lon="3.83743">
        <ele>75.4</ele>
        <time>2024-04-19T07:07:11.522Z</time>
      </trkpt>
      <trkpt lat="43.66867" lon="3.83734">
        <ele>75.7</ele>
        <time>2024-04-19T07:07:14.273Z</time>
      </trkpt>
      <trkpt lat="43.66875" lon="3.83708">
        <ele>76.2</ele>
        <time>2024-04-19T07:07:22.249Z</time>
      </trkpt>
      <trkpt lat="43.66878" lon="3.83661">
        <ele>76.7</ele>
        <time>2024-04-19T07:07:35.161Z</time>
      </trkpt>
      <trkpt lat="43.66876" lon="3.83625">
        <ele>77.7</ele>
        <time>2024-04-19T07:07:45.814Z</time>
      </trkpt>
      <trkpt lat="43.6687" lon="3.83607">
        <ele>78.4</ele>
        <time>2024-04-19T07:07:51.866Z</time>
      </trkpt>
      <trkpt lat="43.66864" lon="3.83601">
        <ele>78.8</ele>
        <time>2024-04-19T07:07:55.045Z</time>
      </trkpt>
      <trkpt lat="43.66858" lon="3.83596">
        <ele>79.3</ele>
        <time>2024-04-19T07:07:58.232Z</time>
      </trkpt>
      <trkpt lat="43.66849" lon="3.83591">
        <ele>80</ele>
        <time>2024-04-19T07:08:02.656Z</time>
      </trkpt>
      <trkpt lat="43.66841" lon="3.83584">
        <ele>80.5</ele>
        <time>2024-04-19T07:08:06.705Z</time>
      </trkpt>
      <trkpt lat="43.66833" lon="3.83582">
        <ele>81</ele>
        <time>2024-04-19T07:08:10.283Z</time>
      </trkpt>
      <trkpt lat="43.66827" lon="3.8358">
        <ele>81.3</ele>
        <time>2024-04-19T07:08:12.887Z</time>
      </trkpt>
      <trkpt lat="43.66823" lon="3.83574">
        <ele>81.3</ele>
        <time>2024-04-19T07:08:15.020Z</time>
      </trkpt>
      <trkpt lat="43.66817" lon="3.83561">
        <ele>80.9</ele>
        <time>2024-04-19T07:08:18.640Z</time>
      </trkpt>
      <trkpt lat="43.66811" lon="3.83562">
        <ele>81.2</ele>
        <time>2024-04-19T07:08:21.198Z</time>
      </trkpt>
      <trkpt lat="43.66805" lon="3.83564">
        <ele>81.7</ele>
        <time>2024-04-19T07:08:24.099Z</time>
      </trkpt>
      <trkpt lat="43.66798" lon="3.83562">
        <ele>82.3</ele>
        <time>2024-04-19T07:08:27.492Z</time>
      </trkpt>
      <trkpt lat="43.66793" lon="3.83559">
        <ele>82.7</ele>
        <time>2024-04-19T07:08:29.989Z</time>
      </trkpt>
      <trkpt lat="43.66788" lon="3.83559">
        <ele>83.2</ele>
        <time>2024-04-19T07:08:32.497Z</time>
      </trkpt>
      <trkpt lat="43.66778" lon="3.83563">
        <ele>84.8</ele>
        <time>2024-04-19T07:08:38.837Z</time>
      </trkpt>
      <trkpt lat="43.66772" lon="3.83563">
        <ele>85.8</ele>
        <time>2024-04-19T07:08:42.673Z</time>
      </trkpt>
      <trkpt lat="43.66751" lon="3.83477">
        <ele>85.9</ele>
        <time>2024-04-19T07:09:06.520Z</time>
      </trkpt>
      <trkpt lat="43.66746" lon="3.8345">
        <ele>86.8</ele>
        <time>2024-04-19T07:09:14.915Z</time>
      </trkpt>
      <trkpt lat="43.6675" lon="3.83434">
        <ele>86.4</ele>
        <time>2024-04-19T07:09:18.926Z</time>
      </trkpt>
      <trkpt lat="43.6676" lon="3.83407">
        <ele>87.4</ele>
        <time>2024-04-19T07:09:28.090Z</time>
      </trkpt>
      <trkpt lat="43.66774" lon="3.83387">
        <ele>87.9</ele>
        <time>2024-04-19T07:09:35.956Z</time>
      </trkpt>
      <trkpt lat="43.66788" lon="3.8337">
        <ele>89.5</ele>
        <time>2024-04-19T07:09:44.860Z</time>
      </trkpt>
      <trkpt lat="43.66794" lon="3.83365">
        <ele>89.7</ele>
        <time>2024-04-19T07:09:47.630Z</time>
      </trkpt>
      <trkpt lat="43.6681" lon="3.83354">
        <ele>89.6</ele>
        <time>2024-04-19T07:09:53.980Z</time>
      </trkpt>
      <trkpt lat="43.66813" lon="3.83348">
        <ele>90</ele>
        <time>2024-04-19T07:09:56.416Z</time>
      </trkpt>
      <trkpt lat="43.66818" lon="3.83327">
        <ele>91.6</ele>
        <time>2024-04-19T07:10:04.442Z</time>
      </trkpt>
      <trkpt lat="43.66819" lon="3.83311">
        <ele>92.7</ele>
        <time>2024-04-19T07:10:10.165Z</time>
      </trkpt>
      <trkpt lat="43.66816" lon="3.83298">
        <ele>93.9</ele>
        <time>2024-04-19T07:10:15.510Z</time>
      </trkpt>
      <trkpt lat="43.66814" lon="3.8329">
        <ele>94.5</ele>
        <time>2024-04-19T07:10:18.561Z</time>
      </trkpt>
      <trkpt lat="43.66813" lon="3.8328">
        <ele>95.1</ele>
        <time>2024-04-19T07:10:22.006Z</time>
      </trkpt>
      <trkpt lat="43.6681" lon="3.83268">
        <ele>95.6</ele>
        <time>2024-04-19T07:10:25.955Z</time>
      </trkpt>
      <trkpt lat="43.66804" lon="3.83263">
        <ele>96.1</ele>
        <time>2024-04-19T07:10:29.142Z</time>
      </trkpt>
      <trkpt lat="43.66795" lon="3.8326">
        <ele>96.8</ele>
        <time>2024-04-19T07:10:33.414Z</time>
      </trkpt>
      <trkpt lat="43.66789" lon="3.8326">
        <ele>97.2</ele>
        <time>2024-04-19T07:10:36.101Z</time>
      </trkpt>
      <trkpt lat="43.66785" lon="3.83254">
        <ele>97.5</ele>
        <time>2024-04-19T07:10:38.609Z</time>
      </trkpt>
      <trkpt lat="43.66781" lon="3.83248">
        <ele>97.9</ele>
        <time>2024-04-19T07:10:41.261Z</time>
      </trkpt>
      <trkpt lat="43.66772" lon="3.83238">
        <ele>99.6</ele>
        <time>2024-04-19T07:10:48.126Z</time>
      </trkpt>
      <trkpt lat="43.66767" lon="3.83235">
        <ele>100.4</ele>
        <time>2024-04-19T07:10:51.361Z</time>
      </trkpt>
      <trkpt lat="43.66756" lon="3.83234">
        <ele>101.8</ele>
        <time>2024-04-19T07:10:57.449Z</time>
      </trkpt>
      <trkpt lat="43.66748" lon="3.83217">
        <ele>103.7</ele>
        <time>2024-04-19T07:11:05.624Z</time>
      </trkpt>
      <trkpt lat="43.66736" lon="3.83175">
        <ele>110</ele>
        <time>2024-04-19T07:11:28.712Z</time>
      </trkpt>
      <trkpt lat="43.66737" lon="3.8316">
        <ele>111.4</ele>
        <time>2024-04-19T07:11:34.761Z</time>
      </trkpt>
      <trkpt lat="43.66734" lon="3.83146">
        <ele>112.5</ele>
        <time>2024-04-19T07:11:40.139Z</time>
      </trkpt>
      <trkpt lat="43.6673" lon="3.83137">
        <ele>113.2</ele>
        <time>2024-04-19T07:11:43.863Z</time>
      </trkpt>
      <trkpt lat="43.66724" lon="3.83136">
        <ele>113.3</ele>
        <time>2024-04-19T07:11:46.163Z</time>
      </trkpt>
      <trkpt lat="43.66712" lon="3.83133">
        <ele>114.3</ele>
        <time>2024-04-19T07:11:51.914Z</time>
      </trkpt>
      <trkpt lat="43.66703" lon="3.83135">
        <ele>114.7</ele>
        <time>2024-04-19T07:11:55.700Z</time>
      </trkpt>
      <trkpt lat="43.66696" lon="3.83135">
        <ele>115.2</ele>
        <time>2024-04-19T07:11:58.885Z</time>
      </trkpt>
      <trkpt lat="43.6669" lon="3.83134">
        <ele>115.5</ele>
        <time>2024-04-19T07:12:01.443Z</time>
      </trkpt>
      <trkpt lat="43.66666" lon="3.83138">
        <ele>116.1</ele>
        <time>2024-04-19T07:12:10.887Z</time>
      </trkpt>
      <trkpt lat="43.66655" lon="3.83142">
        <ele>117</ele>
        <time>2024-04-19T07:12:16.199Z</time>
      </trkpt>
      <trkpt lat="43.66647" lon="3.83141">
        <ele>117.5</ele>
        <time>2024-04-19T07:12:19.743Z</time>
      </trkpt>
      <trkpt lat="43.66642" lon="3.8314">
        <ele>117.8</ele>
        <time>2024-04-19T07:12:21.951Z</time>
      </trkpt>
      <trkpt lat="43.66636" lon="3.83134">
        <ele>117.9</ele>
        <time>2024-04-19T07:12:24.742Z</time>
      </trkpt>
      <trkpt lat="43.66636" lon="3.83112">
        <ele>117.1</ele>
        <time>2024-04-19T07:12:29.776Z</time>
      </trkpt>
      <trkpt lat="43.66642" lon="3.83077">
        <ele>117</ele>
        <time>2024-04-19T07:12:39.072Z</time>
      </trkpt>
      <trkpt lat="43.66647" lon="3.83042">
        <ele>117.1</ele>
        <time>2024-04-19T07:12:48.514Z</time>
      </trkpt>
      <trkpt lat="43.66634" lon="3.82963">
        <ele>116.8</ele>
        <time>2024-04-19T07:13:09.371Z</time>
      </trkpt>
      <trkpt lat="43.66622" lon="3.82931">
        <ele>116.1</ele>
        <time>2024-04-19T07:13:18.061Z</time>
      </trkpt>
      <trkpt lat="43.66614" lon="3.82903">
        <ele>115.2</ele>
        <time>2024-04-19T07:13:25.015Z</time>
      </trkpt>
      <trkpt lat="43.66614" lon="3.82865">
        <ele>115</ele>
        <time>2024-04-19T07:13:34.733Z</time>
      </trkpt>
      <trkpt lat="43.66614" lon="3.82857">
        <ele>115</ele>
        <time>2024-04-19T07:13:36.825Z</time>
      </trkpt>
      <trkpt lat="43.66619" lon="3.82849">
        <ele>115</ele>
        <time>2024-04-19T07:13:39.590Z</time>
      </trkpt>
      <trkpt lat="43.6663" lon="3.82838">
        <ele>115</ele>
        <time>2024-04-19T07:13:44.498Z</time>
      </trkpt>
      <trkpt lat="43.66641" lon="3.82826">
        <ele>114.7</ele>
        <time>2024-04-19T07:13:49.245Z</time>
      </trkpt>
      <trkpt lat="43.66786" lon="3.82697">
        <ele>113.9</ele>
        <time>2024-04-19T07:14:50.699Z</time>
      </trkpt>
      <trkpt lat="43.66831" lon="3.82657">
        <ele>113.4</ele>
        <time>2024-04-19T07:15:09.494Z</time>
      </trkpt>
      <trkpt lat="43.6686" lon="3.82638">
        <ele>111</ele>
        <time>2024-04-19T07:15:19.646Z</time>
      </trkpt>
      <trkpt lat="43.66869" lon="3.82631">
        <ele>110.6</ele>
        <time>2024-04-19T07:15:22.969Z</time>
      </trkpt>
      <trkpt lat="43.66874" lon="3.82623">
        <ele>110.2</ele>
        <time>2024-04-19T07:15:25.388Z</time>
      </trkpt>
      <trkpt lat="43.66889" lon="3.82607">
        <ele>109.3</ele>
        <time>2024-04-19T07:15:31.381Z</time>
      </trkpt>
      <trkpt lat="43.66927" lon="3.82575">
        <ele>109.1</ele>
        <time>2024-04-19T07:15:47.246Z</time>
      </trkpt>
      <trkpt lat="43.67038" lon="3.82464">
        <ele>110.6</ele>
        <time>2024-04-19T07:16:38.480Z</time>
      </trkpt>
      <trkpt lat="43.67048" lon="3.82448">
        <ele>110.7</ele>
        <time>2024-04-19T07:16:44.122Z</time>
      </trkpt>
      <trkpt lat="43.67052" lon="3.8244">
        <ele>110.7</ele>
        <time>2024-04-19T07:16:46.665Z</time>
      </trkpt>
      <trkpt lat="43.67062" lon="3.82426">
        <ele>111.4</ele>
        <time>2024-04-19T07:16:52.680Z</time>
      </trkpt>
      <trkpt lat="43.67069" lon="3.82415">
        <ele>112.2</ele>
        <time>2024-04-19T07:16:57.568Z</time>
      </trkpt>
      <trkpt lat="43.67079" lon="3.82403">
        <ele>113.1</ele>
        <time>2024-04-19T07:17:03.523Z</time>
      </trkpt>
      <trkpt lat="43.67083" lon="3.82393">
        <ele>113.7</ele>
        <time>2024-04-19T07:17:07.299Z</time>
      </trkpt>
      <trkpt lat="43.67085" lon="3.82385">
        <ele>114.4</ele>
        <time>2024-04-19T07:17:10.530Z</time>
      </trkpt>
      <trkpt lat="43.67092" lon="3.82377">
        <ele>115.5</ele>
        <time>2024-04-19T07:17:15.440Z</time>
      </trkpt>
      <trkpt lat="43.67104" lon="3.82361">
        <ele>117.2</ele>
        <time>2024-04-19T07:17:23.863Z</time>
      </trkpt>
      <trkpt lat="43.67119" lon="3.82337">
        <ele>118.3</ele>
        <time>2024-04-19T07:17:33.520Z</time>
      </trkpt>
      <trkpt lat="43.6713" lon="3.82316">
        <ele>119.1</ele>
        <time>2024-04-19T07:17:41.279Z</time>
      </trkpt>
      <trkpt lat="43.67137" lon="3.82304">
        <ele>118.9</ele>
        <time>2024-04-19T07:17:45.095Z</time>
      </trkpt>
      <trkpt lat="43.67159" lon="3.82266">
        <ele>119.8</ele>
        <time>2024-04-19T07:17:58.882Z</time>
      </trkpt>
      <trkpt lat="43.67194" lon="3.82216">
        <ele>122.7</ele>
        <time>2024-04-19T07:18:20.750Z</time>
      </trkpt>
      <trkpt lat="43.67201" lon="3.82202">
        <ele>124.2</ele>
        <time>2024-04-19T07:18:27.423Z</time>
      </trkpt>
      <trkpt lat="43.67211" lon="3.8219">
        <ele>125.4</ele>
        <time>2024-04-19T07:18:33.855Z</time>
      </trkpt>
      <trkpt lat="43.67215" lon="3.8218">
        <ele>126.4</ele>
        <time>2024-04-19T07:18:38.322Z</time>
      </trkpt>
      <trkpt lat="43.67221" lon="3.82171">
        <ele>127.5</ele>
        <time>2024-04-19T07:18:43.162Z</time>
      </trkpt>
      <trkpt lat="43.67233" lon="3.82171">
        <ele>128</ele>
        <time>2024-04-19T07:18:48.111Z</time>
      </trkpt>
      <trkpt lat="43.67242" lon="3.82176">
        <ele>127.9</ele>
        <time>2024-04-19T07:18:51.509Z</time>
      </trkpt>
      <trkpt lat="43.67249" lon="3.82177">
        <ele>128.2</ele>
        <time>2024-04-19T07:18:54.420Z</time>
      </trkpt>
      <trkpt lat="43.67255" lon="3.82174">
        <ele>128.7</ele>
        <time>2024-04-19T07:18:57.392Z</time>
      </trkpt>
      <trkpt lat="43.67259" lon="3.82167">
        <ele>129.3</ele>
        <time>2024-04-19T07:19:00.551Z</time>
      </trkpt>
      <trkpt lat="43.67266" lon="3.82161">
        <ele>129.8</ele>
        <time>2024-04-19T07:19:04.167Z</time>
      </trkpt>
      <trkpt lat="43.67276" lon="3.82155">
        <ele>130.4</ele>
        <time>2024-04-19T07:19:08.863Z</time>
      </trkpt>
      <trkpt lat="43.67285" lon="3.82154">
        <ele>131.1</ele>
        <time>2024-04-19T07:19:13.057Z</time>
      </trkpt>
      <trkpt lat="43.67292" lon="3.82152">
        <ele>131.8</ele>
        <time>2024-04-19T07:19:16.618Z</time>
      </trkpt>
      <trkpt lat="43.67298" lon="3.8215">
        <ele>132.3</ele>
        <time>2024-04-19T07:19:19.519Z</time>
      </trkpt>
      <trkpt lat="43.6731" lon="3.82147">
        <ele>133.5</ele>
        <time>2024-04-19T07:19:25.604Z</time>
      </trkpt>
      <trkpt lat="43.67318" lon="3.82144">
        <ele>134.3</ele>
        <time>2024-04-19T07:19:29.713Z</time>
      </trkpt>
      <trkpt lat="43.67329" lon="3.82142">
        <ele>135.5</ele>
        <time>2024-04-19T07:19:35.442Z</time>
      </trkpt>
      <trkpt lat="43.67335" lon="3.82139">
        <ele>136.2</ele>
        <time>2024-04-19T07:19:38.754Z</time>
      </trkpt>
      <trkpt lat="43.67365" lon="3.82135">
        <ele>139.9</ele>
        <time>2024-04-19T07:19:55.146Z</time>
      </trkpt>
      <trkpt lat="43.6737" lon="3.82134">
        <ele>139.8</ele>
        <time>2024-04-19T07:19:56.866Z</time>
      </trkpt>
      <trkpt lat="43.67386" lon="3.82134">
        <ele>139.8</ele>
        <time>2024-04-19T07:20:02.650Z</time>
      </trkpt>
      <trkpt lat="43.67402" lon="3.82136">
        <ele>139.5</ele>
        <time>2024-04-19T07:20:08.137Z</time>
      </trkpt>
      <trkpt lat="43.67461" lon="3.82129">
        <ele>135.5</ele>
        <time>2024-04-19T07:20:26.868Z</time>
      </trkpt>
      <trkpt lat="43.67475" lon="3.82127">
        <ele>134.3</ele>
        <time>2024-04-19T07:20:31.320Z</time>
      </trkpt>
      <trkpt lat="43.67492" lon="3.82125">
        <ele>132.4</ele>
        <time>2024-04-19T07:20:36.717Z</time>
      </trkpt>
      <trkpt lat="43.67498" lon="3.82124">
        <ele>131.7</ele>
        <time>2024-04-19T07:20:38.629Z</time>
      </trkpt>
      <trkpt lat="43.67544" lon="3.8212">
        <ele>126.1</ele>
        <time>2024-04-19T07:20:53.209Z</time>
      </trkpt>
      <trkpt lat="43.67562" lon="3.8212">
        <ele>123.5</ele>
        <time>2024-04-19T07:20:58.902Z</time>
      </trkpt>
      <trkpt lat="43.67569" lon="3.82129">
        <ele>122.9</ele>
        <time>2024-04-19T07:21:01.926Z</time>
      </trkpt>
      <trkpt lat="43.67568" lon="3.82144">
        <ele>123.9</ele>
        <time>2024-04-19T07:21:07.239Z</time>
      </trkpt>
      <trkpt lat="43.67578" lon="3.82174">
        <ele>125.5</ele>
        <time>2024-04-19T07:21:17.948Z</time>
      </trkpt>
      <trkpt lat="43.67582" lon="3.82177">
        <ele>125.3</ele>
        <time>2024-04-19T07:21:19.390Z</time>
      </trkpt>
      <trkpt lat="43.67587" lon="3.82175">
        <ele>124.9</ele>
        <time>2024-04-19T07:21:21.037Z</time>
      </trkpt>
      <trkpt lat="43.67593" lon="3.8217">
        <ele>124.4</ele>
        <time>2024-04-19T07:21:23.253Z</time>
      </trkpt>
      <trkpt lat="43.67598" lon="3.82168">
        <ele>124.1</ele>
        <time>2024-04-19T07:21:24.899Z</time>
      </trkpt>
      <trkpt lat="43.67631" lon="3.82167">
        <ele>124.8</ele>
        <time>2024-04-19T07:21:37.648Z</time>
      </trkpt>
      <trkpt lat="43.67634" lon="3.82176">
        <ele>125.8</ele>
        <time>2024-04-19T07:21:41.790Z</time>
      </trkpt>
      <trkpt lat="43.67624" lon="3.82179">
        <ele>125.8</ele>
        <time>2024-04-19T07:21:45.489Z</time>
      </trkpt>
      <trkpt lat="43.67608" lon="3.82186">
        <ele>126.1</ele>
        <time>2024-04-19T07:21:51.903Z</time>
      </trkpt>
      <trkpt lat="43.67591" lon="3.82195">
        <ele>127</ele>
        <time>2024-04-19T07:21:59.603Z</time>
      </trkpt>
      <trkpt lat="43.67503" lon="3.82251">
        <ele>127.9</ele>
        <time>2024-04-19T07:22:35.645Z</time>
      </trkpt>
      <trkpt lat="43.67494" lon="3.82258">
        <ele>128.4</ele>
        <time>2024-04-19T07:22:39.998Z</time>
      </trkpt>
      <trkpt lat="43.67481" lon="3.82275">
        <ele>128.8</ele>
        <time>2024-04-19T07:22:46.935Z</time>
      </trkpt>
      <trkpt lat="43.67468" lon="3.82308">
        <ele>129.4</ele>
        <time>2024-04-19T07:22:57.461Z</time>
      </trkpt>
      <trkpt lat="43.67462" lon="3.82346">
        <ele>130.4</ele>
        <time>2024-04-19T07:23:08.835Z</time>
      </trkpt>
      <trkpt lat="43.67446" lon="3.82428">
        <ele>135.2</ele>
        <time>2024-04-19T07:23:37.425Z</time>
      </trkpt>
      <trkpt lat="43.67443" lon="3.82436">
        <ele>136.1</ele>
        <time>2024-04-19T07:23:41.172Z</time>
      </trkpt>
      <trkpt lat="43.67423" lon="3.8245">
        <ele>136.4</ele>
        <time>2024-04-19T07:23:49.620Z</time>
      </trkpt>
      <trkpt lat="43.67414" lon="3.82452">
        <ele>136.2</ele>
        <time>2024-04-19T07:23:52.703Z</time>
      </trkpt>
      <trkpt lat="43.67366" lon="3.82436">
        <ele>134.7</ele>
        <time>2024-04-19T07:24:08.987Z</time>
      </trkpt>
      <trkpt lat="43.67357" lon="3.82429">
        <ele>134.2</ele>
        <time>2024-04-19T07:24:12.254Z</time>
      </trkpt>
      <trkpt lat="43.67337" lon="3.82428">
        <ele>133</ele>
        <time>2024-04-19T07:24:18.584Z</time>
      </trkpt>
      <trkpt lat="43.67327" lon="3.82429">
        <ele>132.9</ele>
        <time>2024-04-19T07:24:22.100Z</time>
      </trkpt>
      <trkpt lat="43.67301" lon="3.82437">
        <ele>133.4</ele>
        <time>2024-04-19T07:24:32.309Z</time>
      </trkpt>
      <trkpt lat="43.67283" lon="3.82438">
        <ele>133.2</ele>
        <time>2024-04-19T07:24:38.604Z</time>
      </trkpt>
      <trkpt lat="43.67278" lon="3.82439">
        <ele>133.2</ele>
        <time>2024-04-19T07:24:40.431Z</time>
      </trkpt>
      <trkpt lat="43.67232" lon="3.82463">
        <ele>133.9</ele>
        <time>2024-04-19T07:24:59.008Z</time>
      </trkpt>
      <trkpt lat="43.67221" lon="3.82463">
        <ele>133.2</ele>
        <time>2024-04-19T07:25:02.488Z</time>
      </trkpt>
      <trkpt lat="43.67216" lon="3.82464">
        <ele>132.7</ele>
        <time>2024-04-19T07:25:04.086Z</time>
      </trkpt>
      <trkpt lat="43.672" lon="3.82475">
        <ele>131.8</ele>
        <time>2024-04-19T07:25:09.738Z</time>
      </trkpt>
      <trkpt lat="43.67191" lon="3.82483">
        <ele>131.3</ele>
        <time>2024-04-19T07:25:13.123Z</time>
      </trkpt>
      <trkpt lat="43.6718" lon="3.82498">
        <ele>131.2</ele>
        <time>2024-04-19T07:25:18.599Z</time>
      </trkpt>
      <trkpt lat="43.67177" lon="3.82503">
        <ele>131.2</ele>
        <time>2024-04-19T07:25:20.297Z</time>
      </trkpt>
      <trkpt lat="43.67162" lon="3.82533">
        <ele>128.8</ele>
        <time>2024-04-19T07:25:28.642Z</time>
      </trkpt>
      <trkpt lat="43.67154" lon="3.82558">
        <ele>127.5</ele>
        <time>2024-04-19T07:25:34.896Z</time>
      </trkpt>
      <trkpt lat="43.67148" lon="3.82587">
        <ele>127.4</ele>
        <time>2024-04-19T07:25:42.673Z</time>
      </trkpt>
      <trkpt lat="43.67147" lon="3.82615">
        <ele>127.9</ele>
        <time>2024-04-19T07:25:50.591Z</time>
      </trkpt>
      <trkpt lat="43.67148" lon="3.82622">
        <ele>127.8</ele>
        <time>2024-04-19T07:25:52.350Z</time>
      </trkpt>
      <trkpt lat="43.67152" lon="3.82642">
        <ele>127.5</ele>
        <time>2024-04-19T07:25:57.456Z</time>
      </trkpt>
      <trkpt lat="43.67167" lon="3.82696">
        <ele>126.9</ele>
        <time>2024-04-19T07:26:11.934Z</time>
      </trkpt>
      <trkpt lat="43.67167" lon="3.82705">
        <ele>126.3</ele>
        <time>2024-04-19T07:26:13.993Z</time>
      </trkpt>
      <trkpt lat="43.67163" lon="3.82724">
        <ele>123.7</ele>
        <time>2024-04-19T07:26:18.521Z</time>
      </trkpt>
      <trkpt lat="43.67161" lon="3.82734">
        <ele>123.1</ele>
        <time>2024-04-19T07:26:20.895Z</time>
      </trkpt>
      <trkpt lat="43.67157" lon="3.82753">
        <ele>122.1</ele>
        <time>2024-04-19T07:26:25.422Z</time>
      </trkpt>
      <trkpt lat="43.67155" lon="3.82792">
        <ele>119.9</ele>
        <time>2024-04-19T07:26:34.368Z</time>
      </trkpt>
      <trkpt lat="43.67156" lon="3.82823">
        <ele>118.7</ele>
        <time>2024-04-19T07:26:41.468Z</time>
      </trkpt>
      <trkpt lat="43.67155" lon="3.82834">
        <ele>117.7</ele>
        <time>2024-04-19T07:26:44.004Z</time>
      </trkpt>
      <trkpt lat="43.67154" lon="3.82844">
        <ele>116</ele>
        <time>2024-04-19T07:26:46.314Z</time>
      </trkpt>
      <trkpt lat="43.6715" lon="3.82864">
        <ele>112.9</ele>
        <time>2024-04-19T07:26:51.062Z</time>
      </trkpt>
      <trkpt lat="43.67145" lon="3.82884">
        <ele>111.3</ele>
        <time>2024-04-19T07:26:55.903Z</time>
      </trkpt>
      <trkpt lat="43.67116" lon="3.82961">
        <ele>100.6</ele>
        <time>2024-04-19T07:27:15.766Z</time>
      </trkpt>
      <trkpt lat="43.67109" lon="3.8299">
        <ele>97.4</ele>
        <time>2024-04-19T07:27:22.761Z</time>
      </trkpt>
      <trkpt lat="43.67099" lon="3.83039">
        <ele>92.4</ele>
        <time>2024-04-19T07:27:34.410Z</time>
      </trkpt>
      <trkpt lat="43.67094" lon="3.83056">
        <ele>90.4</ele>
        <time>2024-04-19T07:27:38.609Z</time>
      </trkpt>
      <trkpt lat="43.67082" lon="3.8308">
        <ele>89.4</ele>
        <time>2024-04-19T07:27:45.284Z</time>
      </trkpt>
      <trkpt lat="43.67078" lon="3.83089">
        <ele>89.5</ele>
        <time>2024-04-19T07:27:48.161Z</time>
      </trkpt>
      <trkpt lat="43.67076" lon="3.83097">
        <ele>89.1</ele>
        <time>2024-04-19T07:27:50.098Z</time>
      </trkpt>
      <trkpt lat="43.67074" lon="3.83105">
        <ele>88.6</ele>
        <time>2024-04-19T07:27:52.034Z</time>
      </trkpt>
      <trkpt lat="43.67073" lon="3.83114">
        <ele>88</ele>
        <time>2024-04-19T07:27:54.118Z</time>
      </trkpt>
      <trkpt lat="43.6707" lon="3.83146">
        <ele>87.7</ele>
        <time>2024-04-19T07:28:02.231Z</time>
      </trkpt>
      <trkpt lat="43.67068" lon="3.8316">
        <ele>88.2</ele>
        <time>2024-04-19T07:28:06.582Z</time>
      </trkpt>
      <trkpt lat="43.67068" lon="3.83172">
        <ele>88.3</ele>
        <time>2024-04-19T07:28:09.834Z</time>
      </trkpt>
      <trkpt lat="43.67075" lon="3.83177">
        <ele>88.7</ele>
        <time>2024-04-19T07:28:13.181Z</time>
      </trkpt>
      <trkpt lat="43.67084" lon="3.83168">
        <ele>89.1</ele>
        <time>2024-04-19T07:28:17.679Z</time>
      </trkpt>
      <trkpt lat="43.67093" lon="3.83161">
        <ele>89.2</ele>
        <time>2024-04-19T07:28:21.526Z</time>
      </trkpt>
      <trkpt lat="43.67099" lon="3.83159">
        <ele>89.4</ele>
        <time>2024-04-19T07:28:23.996Z</time>
      </trkpt>
      <trkpt lat="43.67111" lon="3.83156">
        <ele>89.8</ele>
        <time>2024-04-19T07:28:28.883Z</time>
      </trkpt>
      <trkpt lat="43.67117" lon="3.8314">
        <ele>88.7</ele>
        <time>2024-04-19T07:28:33.006Z</time>
      </trkpt>
      <trkpt lat="43.6712" lon="3.83108">
        <ele>88.5</ele>
        <time>2024-04-19T07:28:41.225Z</time>
      </trkpt>
      <trkpt lat="43.67126" lon="3.83097">
        <ele>89.9</ele>
        <time>2024-04-19T07:28:47.005Z</time>
      </trkpt>
      <trkpt lat="43.67175" lon="3.83108">
        <ele>92.4</ele>
        <time>2024-04-19T07:29:08.065Z</time>
      </trkpt>
      <trkpt lat="43.67179" lon="3.83113">
        <ele>92.4</ele>
        <time>2024-04-19T07:29:10.014Z</time>
      </trkpt>
      <trkpt lat="43.67164" lon="3.83259">
        <ele>95.1</ele>
        <time>2024-04-19T07:29:51.751Z</time>
      </trkpt>
      <trkpt lat="43.6716" lon="3.83281">
        <ele>95</ele>
        <time>2024-04-19T07:29:57.572Z</time>
      </trkpt>
      <trkpt lat="43.6716" lon="3.83292">
        <ele>94.2</ele>
        <time>2024-04-19T07:30:00.089Z</time>
      </trkpt>
      <trkpt lat="43.67163" lon="3.83353">
        <ele>89.9</ele>
        <time>2024-04-19T07:30:14.078Z</time>
      </trkpt>
      <trkpt lat="43.67162" lon="3.8336">
        <ele>89.7</ele>
        <time>2024-04-19T07:30:15.739Z</time>
      </trkpt>
      <trkpt lat="43.67156" lon="3.83367">
        <ele>89</ele>
        <time>2024-04-19T07:30:18.222Z</time>
      </trkpt>
      <trkpt lat="43.67148" lon="3.83372">
        <ele>88.3</ele>
        <time>2024-04-19T07:30:20.999Z</time>
      </trkpt>
      <trkpt lat="43.67074" lon="3.83359">
        <ele>83.9</ele>
        <time>2024-04-19T07:30:44.595Z</time>
      </trkpt>
      <trkpt lat="43.67069" lon="3.83366">
        <ele>82.7</ele>
        <time>2024-04-19T07:30:46.846Z</time>
      </trkpt>
      <trkpt lat="43.67071" lon="3.83397">
        <ele>81.9</ele>
        <time>2024-04-19T07:30:54.158Z</time>
      </trkpt>
      <trkpt lat="43.67071" lon="3.83405">
        <ele>82.2</ele>
        <time>2024-04-19T07:30:56.625Z</time>
      </trkpt>
      <trkpt lat="43.67072" lon="3.83415">
        <ele>82.7</ele>
        <time>2024-04-19T07:30:59.915Z</time>
      </trkpt>
      <trkpt lat="43.67073" lon="3.83433">
        <ele>82.9</ele>
        <time>2024-04-19T07:31:04.866Z</time>
      </trkpt>
      <trkpt lat="43.67069" lon="3.83502">
        <ele>82.5</ele>
        <time>2024-04-19T07:31:22.529Z</time>
      </trkpt>
      <trkpt lat="43.67072" lon="3.83544">
        <ele>82.8</ele>
        <time>2024-04-19T07:31:33.906Z</time>
      </trkpt>
      <trkpt lat="43.67073" lon="3.8356">
        <ele>82.4</ele>
        <time>2024-04-19T07:31:37.691Z</time>
      </trkpt>
      <trkpt lat="43.67075" lon="3.83583">
        <ele>82.1</ele>
        <time>2024-04-19T07:31:43.427Z</time>
      </trkpt>
      <trkpt lat="43.67077" lon="3.83594">
        <ele>82</ele>
        <time>2024-04-19T07:31:46.285Z</time>
      </trkpt>
      <trkpt lat="43.67083" lon="3.83613">
        <ele>82</ele>
        <time>2024-04-19T07:31:51.706Z</time>
      </trkpt>
      <trkpt lat="43.67089" lon="3.83623">
        <ele>82.3</ele>
        <time>2024-04-19T07:31:55.461Z</time>
      </trkpt>
      <trkpt lat="43.67095" lon="3.83636">
        <ele>81.8</ele>
        <time>2024-04-19T07:31:58.990Z</time>
      </trkpt>
      <trkpt lat="43.671" lon="3.83646">
        <ele>81.1</ele>
        <time>2024-04-19T07:32:01.771Z</time>
      </trkpt>
      <trkpt lat="43.67104" lon="3.83652">
        <ele>80.6</ele>
        <time>2024-04-19T07:32:03.638Z</time>
      </trkpt>
      <trkpt lat="43.67117" lon="3.83662">
        <ele>79.3</ele>
        <time>2024-04-19T07:32:08.344Z</time>
      </trkpt>
      <trkpt lat="43.67148" lon="3.83676">
        <ele>78.9</ele>
        <time>2024-04-19T07:32:19.700Z</time>
      </trkpt>
      <trkpt lat="43.67167" lon="3.83689">
        <ele>79</ele>
        <time>2024-04-19T07:32:27.476Z</time>
      </trkpt>
      <trkpt lat="43.67193" lon="3.83716">
        <ele>76.5</ele>
        <time>2024-04-19T07:32:37.762Z</time>
      </trkpt>
      <trkpt lat="43.67198" lon="3.83719">
        <ele>76.4</ele>
        <time>2024-04-19T07:32:39.626Z</time>
      </trkpt>
      <trkpt lat="43.67234" lon="3.8374">
        <ele>77.1</ele>
        <time>2024-04-19T07:32:54.561Z</time>
      </trkpt>
      <trkpt lat="43.67249" lon="3.83745">
        <ele>77.9</ele>
        <time>2024-04-19T07:33:01.139Z</time>
      </trkpt>
      <trkpt lat="43.67262" lon="3.83739">
        <ele>79.4</ele>
        <time>2024-04-19T07:33:08.248Z</time>
      </trkpt>
      <trkpt lat="43.67306" lon="3.83711">
        <ele>82</ele>
        <time>2024-04-19T07:33:29.022Z</time>
      </trkpt>
      <trkpt lat="43.67323" lon="3.83704">
        <ele>82.8</ele>
        <time>2024-04-19T07:33:36.419Z</time>
      </trkpt>
      <trkpt lat="43.67329" lon="3.83702">
        <ele>83.1</ele>
        <time>2024-04-19T07:33:39.022Z</time>
      </trkpt>
      <trkpt lat="43.6734" lon="3.83697">
        <ele>83.6</ele>
        <time>2024-04-19T07:33:43.821Z</time>
      </trkpt>
      <trkpt lat="43.6735" lon="3.83688">
        <ele>83.9</ele>
        <time>2024-04-19T07:33:48.487Z</time>
      </trkpt>
      <trkpt lat="43.67358" lon="3.83677">
        <ele>83.7</ele>
        <time>2024-04-19T07:33:52.352Z</time>
      </trkpt>
      <trkpt lat="43.67361" lon="3.83688">
        <ele>84.5</ele>
        <time>2024-04-19T07:33:56.531Z</time>
      </trkpt>
      <trkpt lat="43.67367" lon="3.83699">
        <ele>85.5</ele>
        <time>2024-04-19T07:34:01.538Z</time>
      </trkpt>
      <trkpt lat="43.6737" lon="3.83708">
        <ele>85.8</ele>
        <time>2024-04-19T07:34:04.495Z</time>
      </trkpt>
      <trkpt lat="43.67378" lon="3.83724">
        <ele>86</ele>
        <time>2024-04-19T07:34:09.811Z</time>
      </trkpt>
      <trkpt lat="43.6739" lon="3.83729">
        <ele>86</ele>
        <time>2024-04-19T07:34:14.342Z</time>
      </trkpt>
      <trkpt lat="43.67421" lon="3.83735">
        <ele>85.3</ele>
        <time>2024-04-19T07:34:24.915Z</time>
      </trkpt>
      <trkpt lat="43.67478" lon="3.83749">
        <ele>81.7</ele>
        <time>2024-04-19T07:34:43.228Z</time>
      </trkpt>
      <trkpt lat="43.67485" lon="3.83758">
        <ele>81.8</ele>
        <time>2024-04-19T07:34:46.797Z</time>
      </trkpt>
      <trkpt lat="43.67498" lon="3.83793">
        <ele>79.8</ele>
        <time>2024-04-19T07:34:55.799Z</time>
      </trkpt>
      <trkpt lat="43.67511" lon="3.83822">
        <ele>77.9</ele>
        <time>2024-04-19T07:35:03.605Z</time>
      </trkpt>
      <trkpt lat="43.67514" lon="3.83827">
        <ele>77.4</ele>
        <time>2024-04-19T07:35:05.091Z</time>
      </trkpt>
      <trkpt lat="43.67519" lon="3.83831">
        <ele>76.8</ele>
        <time>2024-04-19T07:35:06.918Z</time>
      </trkpt>
      <trkpt lat="43.67533" lon="3.83837">
        <ele>76</ele>
        <time>2024-04-19T07:35:11.555Z</time>
      </trkpt>
      <trkpt lat="43.67549" lon="3.83838">
        <ele>76</ele>
        <time>2024-04-19T07:35:17.345Z</time>
      </trkpt>
      <trkpt lat="43.67584" lon="3.83833">
        <ele>76.1</ele>
        <time>2024-04-19T07:35:30.177Z</time>
      </trkpt>
      <trkpt lat="43.67591" lon="3.83834">
        <ele>76.3</ele>
        <time>2024-04-19T07:35:32.958Z</time>
      </trkpt>
      <trkpt lat="43.6761" lon="3.83832">
        <ele>77.1</ele>
        <time>2024-04-19T07:35:40.824Z</time>
      </trkpt>
      <trkpt lat="43.67637" lon="3.83833">
        <ele>77</ele>
        <time>2024-04-19T07:35:50.478Z</time>
      </trkpt>
      <trkpt lat="43.6765" lon="3.83832">
        <ele>77.6</ele>
        <time>2024-04-19T07:35:55.925Z</time>
      </trkpt>
      <trkpt lat="43.67688" lon="3.83832">
        <ele>79.6</ele>
        <time>2024-04-19T07:36:12.166Z</time>
      </trkpt>
      <trkpt lat="43.67693" lon="3.83828">
        <ele>80.1</ele>
        <time>2024-04-19T07:36:14.933Z</time>
      </trkpt>
      <trkpt lat="43.67697" lon="3.83822">
        <ele>80.5</ele>
        <time>2024-04-19T07:36:17.586Z</time>
      </trkpt>
      <trkpt lat="43.67707" lon="3.83804">
        <ele>81.5</ele>
        <time>2024-04-19T07:36:24.797Z</time>
      </trkpt>
      <trkpt lat="43.67712" lon="3.83791">
        <ele>82.2</ele>
        <time>2024-04-19T07:36:29.550Z</time>
      </trkpt>
      <trkpt lat="43.67715" lon="3.83784">
        <ele>82.5</ele>
        <time>2024-04-19T07:36:32.052Z</time>
      </trkpt>
      <trkpt lat="43.67725" lon="3.83759">
        <ele>82.8</ele>
        <time>2024-04-19T07:36:39.866Z</time>
      </trkpt>
      <trkpt lat="43.67729" lon="3.83765">
        <ele>83.5</ele>
        <time>2024-04-19T07:36:43.029Z</time>
      </trkpt>
      <trkpt lat="43.67731" lon="3.83784">
        <ele>83.7</ele>
        <time>2024-04-19T07:36:48.278Z</time>
      </trkpt>
      <trkpt lat="43.67737" lon="3.83799">
        <ele>83.4</ele>
        <time>2024-04-19T07:36:52.443Z</time>
      </trkpt>
      <trkpt lat="43.67751" lon="3.83811">
        <ele>83.4</ele>
        <time>2024-04-19T07:36:58.398Z</time>
      </trkpt>
      <trkpt lat="43.67774" lon="3.83817">
        <ele>82.6</ele>
        <time>2024-04-19T07:37:06.031Z</time>
      </trkpt>
      <trkpt lat="43.67792" lon="3.83815">
        <ele>81.6</ele>
        <time>2024-04-19T07:37:11.743Z</time>
      </trkpt>
      <trkpt lat="43.67798" lon="3.83816">
        <ele>81.2</ele>
        <time>2024-04-19T07:37:13.655Z</time>
      </trkpt>
      <trkpt lat="43.67819" lon="3.83818">
        <ele>80.1</ele>
        <time>2024-04-19T07:37:20.313Z</time>
      </trkpt>
      <trkpt lat="43.67826" lon="3.83813">
        <ele>80</ele>
        <time>2024-04-19T07:37:23.053Z</time>
      </trkpt>
      <trkpt lat="43.67839" lon="3.838">
        <ele>80</ele>
        <time>2024-04-19T07:37:28.853Z</time>
      </trkpt>
      <trkpt lat="43.67917" lon="3.83748">
        <ele>79.2</ele>
        <time>2024-04-19T07:37:59.285Z</time>
      </trkpt>
      <trkpt lat="43.67961" lon="3.83705">
        <ele>81.5</ele>
        <time>2024-04-19T07:38:21.577Z</time>
      </trkpt>
      <trkpt lat="43.67969" lon="3.837">
        <ele>81.2</ele>
        <time>2024-04-19T07:38:24.441Z</time>
      </trkpt>
      <trkpt lat="43.67994" lon="3.83661">
        <ele>80.9</ele>
        <time>2024-04-19T07:38:37.738Z</time>
      </trkpt>
      <trkpt lat="43.68021" lon="3.8363">
        <ele>81</ele>
        <time>2024-04-19T07:38:50.537Z</time>
      </trkpt>
      <trkpt lat="43.68107" lon="3.83535">
        <ele>81.8</ele>
        <time>2024-04-19T07:39:31.234Z</time>
      </trkpt>
      <trkpt lat="43.68138" lon="3.83478">
        <ele>83.7</ele>
        <time>2024-04-19T07:39:52.174Z</time>
      </trkpt>
      <trkpt lat="43.68158" lon="3.83455">
        <ele>83.4</ele>
        <time>2024-04-19T07:40:01.252Z</time>
      </trkpt>
      <trkpt lat="43.6821" lon="3.8337">
        <ele>84.5</ele>
        <time>2024-04-19T07:40:31.620Z</time>
      </trkpt>
      <trkpt lat="43.68258" lon="3.8332">
        <ele>84.5</ele>
        <time>2024-04-19T07:40:53.346Z</time>
      </trkpt>
      <trkpt lat="43.68261" lon="3.83313">
        <ele>84.8</ele>
        <time>2024-04-19T07:40:55.847Z</time>
      </trkpt>
      <trkpt lat="43.68266" lon="3.83307">
        <ele>84.8</ele>
        <time>2024-04-19T07:40:58.240Z</time>
      </trkpt>
      <trkpt lat="43.68283" lon="3.83338">
        <ele>82.8</ele>
        <time>2024-04-19T07:41:07.140Z</time>
      </trkpt>
      <trkpt lat="43.68294" lon="3.83344">
        <ele>82.6</ele>
        <time>2024-04-19T07:41:11.200Z</time>
      </trkpt>
      <trkpt lat="43.68302" lon="3.83351">
        <ele>82.7</ele>
        <time>2024-04-19T07:41:14.737Z</time>
      </trkpt>
      <trkpt lat="43.68332" lon="3.83349">
        <ele>86.9</ele>
        <time>2024-04-19T07:41:32.114Z</time>
      </trkpt>
      <trkpt lat="43.68338" lon="3.83337">
        <ele>86.3</ele>
        <time>2024-04-19T07:41:35.452Z</time>
      </trkpt>
      <trkpt lat="43.6834" lon="3.8333">
        <ele>86.1</ele>
        <time>2024-04-19T07:41:37.213Z</time>
      </trkpt>
      <trkpt lat="43.68349" lon="3.83316">
        <ele>86.7</ele>
        <time>2024-04-19T07:41:42.847Z</time>
      </trkpt>
      <trkpt lat="43.68351" lon="3.83309">
        <ele>87.1</ele>
        <time>2024-04-19T07:41:45.341Z</time>
      </trkpt>
      <trkpt lat="43.68358" lon="3.83298">
        <ele>88.4</ele>
        <time>2024-04-19T07:41:51.102Z</time>
      </trkpt>
      <trkpt lat="43.6837" lon="3.8327">
        <ele>88.7</ele>
        <time>2024-04-19T07:41:59.955Z</time>
      </trkpt>
      <trkpt lat="43.68373" lon="3.83245">
        <ele>88.2</ele>
        <time>2024-04-19T07:42:06.055Z</time>
      </trkpt>
      <trkpt lat="43.68378" lon="3.83235">
        <ele>88.7</ele>
        <time>2024-04-19T07:42:09.865Z</time>
      </trkpt>
      <trkpt lat="43.68395" lon="3.8323">
        <ele>90.7</ele>
        <time>2024-04-19T07:42:19.062Z</time>
      </trkpt>
      <trkpt lat="43.68402" lon="3.83226">
        <ele>90.9</ele>
        <time>2024-04-19T07:42:22.036Z</time>
      </trkpt>
      <trkpt lat="43.68405" lon="3.83219">
        <ele>91.1</ele>
        <time>2024-04-19T07:42:24.403Z</time>
      </trkpt>
      <trkpt lat="43.68407" lon="3.8321">
        <ele>91.3</ele>
        <time>2024-04-19T07:42:27.102Z</time>
      </trkpt>
      <trkpt lat="43.68411" lon="3.83197">
        <ele>91.7</ele>
        <time>2024-04-19T07:42:31.281Z</time>
      </trkpt>
      <trkpt lat="43.6841" lon="3.83182">
        <ele>92.1</ele>
        <time>2024-04-19T07:42:35.702Z</time>
      </trkpt>
      <trkpt lat="43.68411" lon="3.83174">
        <ele>92.4</ele>
        <time>2024-04-19T07:42:38.198Z</time>
      </trkpt>
      <trkpt lat="43.68415" lon="3.83166">
        <ele>92.9</ele>
        <time>2024-04-19T07:42:41.395Z</time>
      </trkpt>
      <trkpt lat="43.68425" lon="3.83149">
        <ele>93.1</ele>
        <time>2024-04-19T07:42:47.353Z</time>
      </trkpt>
      <trkpt lat="43.68424" lon="3.83138">
        <ele>93</ele>
        <time>2024-04-19T07:42:50.143Z</time>
      </trkpt>
      <trkpt lat="43.68425" lon="3.83117">
        <ele>93.2</ele>
        <time>2024-04-19T07:42:55.874Z</time>
      </trkpt>
      <trkpt lat="43.68423" lon="3.83098">
        <ele>93</ele>
        <time>2024-04-19T07:43:00.677Z</time>
      </trkpt>
      <trkpt lat="43.68424" lon="3.83091">
        <ele>92.9</ele>
        <time>2024-04-19T07:43:02.436Z</time>
      </trkpt>
      <trkpt lat="43.68421" lon="3.83069">
        <ele>92.4</ele>
        <time>2024-04-19T07:43:07.767Z</time>
      </trkpt>
      <trkpt lat="43.68419" lon="3.83058">
        <ele>92.1</ele>
        <time>2024-04-19T07:43:10.424Z</time>
      </trkpt>
      <trkpt lat="43.68416" lon="3.83049">
        <ele>91.7</ele>
        <time>2024-04-19T07:43:12.690Z</time>
      </trkpt>
      <trkpt lat="43.68413" lon="3.83038">
        <ele>91.1</ele>
        <time>2024-04-19T07:43:15.380Z</time>
      </trkpt>
      <trkpt lat="43.68412" lon="3.83028">
        <ele>90.8</ele>
        <time>2024-04-19T07:43:17.713Z</time>
      </trkpt>
      <trkpt lat="43.68409" lon="3.83009">
        <ele>90.5</ele>
        <time>2024-04-19T07:43:22.478Z</time>
      </trkpt>
      <trkpt lat="43.68416" lon="3.82993">
        <ele>90.4</ele>
        <time>2024-04-19T07:43:27.257Z</time>
      </trkpt>
      <trkpt lat="43.6842" lon="3.82987">
        <ele>90.2</ele>
        <time>2024-04-19T07:43:29.183Z</time>
      </trkpt>
      <trkpt lat="43.68445" lon="3.82947">
        <ele>90.2</ele>
        <time>2024-04-19T07:43:43.005Z</time>
      </trkpt>
      <trkpt lat="43.6846" lon="3.82938">
        <ele>91.2</ele>
        <time>2024-04-19T07:43:50.193Z</time>
      </trkpt>
      <trkpt lat="43.6847" lon="3.82933">
        <ele>91.6</ele>
        <time>2024-04-19T07:43:54.521Z</time>
      </trkpt>
      <trkpt lat="43.68483" lon="3.82929">
        <ele>92.5</ele>
        <time>2024-04-19T07:44:00.503Z</time>
      </trkpt>
      <trkpt lat="43.68494" lon="3.82923">
        <ele>92.6</ele>
        <time>2024-04-19T07:44:04.891Z</time>
      </trkpt>
      <trkpt lat="43.68518" lon="3.82913">
        <ele>93.2</ele>
        <time>2024-04-19T07:44:14.656Z</time>
      </trkpt>
      <trkpt lat="43.68533" lon="3.82903">
        <ele>93.8</ele>
        <time>2024-04-19T07:44:21.399Z</time>
      </trkpt>
      <trkpt lat="43.68561" lon="3.82876">
        <ele>93.8</ele>
        <time>2024-04-19T07:44:33.740Z</time>
      </trkpt>
      <trkpt lat="43.6857" lon="3.82856">
        <ele>93.3</ele>
        <time>2024-04-19T07:44:39.375Z</time>
      </trkpt>
      <trkpt lat="43.68577" lon="3.82854">
        <ele>93.5</ele>
        <time>2024-04-19T07:44:42.196Z</time>
      </trkpt>
      <trkpt lat="43.68585" lon="3.82846">
        <ele>93.6</ele>
        <time>2024-04-19T07:44:45.878Z</time>
      </trkpt>
      <trkpt lat="43.68592" lon="3.82791">
        <ele>93.3</ele>
        <time>2024-04-19T07:45:00.149Z</time>
      </trkpt>
      <trkpt lat="43.68593" lon="3.82759">
        <ele>94.2</ele>
        <time>2024-04-19T07:45:09.614Z</time>
      </trkpt>
      <trkpt lat="43.68589" lon="3.82748">
        <ele>94.8</ele>
        <time>2024-04-19T07:45:13.611Z</time>
      </trkpt>
      <trkpt lat="43.68579" lon="3.82737">
        <ele>94.8</ele>
        <time>2024-04-19T07:45:18.230Z</time>
      </trkpt>
      <trkpt lat="43.68576" lon="3.8273">
        <ele>94.7</ele>
        <time>2024-04-19T07:45:20.250Z</time>
      </trkpt>
      <trkpt lat="43.68574" lon="3.82722">
        <ele>94.7</ele>
        <time>2024-04-19T07:45:22.463Z</time>
      </trkpt>
      <trkpt lat="43.68574" lon="3.82711">
        <ele>94.4</ele>
        <time>2024-04-19T07:45:25.030Z</time>
      </trkpt>
      <trkpt lat="43.6857" lon="3.82703">
        <ele>93.9</ele>
        <time>2024-04-19T07:45:27.255Z</time>
      </trkpt>
      <trkpt lat="43.6857" lon="3.82692">
        <ele>93.5</ele>
        <time>2024-04-19T07:45:29.771Z</time>
      </trkpt>
      <trkpt lat="43.6858" lon="3.8268">
        <ele>93.7</ele>
        <time>2024-04-19T07:45:34.787Z</time>
      </trkpt>
      <trkpt lat="43.686" lon="3.82668">
        <ele>94.3</ele>
        <time>2024-04-19T07:45:43.378Z</time>
      </trkpt>
      <trkpt lat="43.68621" lon="3.82646">
        <ele>94.4</ele>
        <time>2024-04-19T07:45:53.015Z</time>
      </trkpt>
      <trkpt lat="43.68641" lon="3.82634">
        <ele>95.8</ele>
        <time>2024-04-19T07:46:02.697Z</time>
      </trkpt>
      <trkpt lat="43.68656" lon="3.82631">
        <ele>96.4</ele>
        <time>2024-04-19T07:46:08.905Z</time>
      </trkpt>
      <trkpt lat="43.68662" lon="3.8262">
        <ele>96.6</ele>
        <time>2024-04-19T07:46:12.740Z</time>
      </trkpt>
      <trkpt lat="43.68683" lon="3.82597">
        <ele>97</ele>
        <time>2024-04-19T07:46:22.884Z</time>
      </trkpt>
      <trkpt lat="43.68703" lon="3.82576">
        <ele>97.8</ele>
        <time>2024-04-19T07:46:32.917Z</time>
      </trkpt>
      <trkpt lat="43.68718" lon="3.82553">
        <ele>98.2</ele>
        <time>2024-04-19T07:46:41.477Z</time>
      </trkpt>
      <trkpt lat="43.68729" lon="3.8254">
        <ele>98.3</ele>
        <time>2024-04-19T07:46:46.821Z</time>
      </trkpt>
      <trkpt lat="43.68745" lon="3.82526">
        <ele>98.5</ele>
        <time>2024-04-19T07:46:53.893Z</time>
      </trkpt>
      <trkpt lat="43.68758" lon="3.8251">
        <ele>98.3</ele>
        <time>2024-04-19T07:46:59.967Z</time>
      </trkpt>
      <trkpt lat="43.68763" lon="3.82503">
        <ele>98.2</ele>
        <time>2024-04-19T07:47:02.432Z</time>
      </trkpt>
      <trkpt lat="43.68769" lon="3.82491">
        <ele>98.3</ele>
        <time>2024-04-19T07:47:06.359Z</time>
      </trkpt>
      <trkpt lat="43.68774" lon="3.8247">
        <ele>98.4</ele>
        <time>2024-04-19T07:47:12.251Z</time>
      </trkpt>
      <trkpt lat="43.68786" lon="3.82457">
        <ele>97.4</ele>
        <time>2024-04-19T07:47:17.073Z</time>
      </trkpt>
      <trkpt lat="43.68791" lon="3.82459">
        <ele>97.5</ele>
        <time>2024-04-19T07:47:19.071Z</time>
      </trkpt>
      <trkpt lat="43.68801" lon="3.82468">
        <ele>98</ele>
        <time>2024-04-19T07:47:23.995Z</time>
      </trkpt>
      <trkpt lat="43.68812" lon="3.82456">
        <ele>97.9</ele>
        <time>2024-04-19T07:47:28.951Z</time>
      </trkpt>
      <trkpt lat="43.6885" lon="3.82441">
        <ele>98.1</ele>
        <time>2024-04-19T07:47:43.462Z</time>
      </trkpt>
      <trkpt lat="43.68896" lon="3.82444">
        <ele>99.3</ele>
        <time>2024-04-19T07:48:01.524Z</time>
      </trkpt>
      <trkpt lat="43.68919" lon="3.82458">
        <ele>101.2</ele>
        <time>2024-04-19T07:48:13.120Z</time>
      </trkpt>
      <trkpt lat="43.68939" lon="3.8246">
        <ele>103.2</ele>
        <time>2024-04-19T07:48:23.173Z</time>
      </trkpt>
      <trkpt lat="43.68962" lon="3.82466">
        <ele>106.4</ele>
        <time>2024-04-19T07:48:36.561Z</time>
      </trkpt>
      <trkpt lat="43.68997" lon="3.82482">
        <ele>111.7</ele>
        <time>2024-04-19T07:48:58.200Z</time>
      </trkpt>
      <trkpt lat="43.69002" lon="3.82487">
        <ele>111.9</ele>
        <time>2024-04-19T07:49:00.669Z</time>
      </trkpt>
      <trkpt lat="43.69055" lon="3.82517">
        <ele>112</ele>
        <time>2024-04-19T07:49:21.484Z</time>
      </trkpt>
      <trkpt lat="43.6906" lon="3.82519">
        <ele>111.7</ele>
        <time>2024-04-19T07:49:23.130Z</time>
      </trkpt>
      <trkpt lat="43.69069" lon="3.82527">
        <ele>111.9</ele>
        <time>2024-04-19T07:49:27.230Z</time>
      </trkpt>
      <trkpt lat="43.69077" lon="3.82532">
        <ele>111.6</ele>
        <time>2024-04-19T07:49:30.093Z</time>
      </trkpt>
      <trkpt lat="43.69087" lon="3.82541">
        <ele>110.3</ele>
        <time>2024-04-19T07:49:33.867Z</time>
      </trkpt>
      <trkpt lat="43.69104" lon="3.8255">
        <ele>109</ele>
        <time>2024-04-19T07:49:39.625Z</time>
      </trkpt>
      <trkpt lat="43.69115" lon="3.82555">
        <ele>109.3</ele>
        <time>2024-04-19T07:49:44.164Z</time>
      </trkpt>
      <trkpt lat="43.69129" lon="3.82563">
        <ele>110.7</ele>
        <time>2024-04-19T07:49:51.568Z</time>
      </trkpt>
      <trkpt lat="43.69143" lon="3.82574">
        <ele>111.5</ele>
        <time>2024-04-19T07:49:58.384Z</time>
      </trkpt>
      <trkpt lat="43.6916" lon="3.82581">
        <ele>111.7</ele>
        <time>2024-04-19T07:50:05.024Z</time>
      </trkpt>
      <trkpt lat="43.69173" lon="3.82582">
        <ele>111.5</ele>
        <time>2024-04-19T07:50:09.516Z</time>
      </trkpt>
      <trkpt lat="43.69186" lon="3.8259">
        <ele>110.8</ele>
        <time>2024-04-19T07:50:14.017Z</time>
      </trkpt>
      <trkpt lat="43.69198" lon="3.826">
        <ele>109.5</ele>
        <time>2024-04-19T07:50:18.448Z</time>
      </trkpt>
      <trkpt lat="43.69207" lon="3.82605">
        <ele>108.7</ele>
        <time>2024-04-19T07:50:21.516Z</time>
      </trkpt>
      <trkpt lat="43.69233" lon="3.82624">
        <ele>106.5</ele>
        <time>2024-04-19T07:50:30.818Z</time>
      </trkpt>
      <trkpt lat="43.69248" lon="3.82632">
        <ele>104.9</ele>
        <time>2024-04-19T07:50:35.904Z</time>
      </trkpt>
      <trkpt lat="43.69275" lon="3.82634">
        <ele>103.8</ele>
        <time>2024-04-19T07:50:44.555Z</time>
      </trkpt>
      <trkpt lat="43.69281" lon="3.82635">
        <ele>103.7</ele>
        <time>2024-04-19T07:50:46.632Z</time>
      </trkpt>
      <trkpt lat="43.69287" lon="3.82638">
        <ele>103.5</ele>
        <time>2024-04-19T07:50:48.730Z</time>
      </trkpt>
      <trkpt lat="43.69292" lon="3.82642">
        <ele>103.4</ele>
        <time>2024-04-19T07:50:50.711Z</time>
      </trkpt>
      <trkpt lat="43.69294" lon="3.82652">
        <ele>103.1</ele>
        <time>2024-04-19T07:50:53.116Z</time>
      </trkpt>
      <trkpt lat="43.69301" lon="3.82657">
        <ele>103.2</ele>
        <time>2024-04-19T07:50:56.079Z</time>
      </trkpt>
      <trkpt lat="43.69314" lon="3.82662">
        <ele>103.3</ele>
        <time>2024-04-19T07:51:01.070Z</time>
      </trkpt>
      <trkpt lat="43.69339" lon="3.82662">
        <ele>103.6</ele>
        <time>2024-04-19T07:51:10.450Z</time>
      </trkpt>
      <trkpt lat="43.69424" lon="3.8269">
        <ele>103.4</ele>
        <time>2024-04-19T07:51:41.817Z</time>
      </trkpt>
      <trkpt lat="43.69433" lon="3.82693">
        <ele>103.6</ele>
        <time>2024-04-19T07:51:45.397Z</time>
      </trkpt>
      <trkpt lat="43.69453" lon="3.82695">
        <ele>104.3</ele>
        <time>2024-04-19T07:51:53.488Z</time>
      </trkpt>
      <trkpt lat="43.69461" lon="3.82698">
        <ele>104.7</ele>
        <time>2024-04-19T07:51:56.980Z</time>
      </trkpt>
      <trkpt lat="43.69454" lon="3.82705">
        <ele>104.5</ele>
        <time>2024-04-19T07:51:59.891Z</time>
      </trkpt>
      <trkpt lat="43.69434" lon="3.8271">
        <ele>103.6</ele>
        <time>2024-04-19T07:52:06.325Z</time>
      </trkpt>
      <trkpt lat="43.69426" lon="3.82714">
        <ele>103.3</ele>
        <time>2024-04-19T07:52:09.091Z</time>
      </trkpt>
      <trkpt lat="43.69403" lon="3.82732">
        <ele>102.5</ele>
        <time>2024-04-19T07:52:17.809Z</time>
      </trkpt>
      <trkpt lat="43.69394" lon="3.82737">
        <ele>102.2</ele>
        <time>2024-04-19T07:52:21.003Z</time>
      </trkpt>
      <trkpt lat="43.69286" lon="3.82767">
        <ele>100.2</ele>
        <time>2024-04-19T07:52:58.685Z</time>
      </trkpt>
      <trkpt lat="43.69287" lon="3.82776">
        <ele>100.3</ele>
        <time>2024-04-19T07:53:01.180Z</time>
      </trkpt>
      <trkpt lat="43.69317" lon="3.82816">
        <ele>105.1</ele>
        <time>2024-04-19T07:53:23.239Z</time>
      </trkpt>
      <trkpt lat="43.69331" lon="3.82813">
        <ele>105.9</ele>
        <time>2024-04-19T07:53:29.371Z</time>
      </trkpt>
      <trkpt lat="43.69342" lon="3.82818">
        <ele>106.7</ele>
        <time>2024-04-19T07:53:34.598Z</time>
      </trkpt>
      <trkpt lat="43.6935" lon="3.82815">
        <ele>106.2</ele>
        <time>2024-04-19T07:53:37.220Z</time>
      </trkpt>
      <trkpt lat="43.69358" lon="3.82819">
        <ele>106.5</ele>
        <time>2024-04-19T07:53:40.656Z</time>
      </trkpt>
      <trkpt lat="43.69367" lon="3.82819">
        <ele>106.5</ele>
        <time>2024-04-19T07:53:43.910Z</time>
      </trkpt>
      <trkpt lat="43.69375" lon="3.82817">
        <ele>106.2</ele>
        <time>2024-04-19T07:53:46.540Z</time>
      </trkpt>
      <trkpt lat="43.69387" lon="3.8281">
        <ele>105.5</ele>
        <time>2024-04-19T07:53:50.659Z</time>
      </trkpt>
      <trkpt lat="43.69398" lon="3.82799">
        <ele>104.9</ele>
        <time>2024-04-19T07:53:54.958Z</time>
      </trkpt>
      <trkpt lat="43.69413" lon="3.82781">
        <ele>104.1</ele>
        <time>2024-04-19T07:54:01.319Z</time>
      </trkpt>
      <trkpt lat="43.69416" lon="3.82775">
        <ele>103.9</ele>
        <time>2024-04-19T07:54:03.020Z</time>
      </trkpt>
      <trkpt lat="43.69425" lon="3.82764">
        <ele>104.1</ele>
        <time>2024-04-19T07:54:07.593Z</time>
      </trkpt>
      <trkpt lat="43.69463" lon="3.82746">
        <ele>106.8</ele>
        <time>2024-04-19T07:54:25.612Z</time>
      </trkpt>
      <trkpt lat="43.69471" lon="3.82748">
        <ele>107.7</ele>
        <time>2024-04-19T07:54:29.848Z</time>
      </trkpt>
      <trkpt lat="43.69478" lon="3.8274">
        <ele>107.6</ele>
        <time>2024-04-19T07:54:33.022Z</time>
      </trkpt>
      <trkpt lat="43.69485" lon="3.82734">
        <ele>107.6</ele>
        <time>2024-04-19T07:54:35.999Z</time>
      </trkpt>
      <trkpt lat="43.69518" lon="3.82715">
        <ele>108.3</ele>
        <time>2024-04-19T07:54:49.735Z</time>
      </trkpt>
      <trkpt lat="43.69527" lon="3.82711">
        <ele>108.6</ele>
        <time>2024-04-19T07:54:53.510Z</time>
      </trkpt>
      <trkpt lat="43.69542" lon="3.82709">
        <ele>108.5</ele>
        <time>2024-04-19T07:54:58.848Z</time>
      </trkpt>
      <trkpt lat="43.69555" lon="3.82704">
        <ele>108.3</ele>
        <time>2024-04-19T07:55:03.511Z</time>
      </trkpt>
      <trkpt lat="43.69564" lon="3.82703">
        <ele>107.9</ele>
        <time>2024-04-19T07:55:06.369Z</time>
      </trkpt>
      <trkpt lat="43.6957" lon="3.82698">
        <ele>107.5</ele>
        <time>2024-04-19T07:55:08.585Z</time>
      </trkpt>
      <trkpt lat="43.69584" lon="3.82693">
        <ele>107</ele>
        <time>2024-04-19T07:55:13.295Z</time>
      </trkpt>
      <trkpt lat="43.69594" lon="3.82699">
        <ele>106.6</ele>
        <time>2024-04-19T07:55:16.823Z</time>
      </trkpt>
      <trkpt lat="43.69599" lon="3.82708">
        <ele>106.2</ele>
        <time>2024-04-19T07:55:19.419Z</time>
      </trkpt>
      <trkpt lat="43.69601" lon="3.82719">
        <ele>105.8</ele>
        <time>2024-04-19T07:55:22.013Z</time>
      </trkpt>
      <trkpt lat="43.69604" lon="3.8273">
        <ele>104.9</ele>
        <time>2024-04-19T07:55:24.702Z</time>
      </trkpt>
      <trkpt lat="43.6961" lon="3.82742">
        <ele>103.6</ele>
        <time>2024-04-19T07:55:28.039Z</time>
      </trkpt>
      <trkpt lat="43.69615" lon="3.82746">
        <ele>103.6</ele>
        <time>2024-04-19T07:55:30.127Z</time>
      </trkpt>
      <trkpt lat="43.69625" lon="3.82746">
        <ele>104.3</ele>
        <time>2024-04-19T07:55:34.655Z</time>
      </trkpt>
      <trkpt lat="43.69633" lon="3.82755">
        <ele>104.5</ele>
        <time>2024-04-19T07:55:38.615Z</time>
      </trkpt>
      <trkpt lat="43.69644" lon="3.82775">
        <ele>105.7</ele>
        <time>2024-04-19T07:55:46.734Z</time>
      </trkpt>
      <trkpt lat="43.6965" lon="3.82785">
        <ele>106.5</ele>
        <time>2024-04-19T07:55:51.212Z</time>
      </trkpt>
      <trkpt lat="43.69656" lon="3.82791">
        <ele>107.2</ele>
        <time>2024-04-19T07:55:54.858Z</time>
      </trkpt>
      <trkpt lat="43.69665" lon="3.82797">
        <ele>108.1</ele>
        <time>2024-04-19T07:55:59.702Z</time>
      </trkpt>
      <trkpt lat="43.6968" lon="3.82799">
        <ele>108.3</ele>
        <time>2024-04-19T07:56:05.379Z</time>
      </trkpt>
      <trkpt lat="43.69688" lon="3.82802">
        <ele>108.2</ele>
        <time>2024-04-19T07:56:08.267Z</time>
      </trkpt>
      <trkpt lat="43.69695" lon="3.82807">
        <ele>107.9</ele>
        <time>2024-04-19T07:56:10.807Z</time>
      </trkpt>
      <trkpt lat="43.69709" lon="3.82823">
        <ele>107.1</ele>
        <time>2024-04-19T07:56:16.560Z</time>
      </trkpt>
      <trkpt lat="43.69714" lon="3.82832">
        <ele>106.8</ele>
        <time>2024-04-19T07:56:19.218Z</time>
      </trkpt>
      <trkpt lat="43.69718" lon="3.82845">
        <ele>106.1</ele>
        <time>2024-04-19T07:56:22.449Z</time>
      </trkpt>
      <trkpt lat="43.69719" lon="3.82853">
        <ele>105.6</ele>
        <time>2024-04-19T07:56:24.306Z</time>
      </trkpt>
      <trkpt lat="43.69721" lon="3.82871">
        <ele>104.6</ele>
        <time>2024-04-19T07:56:28.471Z</time>
      </trkpt>
      <trkpt lat="43.69725" lon="3.82876">
        <ele>104.6</ele>
        <time>2024-04-19T07:56:30.420Z</time>
      </trkpt>
      <trkpt lat="43.69732" lon="3.82879">
        <ele>104.7</ele>
        <time>2024-04-19T07:56:33.184Z</time>
      </trkpt>
      <trkpt lat="43.6974" lon="3.82881">
        <ele>104.9</ele>
        <time>2024-04-19T07:56:36.358Z</time>
      </trkpt>
      <trkpt lat="43.69746" lon="3.82885">
        <ele>105</ele>
        <time>2024-04-19T07:56:38.880Z</time>
      </trkpt>
      <trkpt lat="43.69761" lon="3.82901">
        <ele>106.4</ele>
        <time>2024-04-19T07:56:47.571Z</time>
      </trkpt>
      <trkpt lat="43.69762" lon="3.82914">
        <ele>107.2</ele>
        <time>2024-04-19T07:56:52.069Z</time>
      </trkpt>
      <trkpt lat="43.69765" lon="3.82926">
        <ele>108.4</ele>
        <time>2024-04-19T07:56:57.207Z</time>
      </trkpt>
      <trkpt lat="43.69766" lon="3.82933">
        <ele>109.2</ele>
        <time>2024-04-19T07:57:00.365Z</time>
      </trkpt>
      <trkpt lat="43.69774" lon="3.82957">
        <ele>111.2</ele>
        <time>2024-04-19T07:57:10.111Z</time>
      </trkpt>
      <trkpt lat="43.6978" lon="3.82968">
        <ele>111.9</ele>
        <time>2024-04-19T07:57:14.626Z</time>
      </trkpt>
      <trkpt lat="43.69786" lon="3.82975">
        <ele>112.4</ele>
        <time>2024-04-19T07:57:18.106Z</time>
      </trkpt>
      <trkpt lat="43.69794" lon="3.82972">
        <ele>112.6</ele>
        <time>2024-04-19T07:57:21.337Z</time>
      </trkpt>
      <trkpt lat="43.69805" lon="3.82961">
        <ele>113</ele>
        <time>2024-04-19T07:57:26.719Z</time>
      </trkpt>
      <trkpt lat="43.6981" lon="3.82954">
        <ele>113.2</ele>
        <time>2024-04-19T07:57:29.528Z</time>
      </trkpt>
      <trkpt lat="43.69833" lon="3.82935">
        <ele>113.6</ele>
        <time>2024-04-19T07:57:39.672Z</time>
      </trkpt>
      <trkpt lat="43.69844" lon="3.82923">
        <ele>113.9</ele>
        <time>2024-04-19T07:57:45.087Z</time>
      </trkpt>
      <trkpt lat="43.69851" lon="3.82919">
        <ele>114.3</ele>
        <time>2024-04-19T07:57:48.326Z</time>
      </trkpt>
      <trkpt lat="43.69872" lon="3.82928">
        <ele>115</ele>
        <time>2024-04-19T07:57:57.109Z</time>
      </trkpt>
      <trkpt lat="43.69885" lon="3.82937">
        <ele>115</ele>
        <time>2024-04-19T07:58:02.365Z</time>
      </trkpt>
      <trkpt lat="43.69892" lon="3.82941">
        <ele>115.2</ele>
        <time>2024-04-19T07:58:05.339Z</time>
      </trkpt>
      <trkpt lat="43.69909" lon="3.82941">
        <ele>116.4</ele>
        <time>2024-04-19T07:58:13.052Z</time>
      </trkpt>
      <trkpt lat="43.6992" lon="3.82933">
        <ele>116.8</ele>
        <time>2024-04-19T07:58:18.023Z</time>
      </trkpt>
      <trkpt lat="43.6994" lon="3.82931">
        <ele>117.8</ele>
        <time>2024-04-19T07:58:26.516Z</time>
      </trkpt>
      <trkpt lat="43.69948" lon="3.82935">
        <ele>118.1</ele>
        <time>2024-04-19T07:58:29.952Z</time>
      </trkpt>
      <trkpt lat="43.69957" lon="3.82942">
        <ele>118.4</ele>
        <time>2024-04-19T07:58:34.041Z</time>
      </trkpt>
      <trkpt lat="43.69964" lon="3.82946">
        <ele>118.7</ele>
        <time>2024-04-19T07:58:37.143Z</time>
      </trkpt>
      <trkpt lat="43.69983" lon="3.82949">
        <ele>118.5</ele>
        <time>2024-04-19T07:58:43.839Z</time>
      </trkpt>
      <trkpt lat="43.69994" lon="3.82955">
        <ele>117.9</ele>
        <time>2024-04-19T07:58:47.579Z</time>
      </trkpt>
      <trkpt lat="43.69992" lon="3.82973">
        <ele>117.6</ele>
        <time>2024-04-19T07:58:52.021Z</time>
      </trkpt>
      <trkpt lat="43.69979" lon="3.82992">
        <ele>118.3</ele>
        <time>2024-04-19T07:58:59.703Z</time>
      </trkpt>
      <trkpt lat="43.69962" lon="3.83002">
        <ele>118.1</ele>
        <time>2024-04-19T07:59:06.164Z</time>
      </trkpt>
      <trkpt lat="43.69954" lon="3.83003">
        <ele>117.5</ele>
        <time>2024-04-19T07:59:08.705Z</time>
      </trkpt>
      <trkpt lat="43.69936" lon="3.83004">
        <ele>116.3</ele>
        <time>2024-04-19T07:59:14.404Z</time>
      </trkpt>
      <trkpt lat="43.69921" lon="3.83002">
        <ele>115.3</ele>
        <time>2024-04-19T07:59:19.170Z</time>
      </trkpt>
      <trkpt lat="43.69911" lon="3.83006">
        <ele>114.8</ele>
        <time>2024-04-19T07:59:22.463Z</time>
      </trkpt>
      <trkpt lat="43.69897" lon="3.83017">
        <ele>113.9</ele>
        <time>2024-04-19T07:59:27.556Z</time>
      </trkpt>
      <trkpt lat="43.69892" lon="3.8302">
        <ele>113.5</ele>
        <time>2024-04-19T07:59:29.280Z</time>
      </trkpt>
      <trkpt lat="43.69885" lon="3.83028">
        <ele>112.9</ele>
        <time>2024-04-19T07:59:32.153Z</time>
      </trkpt>
      <trkpt lat="43.6988" lon="3.83035">
        <ele>112.3</ele>
        <time>2024-04-19T07:59:34.403Z</time>
      </trkpt>
      <trkpt lat="43.69872" lon="3.83049">
        <ele>111.2</ele>
        <time>2024-04-19T07:59:38.484Z</time>
      </trkpt>
      <trkpt lat="43.69869" lon="3.83056">
        <ele>110.6</ele>
        <time>2024-04-19T07:59:40.345Z</time>
      </trkpt>
      <trkpt lat="43.69868" lon="3.83065">
        <ele>110.5</ele>
        <time>2024-04-19T07:59:42.617Z</time>
      </trkpt>
      <trkpt lat="43.69874" lon="3.83064">
        <ele>110.9</ele>
        <time>2024-04-19T07:59:45.319Z</time>
      </trkpt>
      <trkpt lat="43.69931" lon="3.8305">
        <ele>114.7</ele>
        <time>2024-04-19T08:00:11.153Z</time>
      </trkpt>
      <trkpt lat="43.6994" lon="3.83057">
        <ele>114.8</ele>
        <time>2024-04-19T08:00:14.999Z</time>
      </trkpt>
      <trkpt lat="43.69944" lon="3.83076">
        <ele>114.2</ele>
        <time>2024-04-19T08:00:19.560Z</time>
      </trkpt>
      <trkpt lat="43.69952" lon="3.83093">
        <ele>114.5</ele>
        <time>2024-04-19T08:00:25.211Z</time>
      </trkpt>
      <trkpt lat="43.69968" lon="3.83098">
        <ele>114.9</ele>
        <time>2024-04-19T08:00:31.610Z</time>
      </trkpt>
      <trkpt lat="43.69976" lon="3.83108">
        <ele>115.1</ele>
        <time>2024-04-19T08:00:35.740Z</time>
      </trkpt>
      <trkpt lat="43.69976" lon="3.8312">
        <ele>115.5</ele>
        <time>2024-04-19T08:00:39.370Z</time>
      </trkpt>
      <trkpt lat="43.69979" lon="3.8314">
        <ele>116.2</ele>
        <time>2024-04-19T08:00:45.574Z</time>
      </trkpt>
      <trkpt lat="43.69979" lon="3.83162">
        <ele>116.2</ele>
        <time>2024-04-19T08:00:51.324Z</time>
      </trkpt>
      <trkpt lat="43.69979" lon="3.83263">
        <ele>118</ele>
        <time>2024-04-19T08:01:19.836Z</time>
      </trkpt>
      <trkpt lat="43.69978" lon="3.83288">
        <ele>118.3</ele>
        <time>2024-04-19T08:01:26.726Z</time>
      </trkpt>
      <trkpt lat="43.69977" lon="3.83305">
        <ele>118.8</ele>
        <time>2024-04-19T08:01:31.793Z</time>
      </trkpt>
      <trkpt lat="43.6998" lon="3.83325">
        <ele>116.8</ele>
        <time>2024-04-19T08:01:36.464Z</time>
      </trkpt>
      <trkpt lat="43.6998" lon="3.83343">
        <ele>115.3</ele>
        <time>2024-04-19T08:01:40.581Z</time>
      </trkpt>
      <trkpt lat="43.69977" lon="3.83351">
        <ele>114.7</ele>
        <time>2024-04-19T08:01:42.642Z</time>
      </trkpt>
      <trkpt lat="43.69977" lon="3.83358">
        <ele>114.2</ele>
        <time>2024-04-19T08:01:44.243Z</time>
      </trkpt>
      <trkpt lat="43.69986" lon="3.83372">
        <ele>114.4</ele>
        <time>2024-04-19T08:01:49.369Z</time>
      </trkpt>
      <trkpt lat="43.69991" lon="3.83386">
        <ele>114.9</ele>
        <time>2024-04-19T08:01:54.064Z</time>
      </trkpt>
      <trkpt lat="43.69991" lon="3.83393">
        <ele>115.3</ele>
        <time>2024-04-19T08:01:56.427Z</time>
      </trkpt>
      <trkpt lat="43.69992" lon="3.83402">
        <ele>115.9</ele>
        <time>2024-04-19T08:01:59.630Z</time>
      </trkpt>
      <trkpt lat="43.69994" lon="3.8341">
        <ele>116.5</ele>
        <time>2024-04-19T08:02:02.680Z</time>
      </trkpt>
      <trkpt lat="43.70007" lon="3.83422">
        <ele>117.2</ele>
        <time>2024-04-19T08:02:09.191Z</time>
      </trkpt>
      <trkpt lat="43.70014" lon="3.83428">
        <ele>117.4</ele>
        <time>2024-04-19T08:02:12.403Z</time>
      </trkpt>
      <trkpt lat="43.7002" lon="3.83431">
        <ele>117.5</ele>
        <time>2024-04-19T08:02:14.824Z</time>
      </trkpt>
      <trkpt lat="43.70027" lon="3.83433">
        <ele>117.6</ele>
        <time>2024-04-19T08:02:17.523Z</time>
      </trkpt>
      <trkpt lat="43.70042" lon="3.83435">
        <ele>117.7</ele>
        <time>2024-04-19T08:02:23.084Z</time>
      </trkpt>
      <trkpt lat="43.70049" lon="3.83447">
        <ele>118.1</ele>
        <time>2024-04-19T08:02:27.595Z</time>
      </trkpt>
      <trkpt lat="43.70043" lon="3.83525">
        <ele>121.3</ele>
        <time>2024-04-19T08:02:52.139Z</time>
      </trkpt>
      <trkpt lat="43.70043" lon="3.83533">
        <ele>121.7</ele>
        <time>2024-04-19T08:02:54.750Z</time>
      </trkpt>
      <trkpt lat="43.7004" lon="3.83551">
        <ele>122.9</ele>
        <time>2024-04-19T08:03:01.220Z</time>
      </trkpt>
      <trkpt lat="43.70046" lon="3.83602">
        <ele>124.8</ele>
        <time>2024-04-19T08:03:17.094Z</time>
      </trkpt>
      <trkpt lat="43.70047" lon="3.8362">
        <ele>125.4</ele>
        <time>2024-04-19T08:03:22.552Z</time>
      </trkpt>
      <trkpt lat="43.70053" lon="3.83639">
        <ele>125.2</ele>
        <time>2024-04-19T08:03:27.754Z</time>
      </trkpt>
      <trkpt lat="43.70047" lon="3.83652">
        <ele>125</ele>
        <time>2024-04-19T08:03:31.571Z</time>
      </trkpt>
      <trkpt lat="43.70034" lon="3.83655">
        <ele>125.5</ele>
        <time>2024-04-19T08:03:36.941Z</time>
      </trkpt>
      <trkpt lat="43.70026" lon="3.83654">
        <ele>125.9</ele>
        <time>2024-04-19T08:03:40.343Z</time>
      </trkpt>
      <trkpt lat="43.70042" lon="3.83654">
        <ele>125.2</ele>
        <time>2024-04-19T08:03:45.416Z</time>
      </trkpt>
      <trkpt lat="43.70052" lon="3.83644">
        <ele>125</ele>
        <time>2024-04-19T08:03:49.662Z</time>
      </trkpt>
      <trkpt lat="43.70052" lon="3.83637">
        <ele>125.2</ele>
        <time>2024-04-19T08:03:51.734Z</time>
      </trkpt>
      <trkpt lat="43.70059" lon="3.83633">
        <ele>124.8</ele>
        <time>2024-04-19T08:03:54.130Z</time>
      </trkpt>
      <trkpt lat="43.70065" lon="3.83618">
        <ele>124.3</ele>
        <time>2024-04-19T08:03:58.099Z</time>
      </trkpt>
      <trkpt lat="43.70066" lon="3.83597">
        <ele>123.4</ele>
        <time>2024-04-19T08:04:02.912Z</time>
      </trkpt>
      <trkpt lat="43.70069" lon="3.83575">
        <ele>122.2</ele>
        <time>2024-04-19T08:04:08.032Z</time>
      </trkpt>
      <trkpt lat="43.70076" lon="3.83562">
        <ele>121.5</ele>
        <time>2024-04-19T08:04:11.739Z</time>
      </trkpt>
      <trkpt lat="43.7008" lon="3.83556">
        <ele>121.1</ele>
        <time>2024-04-19T08:04:13.605Z</time>
      </trkpt>
      <trkpt lat="43.7009" lon="3.83539">
        <ele>120.3</ele>
        <time>2024-04-19T08:04:18.617Z</time>
      </trkpt>
      <trkpt lat="43.70093" lon="3.83533">
        <ele>120.1</ele>
        <time>2024-04-19T08:04:20.319Z</time>
      </trkpt>
      <trkpt lat="43.70096" lon="3.83527">
        <ele>120</ele>
        <time>2024-04-19T08:04:22.118Z</time>
      </trkpt>
      <trkpt lat="43.70134" lon="3.8349">
        <ele>118.9</ele>
        <time>2024-04-19T08:04:37.754Z</time>
      </trkpt>
      <trkpt lat="43.70144" lon="3.83472">
        <ele>119</ele>
        <time>2024-04-19T08:04:43.800Z</time>
      </trkpt>
      <trkpt lat="43.70148" lon="3.83461">
        <ele>118.7</ele>
        <time>2024-04-19T08:04:46.707Z</time>
      </trkpt>
      <trkpt lat="43.70155" lon="3.83453">
        <ele>118.7</ele>
        <time>2024-04-19T08:04:49.989Z</time>
      </trkpt>
      <trkpt lat="43.702" lon="3.83423">
        <ele>118.7</ele>
        <time>2024-04-19T08:05:08.048Z</time>
      </trkpt>
      <trkpt lat="43.7022" lon="3.83397">
        <ele>119.3</ele>
        <time>2024-04-19T08:05:18.671Z</time>
      </trkpt>
      <trkpt lat="43.70233" lon="3.83413">
        <ele>117.2</ele>
        <time>2024-04-19T08:05:24.175Z</time>
      </trkpt>
      <trkpt lat="43.70235" lon="3.83419">
        <ele>116.5</ele>
        <time>2024-04-19T08:05:25.686Z</time>
      </trkpt>
      <trkpt lat="43.70241" lon="3.83436">
        <ele>115.1</ele>
        <time>2024-04-19T08:05:30.012Z</time>
      </trkpt>
      <trkpt lat="43.70248" lon="3.83453">
        <ele>113.8</ele>
        <time>2024-04-19T08:05:34.486Z</time>
      </trkpt>
      <trkpt lat="43.70253" lon="3.83479">
        <ele>112.9</ele>
        <time>2024-04-19T08:05:40.639Z</time>
      </trkpt>
      <trkpt lat="43.70265" lon="3.83695">
        <ele>107.5</ele>
        <time>2024-04-19T08:06:31.669Z</time>
      </trkpt>
      <trkpt lat="43.70339" lon="3.83741">
        <ele>107.7</ele>
        <time>2024-04-19T08:07:01.222Z</time>
      </trkpt>
      <trkpt lat="43.7039" lon="3.83774">
        <ele>101.8</ele>
        <time>2024-04-19T08:07:19.032Z</time>
      </trkpt>
      <trkpt lat="43.70397" lon="3.83767">
        <ele>100.7</ele>
        <time>2024-04-19T08:07:21.764Z</time>
      </trkpt>
      <trkpt lat="43.70418" lon="3.83734">
        <ele>98.6</ele>
        <time>2024-04-19T08:07:31.818Z</time>
      </trkpt>
      <trkpt lat="43.70422" lon="3.8374">
        <ele>98.7</ele>
        <time>2024-04-19T08:07:34.066Z</time>
      </trkpt>
      <trkpt lat="43.70419" lon="3.83753">
        <ele>98.1</ele>
        <time>2024-04-19T08:07:37.187Z</time>
      </trkpt>
      <trkpt lat="43.70417" lon="3.83767">
        <ele>97.4</ele>
        <time>2024-04-19T08:07:40.450Z</time>
      </trkpt>
      <trkpt lat="43.70417" lon="3.83779">
        <ele>97</ele>
        <time>2024-04-19T08:07:43.194Z</time>
      </trkpt>
      <trkpt lat="43.70418" lon="3.83791">
        <ele>97</ele>
        <time>2024-04-19T08:07:46.351Z</time>
      </trkpt>
      <trkpt lat="43.70419" lon="3.83798">
        <ele>97</ele>
        <time>2024-04-19T08:07:48.216Z</time>
      </trkpt>
      <trkpt lat="43.70437" lon="3.83873">
        <ele>96.8</ele>
        <time>2024-04-19T08:08:08.647Z</time>
      </trkpt>
      <trkpt lat="43.7044" lon="3.83898">
        <ele>95.7</ele>
        <time>2024-04-19T08:08:14.442Z</time>
      </trkpt>
      <trkpt lat="43.7044" lon="3.8398">
        <ele>93.4</ele>
        <time>2024-04-19T08:08:33.514Z</time>
      </trkpt>
      <trkpt lat="43.70449" lon="3.84041">
        <ele>93.2</ele>
        <time>2024-04-19T08:08:49.564Z</time>
      </trkpt>
      <trkpt lat="43.70456" lon="3.84075">
        <ele>93.6</ele>
        <time>2024-04-19T08:08:59.263Z</time>
      </trkpt>
      <trkpt lat="43.70488" lon="3.84166">
        <ele>90</ele>
        <time>2024-04-19T08:09:22.404Z</time>
      </trkpt>
      <trkpt lat="43.70491" lon="3.84186">
        <ele>89.5</ele>
        <time>2024-04-19T08:09:27.224Z</time>
      </trkpt>
      <trkpt lat="43.70494" lon="3.84215">
        <ele>89.1</ele>
        <time>2024-04-19T08:09:34.452Z</time>
      </trkpt>
      <trkpt lat="43.70489" lon="3.84259">
        <ele>87.5</ele>
        <time>2024-04-19T08:09:44.637Z</time>
      </trkpt>
      <trkpt lat="43.70485" lon="3.84271">
        <ele>87.6</ele>
        <time>2024-04-19T08:09:48.204Z</time>
      </trkpt>
      <trkpt lat="43.70477" lon="3.84287">
        <ele>89.1</ele>
        <time>2024-04-19T08:09:55.428Z</time>
      </trkpt>
      <trkpt lat="43.70472" lon="3.84283">
        <ele>90</ele>
        <time>2024-04-19T08:09:58.973Z</time>
      </trkpt>
      <trkpt lat="43.70461" lon="3.84274">
        <ele>91.8</ele>
        <time>2024-04-19T08:10:06.395Z</time>
      </trkpt>
      <trkpt lat="43.70453" lon="3.8427">
        <ele>92.8</ele>
        <time>2024-04-19T08:10:10.936Z</time>
      </trkpt>
      <trkpt lat="43.70446" lon="3.84268">
        <ele>93.9</ele>
        <time>2024-04-19T08:10:15.292Z</time>
      </trkpt>
      <trkpt lat="43.7044" lon="3.84264">
        <ele>94.8</ele>
        <time>2024-04-19T08:10:19.080Z</time>
      </trkpt>
      <trkpt lat="43.70422" lon="3.8425">
        <ele>97.5</ele>
        <time>2024-04-19T08:10:30.638Z</time>
      </trkpt>
      <trkpt lat="43.70416" lon="3.84246">
        <ele>98.2</ele>
        <time>2024-04-19T08:10:34.041Z</time>
      </trkpt>
      <trkpt lat="43.70411" lon="3.84244">
        <ele>98.9</ele>
        <time>2024-04-19T08:10:36.994Z</time>
      </trkpt>
      <trkpt lat="43.704" lon="3.84238">
        <ele>100.2</ele>
        <time>2024-04-19T08:10:43.138Z</time>
      </trkpt>
      <trkpt lat="43.70391" lon="3.84232">
        <ele>100.9</ele>
        <time>2024-04-19T08:10:47.663Z</time>
      </trkpt>
      <trkpt lat="43.70377" lon="3.84224">
        <ele>101.2</ele>
        <time>2024-04-19T08:10:53.487Z</time>
      </trkpt>
      <trkpt lat="43.70365" lon="3.84213">
        <ele>102.7</ele>
        <time>2024-04-19T08:11:00.818Z</time>
      </trkpt>
      <trkpt lat="43.7036" lon="3.8421">
        <ele>103.6</ele>
        <time>2024-04-19T08:11:04.282Z</time>
      </trkpt>
      <trkpt lat="43.70338" lon="3.842">
        <ele>106.6</ele>
        <time>2024-04-19T08:11:17.188Z</time>
      </trkpt>
      <trkpt lat="43.70327" lon="3.84193">
        <ele>108.9</ele>
        <time>2024-04-19T08:11:25.650Z</time>
      </trkpt>
      <trkpt lat="43.70318" lon="3.84189">
        <ele>111.7</ele>
        <time>2024-04-19T08:11:35.814Z</time>
      </trkpt>
      <trkpt lat="43.70307" lon="3.84182">
        <ele>114.2</ele>
        <time>2024-04-19T08:11:44.840Z</time>
      </trkpt>
      <trkpt lat="43.70302" lon="3.84181">
        <ele>115.2</ele>
        <time>2024-04-19T08:11:48.482Z</time>
      </trkpt>
      <trkpt lat="43.70291" lon="3.84176">
        <ele>117.1</ele>
        <time>2024-04-19T08:11:55.813Z</time>
      </trkpt>
      <trkpt lat="43.70285" lon="3.84172">
        <ele>117.7</ele>
        <time>2024-04-19T08:11:59.042Z</time>
      </trkpt>
      <trkpt lat="43.70278" lon="3.84166">
        <ele>118</ele>
        <time>2024-04-19T08:12:02.381Z</time>
      </trkpt>
      <trkpt lat="43.70266" lon="3.84147">
        <ele>120.3</ele>
        <time>2024-04-19T08:12:12.421Z</time>
      </trkpt>
      <trkpt lat="43.70262" lon="3.84142">
        <ele>120.4</ele>
        <time>2024-04-19T08:12:14.486Z</time>
      </trkpt>
      <trkpt lat="43.70259" lon="3.84149">
        <ele>121.5</ele>
        <time>2024-04-19T08:12:18.550Z</time>
      </trkpt>
      <trkpt lat="43.7026" lon="3.84157">
        <ele>122.1</ele>
        <time>2024-04-19T08:12:21.518Z</time>
      </trkpt>
      <trkpt lat="43.70262" lon="3.84166">
        <ele>122.5</ele>
        <time>2024-04-19T08:12:24.487Z</time>
      </trkpt>
      <trkpt lat="43.70263" lon="3.84175">
        <ele>123.3</ele>
        <time>2024-04-19T08:12:28.051Z</time>
      </trkpt>
      <trkpt lat="43.70263" lon="3.84184">
        <ele>124.4</ele>
        <time>2024-04-19T08:12:32.249Z</time>
      </trkpt>
      <trkpt lat="43.70263" lon="3.84198">
        <ele>126</ele>
        <time>2024-04-19T08:12:38.514Z</time>
      </trkpt>
      <trkpt lat="43.70258" lon="3.84238">
        <ele>129.6</ele>
        <time>2024-04-19T08:12:54.469Z</time>
      </trkpt>
      <trkpt lat="43.70255" lon="3.84252">
        <ele>130.8</ele>
        <time>2024-04-19T08:13:00.027Z</time>
      </trkpt>
      <trkpt lat="43.7025" lon="3.84259">
        <ele>132</ele>
        <time>2024-04-19T08:13:04.610Z</time>
      </trkpt>
      <trkpt lat="43.70245" lon="3.84261">
        <ele>132.5</ele>
        <time>2024-04-19T08:13:07.186Z</time>
      </trkpt>
      <trkpt lat="43.70239" lon="3.84267">
        <ele>133.2</ele>
        <time>2024-04-19T08:13:10.831Z</time>
      </trkpt>
      <trkpt lat="43.70228" lon="3.84279">
        <ele>134.3</ele>
        <time>2024-04-19T08:13:17.360Z</time>
      </trkpt>
      <trkpt lat="43.70222" lon="3.84302">
        <ele>134.1</ele>
        <time>2024-04-19T08:13:23.533Z</time>
      </trkpt>
      <trkpt lat="43.70218" lon="3.84354">
        <ele>135.6</ele>
        <time>2024-04-19T08:13:39.023Z</time>
      </trkpt>
      <trkpt lat="43.70213" lon="3.84369">
        <ele>136.2</ele>
        <time>2024-04-19T08:13:44.087Z</time>
      </trkpt>
      <trkpt lat="43.7021" lon="3.84412">
        <ele>138.4</ele>
        <time>2024-04-19T08:13:58.250Z</time>
      </trkpt>
      <trkpt lat="43.70212" lon="3.84428">
        <ele>138.6</ele>
        <time>2024-04-19T08:14:02.725Z</time>
      </trkpt>
      <trkpt lat="43.70235" lon="3.84437">
        <ele>140.4</ele>
        <time>2024-04-19T08:14:13.743Z</time>
      </trkpt>
      <trkpt lat="43.70245" lon="3.84438">
        <ele>141.5</ele>
        <time>2024-04-19T08:14:18.949Z</time>
      </trkpt>
      <trkpt lat="43.70255" lon="3.84444">
        <ele>142.2</ele>
        <time>2024-04-19T08:14:23.790Z</time>
      </trkpt>
      <trkpt lat="43.70266" lon="3.84452">
        <ele>142.3</ele>
        <time>2024-04-19T08:14:28.396Z</time>
      </trkpt>
      <trkpt lat="43.70277" lon="3.84464">
        <ele>142.3</ele>
        <time>2024-04-19T08:14:33.460Z</time>
      </trkpt>
      <trkpt lat="43.70283" lon="3.84467">
        <ele>141.4</ele>
        <time>2024-04-19T08:14:35.478Z</time>
      </trkpt>
      <trkpt lat="43.70284" lon="3.84476">
        <ele>140.8</ele>
        <time>2024-04-19T08:14:37.561Z</time>
      </trkpt>
      <trkpt lat="43.70286" lon="3.84499">
        <ele>139.9</ele>
        <time>2024-04-19T08:14:42.858Z</time>
      </trkpt>
      <trkpt lat="43.70282" lon="3.84564">
        <ele>141.4</ele>
        <time>2024-04-19T08:15:01.698Z</time>
      </trkpt>
      <trkpt lat="43.70276" lon="3.84589">
        <ele>140.2</ele>
        <time>2024-04-19T08:15:07.722Z</time>
      </trkpt>
      <trkpt lat="43.70274" lon="3.84595">
        <ele>139.5</ele>
        <time>2024-04-19T08:15:09.233Z</time>
      </trkpt>
      <trkpt lat="43.70268" lon="3.84609">
        <ele>138.3</ele>
        <time>2024-04-19T08:15:12.955Z</time>
      </trkpt>
      <trkpt lat="43.7026" lon="3.84619">
        <ele>137.7</ele>
        <time>2024-04-19T08:15:16.365Z</time>
      </trkpt>
      <trkpt lat="43.7025" lon="3.84629">
        <ele>138.7</ele>
        <time>2024-04-19T08:15:22.165Z</time>
      </trkpt>
      <trkpt lat="43.70246" lon="3.84635">
        <ele>138.4</ele>
        <time>2024-04-19T08:15:24.032Z</time>
      </trkpt>
      <trkpt lat="43.70239" lon="3.84648">
        <ele>137.4</ele>
        <time>2024-04-19T08:15:27.739Z</time>
      </trkpt>
      <trkpt lat="43.70237" lon="3.84655">
        <ele>136.9</ele>
        <time>2024-04-19T08:15:29.460Z</time>
      </trkpt>
      <trkpt lat="43.70228" lon="3.84673">
        <ele>136.7</ele>
        <time>2024-04-19T08:15:34.963Z</time>
      </trkpt>
      <trkpt lat="43.70224" lon="3.84678">
        <ele>136.9</ele>
        <time>2024-04-19T08:15:37.154Z</time>
      </trkpt>
      <trkpt lat="43.70219" lon="3.84683">
        <ele>136.7</ele>
        <time>2024-04-19T08:15:39.176Z</time>
      </trkpt>
      <trkpt lat="43.70173" lon="3.8473">
        <ele>135.2</ele>
        <time>2024-04-19T08:15:58.272Z</time>
      </trkpt>
      <trkpt lat="43.70166" lon="3.84739">
        <ele>134.8</ele>
        <time>2024-04-19T08:16:01.319Z</time>
      </trkpt>
      <trkpt lat="43.70152" lon="3.84765">
        <ele>134</ele>
        <time>2024-04-19T08:16:08.964Z</time>
      </trkpt>
      <trkpt lat="43.70149" lon="3.84773">
        <ele>134.3</ele>
        <time>2024-04-19T08:16:11.689Z</time>
      </trkpt>
      <trkpt lat="43.70138" lon="3.84828">
        <ele>132.5</ele>
        <time>2024-04-19T08:16:24.775Z</time>
      </trkpt>
      <trkpt lat="43.70135" lon="3.84851">
        <ele>131.4</ele>
        <time>2024-04-19T08:16:30.120Z</time>
      </trkpt>
      <trkpt lat="43.70135" lon="3.84859">
        <ele>131</ele>
        <time>2024-04-19T08:16:31.949Z</time>
      </trkpt>
      <trkpt lat="43.70138" lon="3.84875">
        <ele>130.7</ele>
        <time>2024-04-19T08:16:35.953Z</time>
      </trkpt>
      <trkpt lat="43.70141" lon="3.84883">
        <ele>130.2</ele>
        <time>2024-04-19T08:16:38.014Z</time>
      </trkpt>
      <trkpt lat="43.7015" lon="3.84899">
        <ele>129</ele>
        <time>2024-04-19T08:16:42.650Z</time>
      </trkpt>
      <trkpt lat="43.70159" lon="3.84915">
        <ele>126.1</ele>
        <time>2024-04-19T08:16:47.286Z</time>
      </trkpt>
      <trkpt lat="43.70165" lon="3.84921">
        <ele>123</ele>
        <time>2024-04-19T08:16:49.628Z</time>
      </trkpt>
      <trkpt lat="43.70171" lon="3.84928">
        <ele>121.2</ele>
        <time>2024-04-19T08:16:52.111Z</time>
      </trkpt>
      <trkpt lat="43.70175" lon="3.84935">
        <ele>120.2</ele>
        <time>2024-04-19T08:16:54.151Z</time>
      </trkpt>
      <trkpt lat="43.70178" lon="3.84943">
        <ele>119.3</ele>
        <time>2024-04-19T08:16:56.212Z</time>
      </trkpt>
      <trkpt lat="43.7018" lon="3.84952">
        <ele>118.3</ele>
        <time>2024-04-19T08:16:58.365Z</time>
      </trkpt>
      <trkpt lat="43.70181" lon="3.84973">
        <ele>116.8</ele>
        <time>2024-04-19T08:17:03.178Z</time>
      </trkpt>
      <trkpt lat="43.70188" lon="3.85003">
        <ele>111.9</ele>
        <time>2024-04-19T08:17:10.387Z</time>
      </trkpt>
      <trkpt lat="43.70188" lon="3.85011">
        <ele>110.6</ele>
        <time>2024-04-19T08:17:12.217Z</time>
      </trkpt>
      <trkpt lat="43.70181" lon="3.85024">
        <ele>109.6</ele>
        <time>2024-04-19T08:17:15.923Z</time>
      </trkpt>
      <trkpt lat="43.70172" lon="3.85031">
        <ele>109.9</ele>
        <time>2024-04-19T08:17:20.012Z</time>
      </trkpt>
      <trkpt lat="43.70162" lon="3.85039">
        <ele>110.5</ele>
        <time>2024-04-19T08:17:24.938Z</time>
      </trkpt>
      <trkpt lat="43.70152" lon="3.85051">
        <ele>109.9</ele>
        <time>2024-04-19T08:17:29.126Z</time>
      </trkpt>
      <trkpt lat="43.70144" lon="3.85067">
        <ele>108.7</ele>
        <time>2024-04-19T08:17:33.575Z</time>
      </trkpt>
      <trkpt lat="43.70139" lon="3.85084">
        <ele>107.9</ele>
        <time>2024-04-19T08:17:37.772Z</time>
      </trkpt>
      <trkpt lat="43.70135" lon="3.85104">
        <ele>106.2</ele>
        <time>2024-04-19T08:17:42.517Z</time>
      </trkpt>
      <trkpt lat="43.70132" lon="3.85114">
        <ele>105.3</ele>
        <time>2024-04-19T08:17:44.993Z</time>
      </trkpt>
      <trkpt lat="43.70127" lon="3.85122">
        <ele>104.5</ele>
        <time>2024-04-19T08:17:47.412Z</time>
      </trkpt>
      <trkpt lat="43.70106" lon="3.85155">
        <ele>100</ele>
        <time>2024-04-19T08:17:57.465Z</time>
      </trkpt>
      <trkpt lat="43.70094" lon="3.85172">
        <ele>97.7</ele>
        <time>2024-04-19T08:18:02.899Z</time>
      </trkpt>
      <trkpt lat="43.70065" lon="3.85198">
        <ele>94.4</ele>
        <time>2024-04-19T08:18:13.831Z</time>
      </trkpt>
      <trkpt lat="43.70049" lon="3.85208">
        <ele>92.9</ele>
        <time>2024-04-19T08:18:19.384Z</time>
      </trkpt>
      <trkpt lat="43.70031" lon="3.85216">
        <ele>91.7</ele>
        <time>2024-04-19T08:18:25.365Z</time>
      </trkpt>
      <trkpt lat="43.70013" lon="3.85227">
        <ele>90.6</ele>
        <time>2024-04-19T08:18:31.590Z</time>
      </trkpt>
      <trkpt lat="43.69997" lon="3.8524">
        <ele>89.3</ele>
        <time>2024-04-19T08:18:37.459Z</time>
      </trkpt>
      <trkpt lat="43.69989" lon="3.85244">
        <ele>89</ele>
        <time>2024-04-19T08:18:40.225Z</time>
      </trkpt>
      <trkpt lat="43.69974" lon="3.8525">
        <ele>88.9</ele>
        <time>2024-04-19T08:18:45.760Z</time>
      </trkpt>
      <trkpt lat="43.69952" lon="3.85255">
        <ele>88.6</ele>
        <time>2024-04-19T08:18:53.495Z</time>
      </trkpt>
      <trkpt lat="43.69932" lon="3.85262">
        <ele>87</ele>
        <time>2024-04-19T08:19:00.021Z</time>
      </trkpt>
      <trkpt lat="43.69927" lon="3.85268">
        <ele>85.5</ele>
        <time>2024-04-19T08:19:02.115Z</time>
      </trkpt>
      <trkpt lat="43.69918" lon="3.8528">
        <ele>82.6</ele>
        <time>2024-04-19T08:19:06.069Z</time>
      </trkpt>
      <trkpt lat="43.6991" lon="3.85287">
        <ele>80.8</ele>
        <time>2024-04-19T08:19:09.064Z</time>
      </trkpt>
      <trkpt lat="43.69885" lon="3.85287">
        <ele>78.8</ele>
        <time>2024-04-19T08:19:16.972Z</time>
      </trkpt>
      <trkpt lat="43.69875" lon="3.85289">
        <ele>77.7</ele>
        <time>2024-04-19T08:19:20.168Z</time>
      </trkpt>
      <trkpt lat="43.6988" lon="3.85294">
        <ele>76.8</ele>
        <time>2024-04-19T08:19:22.120Z</time>
      </trkpt>
      <trkpt lat="43.69889" lon="3.85303">
        <ele>75.6</ele>
        <time>2024-04-19T08:19:25.633Z</time>
      </trkpt>
      <trkpt lat="43.69916" lon="3.85324">
        <ele>74.6</ele>
        <time>2024-04-19T08:19:35.791Z</time>
      </trkpt>
      <trkpt lat="43.69922" lon="3.85328">
        <ele>74</ele>
        <time>2024-04-19T08:19:37.898Z</time>
      </trkpt>
      <trkpt lat="43.69943" lon="3.85341">
        <ele>71.6</ele>
        <time>2024-04-19T08:19:45.176Z</time>
      </trkpt>
      <trkpt lat="43.69951" lon="3.85343">
        <ele>70.9</ele>
        <time>2024-04-19T08:19:47.747Z</time>
      </trkpt>
      <trkpt lat="43.69981" lon="3.85343">
        <ele>69.4</ele>
        <time>2024-04-19T08:19:57.237Z</time>
      </trkpt>
      <trkpt lat="43.70001" lon="3.85343">
        <ele>68.2</ele>
        <time>2024-04-19T08:20:03.564Z</time>
      </trkpt>
      <trkpt lat="43.70014" lon="3.8534">
        <ele>67.9</ele>
        <time>2024-04-19T08:20:08.010Z</time>
      </trkpt>
      <trkpt lat="43.70032" lon="3.85334">
        <ele>67.9</ele>
        <time>2024-04-19T08:20:14.704Z</time>
      </trkpt>
      <trkpt lat="43.70038" lon="3.85333">
        <ele>68.1</ele>
        <time>2024-04-19T08:20:17.128Z</time>
      </trkpt>
      <trkpt lat="43.7009" lon="3.85343">
        <ele>65.3</ele>
        <time>2024-04-19T08:20:33.735Z</time>
      </trkpt>
      <trkpt lat="43.70096" lon="3.85347">
        <ele>65</ele>
        <time>2024-04-19T08:20:35.842Z</time>
      </trkpt>
      <trkpt lat="43.70105" lon="3.85351">
        <ele>64.7</ele>
        <time>2024-04-19T08:20:38.947Z</time>
      </trkpt>
      <trkpt lat="43.70113" lon="3.85352">
        <ele>64.7</ele>
        <time>2024-04-19T08:20:41.851Z</time>
      </trkpt>
      <trkpt lat="43.70119" lon="3.85352">
        <ele>64.7</ele>
        <time>2024-04-19T08:20:44.020Z</time>
      </trkpt>
      <trkpt lat="43.70126" lon="3.85353">
        <ele>64.6</ele>
        <time>2024-04-19T08:20:46.456Z</time>
      </trkpt>
      <trkpt lat="43.70149" lon="3.85359">
        <ele>64.5</ele>
        <time>2024-04-19T08:20:54.807Z</time>
      </trkpt>
      <trkpt lat="43.70162" lon="3.85368">
        <ele>64.6</ele>
        <time>2024-04-19T08:21:00.175Z</time>
      </trkpt>
      <trkpt lat="43.70164" lon="3.85382">
        <ele>64.2</ele>
        <time>2024-04-19T08:21:03.495Z</time>
      </trkpt>
      <trkpt lat="43.70173" lon="3.85404">
        <ele>63</ele>
        <time>2024-04-19T08:21:09.275Z</time>
      </trkpt>
      <trkpt lat="43.70183" lon="3.8542">
        <ele>62.5</ele>
        <time>2024-04-19T08:21:14.284Z</time>
      </trkpt>
      <trkpt lat="43.70188" lon="3.85433">
        <ele>62.6</ele>
        <time>2024-04-19T08:21:18.246Z</time>
      </trkpt>
      <trkpt lat="43.70189" lon="3.85441">
        <ele>62.6</ele>
        <time>2024-04-19T08:21:20.368Z</time>
      </trkpt>
      <trkpt lat="43.70187" lon="3.85464">
        <ele>61.9</ele>
        <time>2024-04-19T08:21:25.709Z</time>
      </trkpt>
      <trkpt lat="43.70183" lon="3.85478">
        <ele>61.5</ele>
        <time>2024-04-19T08:21:29.231Z</time>
      </trkpt>
      <trkpt lat="43.70165" lon="3.85571">
        <ele>60.9</ele>
        <time>2024-04-19T08:21:53.737Z</time>
      </trkpt>
      <trkpt lat="43.70163" lon="3.85586">
        <ele>60.8</ele>
        <time>2024-04-19T08:21:57.615Z</time>
      </trkpt>
      <trkpt lat="43.70163" lon="3.85607">
        <ele>60</ele>
        <time>2024-04-19T08:22:02.417Z</time>
      </trkpt>
      <trkpt lat="43.70162" lon="3.85621">
        <ele>60.2</ele>
        <time>2024-04-19T08:22:06.326Z</time>
      </trkpt>
      <trkpt lat="43.70155" lon="3.85643">
        <ele>60.5</ele>
        <time>2024-04-19T08:22:12.955Z</time>
      </trkpt>
      <trkpt lat="43.70152" lon="3.85658">
        <ele>60.1</ele>
        <time>2024-04-19T08:22:16.609Z</time>
      </trkpt>
      <trkpt lat="43.70155" lon="3.85676">
        <ele>59.4</ele>
        <time>2024-04-19T08:22:20.834Z</time>
      </trkpt>
      <trkpt lat="43.70153" lon="3.85693">
        <ele>58.1</ele>
        <time>2024-04-19T08:22:24.772Z</time>
      </trkpt>
      <trkpt lat="43.70146" lon="3.85737">
        <ele>58.3</ele>
        <time>2024-04-19T08:22:36.773Z</time>
      </trkpt>
      <trkpt lat="43.70138" lon="3.85761">
        <ele>61</ele>
        <time>2024-04-19T08:22:47.887Z</time>
      </trkpt>
      <trkpt lat="43.70125" lon="3.85833">
        <ele>60.5</ele>
        <time>2024-04-19T08:23:06.737Z</time>
      </trkpt>
      <trkpt lat="43.70121" lon="3.85848">
        <ele>60.4</ele>
        <time>2024-04-19T08:23:10.807Z</time>
      </trkpt>
      <trkpt lat="43.70115" lon="3.85845">
        <ele>60.1</ele>
        <time>2024-04-19T08:23:12.825Z</time>
      </trkpt>
      <trkpt lat="43.70104" lon="3.85828">
        <ele>60</ele>
        <time>2024-04-19T08:23:18.678Z</time>
      </trkpt>
      <trkpt lat="43.70098" lon="3.85824">
        <ele>60</ele>
        <time>2024-04-19T08:23:21.085Z</time>
      </trkpt>
      <trkpt lat="43.7005" lon="3.8581">
        <ele>60</ele>
        <time>2024-04-19T08:23:38.820Z</time>
      </trkpt>
      <trkpt lat="43.70037" lon="3.858">
        <ele>59.9</ele>
        <time>2024-04-19T08:23:44.087Z</time>
      </trkpt>
      <trkpt lat="43.70027" lon="3.85779">
        <ele>59</ele>
        <time>2024-04-19T08:23:49.838Z</time>
      </trkpt>
      <trkpt lat="43.70005" lon="3.85749">
        <ele>59</ele>
        <time>2024-04-19T08:24:01.006Z</time>
      </trkpt>
      <trkpt lat="43.69991" lon="3.85724">
        <ele>59</ele>
        <time>2024-04-19T08:24:09.271Z</time>
      </trkpt>
      <trkpt lat="43.69987" lon="3.85718">
        <ele>59</ele>
        <time>2024-04-19T08:24:11.404Z</time>
      </trkpt>
      <trkpt lat="43.69982" lon="3.85728">
        <ele>59</ele>
        <time>2024-04-19T08:24:14.582Z</time>
      </trkpt>
      <trkpt lat="43.69977" lon="3.85752">
        <ele>59</ele>
        <time>2024-04-19T08:24:21.110Z</time>
      </trkpt>
      <trkpt lat="43.69963" lon="3.85843">
        <ele>60</ele>
        <time>2024-04-19T08:24:46.576Z</time>
      </trkpt>
      <trkpt lat="43.69956" lon="3.85902">
        <ele>60.3</ele>
        <time>2024-04-19T08:25:02.542Z</time>
      </trkpt>
      <trkpt lat="43.69954" lon="3.85925">
        <ele>60.8</ele>
        <time>2024-04-19T08:25:09.190Z</time>
      </trkpt>
      <trkpt lat="43.69949" lon="3.85932">
        <ele>60.9</ele>
        <time>2024-04-19T08:25:11.877Z</time>
      </trkpt>
      <trkpt lat="43.69925" lon="3.85928">
        <ele>61</ele>
        <time>2024-04-19T08:25:20.728Z</time>
      </trkpt>
      <trkpt lat="43.69917" lon="3.85927">
        <ele>61</ele>
        <time>2024-04-19T08:25:23.632Z</time>
      </trkpt>
      <trkpt lat="43.69909" lon="3.85922">
        <ele>60.8</ele>
        <time>2024-04-19T08:25:26.594Z</time>
      </trkpt>
      <trkpt lat="43.69907" lon="3.85907">
        <ele>60.7</ele>
        <time>2024-04-19T08:25:30.471Z</time>
      </trkpt>
      <trkpt lat="43.69914" lon="3.85793">
        <ele>60</ele>
        <time>2024-04-19T08:25:59.609Z</time>
      </trkpt>
      <trkpt lat="43.69921" lon="3.85757">
        <ele>59.8</ele>
        <time>2024-04-19T08:26:09.134Z</time>
      </trkpt>
      <trkpt lat="43.69928" lon="3.85731">
        <ele>59.2</ele>
        <time>2024-04-19T08:26:15.758Z</time>
      </trkpt>
      <trkpt lat="43.69933" lon="3.85719">
        <ele>59</ele>
        <time>2024-04-19T08:26:19.165Z</time>
      </trkpt>
      <trkpt lat="43.69937" lon="3.85664">
        <ele>58.3</ele>
        <time>2024-04-19T08:26:32.862Z</time>
      </trkpt>
      <trkpt lat="43.69941" lon="3.85643">
        <ele>58.1</ele>
        <time>2024-04-19T08:26:38.321Z</time>
      </trkpt>
      <trkpt lat="43.69941" lon="3.85629">
        <ele>58</ele>
        <time>2024-04-19T08:26:41.871Z</time>
      </trkpt>
      <trkpt lat="43.69926" lon="3.85623">
        <ele>57.9</ele>
        <time>2024-04-19T08:26:47.407Z</time>
      </trkpt>
      <trkpt lat="43.69918" lon="3.85623">
        <ele>57.9</ele>
        <time>2024-04-19T08:26:50.299Z</time>
      </trkpt>
      <trkpt lat="43.69893" lon="3.85617">
        <ele>58.1</ele>
        <time>2024-04-19T08:26:59.698Z</time>
      </trkpt>
      <trkpt lat="43.69881" lon="3.85621">
        <ele>58.4</ele>
        <time>2024-04-19T08:27:04.512Z</time>
      </trkpt>
      <trkpt lat="43.69861" lon="3.85621">
        <ele>58.4</ele>
        <time>2024-04-19T08:27:11.743Z</time>
      </trkpt>
      <trkpt lat="43.69845" lon="3.85623">
        <ele>58.4</ele>
        <time>2024-04-19T08:27:17.550Z</time>
      </trkpt>
      <trkpt lat="43.69834" lon="3.85621">
        <ele>58.4</ele>
        <time>2024-04-19T08:27:21.561Z</time>
      </trkpt>
      <trkpt lat="43.69698" lon="3.85553">
        <ele>58.1</ele>
        <time>2024-04-19T08:28:13.508Z</time>
      </trkpt>
      <trkpt lat="43.69688" lon="3.85536">
        <ele>56.8</ele>
        <time>2024-04-19T08:28:18.520Z</time>
      </trkpt>
      <trkpt lat="43.6968" lon="3.85522">
        <ele>56.7</ele>
        <time>2024-04-19T08:28:23.075Z</time>
      </trkpt>
      <trkpt lat="43.69668" lon="3.8549">
        <ele>56.7</ele>
        <time>2024-04-19T08:28:32.497Z</time>
      </trkpt>
      <trkpt lat="43.69663" lon="3.85481">
        <ele>56.3</ele>
        <time>2024-04-19T08:28:35.093Z</time>
      </trkpt>
      <trkpt lat="43.69658" lon="3.85479">
        <ele>56.5</ele>
        <time>2024-04-19T08:28:37.217Z</time>
      </trkpt>
      <trkpt lat="43.69655" lon="3.85497">
        <ele>58.2</ele>
        <time>2024-04-19T08:28:44.600Z</time>
      </trkpt>
      <trkpt lat="43.6965" lon="3.85516">
        <ele>58.8</ele>
        <time>2024-04-19T08:28:50.616Z</time>
      </trkpt>
      <trkpt lat="43.69647" lon="3.85536">
        <ele>59</ele>
        <time>2024-04-19T08:28:56.184Z</time>
      </trkpt>
      <trkpt lat="43.69643" lon="3.85588">
        <ele>58.9</ele>
        <time>2024-04-19T08:29:09.742Z</time>
      </trkpt>
      <trkpt lat="43.69643" lon="3.85609">
        <ele>58.2</ele>
        <time>2024-04-19T08:29:14.544Z</time>
      </trkpt>
      <trkpt lat="43.69636" lon="3.85617">
        <ele>58.1</ele>
        <time>2024-04-19T08:29:17.718Z</time>
      </trkpt>
      <trkpt lat="43.69585" lon="3.85618">
        <ele>58.8</ele>
        <time>2024-04-19T08:29:36.960Z</time>
      </trkpt>
      <trkpt lat="43.69405" lon="3.85658">
        <ele>58</ele>
        <time>2024-04-19T08:30:41.985Z</time>
      </trkpt>
      <trkpt lat="43.69349" lon="3.85687">
        <ele>57.6</ele>
        <time>2024-04-19T08:31:03.163Z</time>
      </trkpt>
      <trkpt lat="43.69349" lon="3.85699">
        <ele>57.4</ele>
        <time>2024-04-19T08:31:06.088Z</time>
      </trkpt>
      <trkpt lat="43.69351" lon="3.85717">
        <ele>57.1</ele>
        <time>2024-04-19T08:31:10.530Z</time>
      </trkpt>
      <trkpt lat="43.69361" lon="3.85752">
        <ele>58</ele>
        <time>2024-04-19T08:31:21.444Z</time>
      </trkpt>
      <trkpt lat="43.6933" lon="3.85781">
        <ele>57.9</ele>
        <time>2024-04-19T08:31:34.864Z</time>
      </trkpt>
      <trkpt lat="43.69323" lon="3.85802">
        <ele>58</ele>
        <time>2024-04-19T08:31:41.021Z</time>
      </trkpt>
      <trkpt lat="43.69312" lon="3.85869">
        <ele>58</ele>
        <time>2024-04-19T08:31:58.980Z</time>
      </trkpt>
      <trkpt lat="43.69302" lon="3.85873">
        <ele>58</ele>
        <time>2024-04-19T08:32:02.743Z</time>
      </trkpt>
      <trkpt lat="43.69245" lon="3.85879">
        <ele>58</ele>
        <time>2024-04-19T08:32:23.409Z</time>
      </trkpt>
      <trkpt lat="43.69205" lon="3.85889">
        <ele>58</ele>
        <time>2024-04-19T08:32:38.103Z</time>
      </trkpt>
      <trkpt lat="43.69193" lon="3.85896">
        <ele>57.9</ele>
        <time>2024-04-19T08:32:42.702Z</time>
      </trkpt>
      <trkpt lat="43.69175" lon="3.85918">
        <ele>57.3</ele>
        <time>2024-04-19T08:32:50.753Z</time>
      </trkpt>
      <trkpt lat="43.69169" lon="3.85927">
        <ele>57.4</ele>
        <time>2024-04-19T08:32:54.067Z</time>
      </trkpt>
      <trkpt lat="43.69153" lon="3.85944">
        <ele>57.5</ele>
        <time>2024-04-19T08:33:01.474Z</time>
      </trkpt>
      <trkpt lat="43.6915" lon="3.85954">
        <ele>57.4</ele>
        <time>2024-04-19T08:33:04.195Z</time>
      </trkpt>
      <trkpt lat="43.69147" lon="3.85965">
        <ele>57.3</ele>
        <time>2024-04-19T08:33:07.160Z</time>
      </trkpt>
      <trkpt lat="43.69144" lon="3.85976">
        <ele>57.3</ele>
        <time>2024-04-19T08:33:10.233Z</time>
      </trkpt>
      <trkpt lat="43.69135" lon="3.85992">
        <ele>57.6</ele>
        <time>2024-04-19T08:33:15.881Z</time>
      </trkpt>
      <trkpt lat="43.69125" lon="3.86008">
        <ele>57.6</ele>
        <time>2024-04-19T08:33:21.409Z</time>
      </trkpt>
      <trkpt lat="43.69118" lon="3.86015">
        <ele>57.7</ele>
        <time>2024-04-19T08:33:24.646Z</time>
      </trkpt>
      <trkpt lat="43.69081" lon="3.86069">
        <ele>58</ele>
        <time>2024-04-19T08:33:44.431Z</time>
      </trkpt>
      <trkpt lat="43.69076" lon="3.86079">
        <ele>58</ele>
        <time>2024-04-19T08:33:47.609Z</time>
      </trkpt>
      <trkpt lat="43.69074" lon="3.8609">
        <ele>58.2</ele>
        <time>2024-04-19T08:33:50.808Z</time>
      </trkpt>
      <trkpt lat="43.69072" lon="3.86137">
        <ele>59</ele>
        <time>2024-04-19T08:34:04.053Z</time>
      </trkpt>
      <trkpt lat="43.69065" lon="3.86191">
        <ele>59.9</ele>
        <time>2024-04-19T08:34:19.446Z</time>
      </trkpt>
      <trkpt lat="43.69065" lon="3.86211">
        <ele>60.2</ele>
        <time>2024-04-19T08:34:25.024Z</time>
      </trkpt>
      <trkpt lat="43.69073" lon="3.8622">
        <ele>60.6</ele>
        <time>2024-04-19T08:34:29.237Z</time>
      </trkpt>
      <trkpt lat="43.69081" lon="3.86222">
        <ele>60.9</ele>
        <time>2024-04-19T08:34:32.538Z</time>
      </trkpt>
      <trkpt lat="43.69089" lon="3.86233">
        <ele>61.6</ele>
        <time>2024-04-19T08:34:37.512Z</time>
      </trkpt>
      <trkpt lat="43.69091" lon="3.86246">
        <ele>62.1</ele>
        <time>2024-04-19T08:34:41.612Z</time>
      </trkpt>
      <trkpt lat="43.69092" lon="3.86253">
        <ele>62.4</ele>
        <time>2024-04-19T08:34:43.858Z</time>
      </trkpt>
      <trkpt lat="43.69089" lon="3.86262">
        <ele>62.6</ele>
        <time>2024-04-19T08:34:46.685Z</time>
      </trkpt>
      <trkpt lat="43.68992" lon="3.8626">
        <ele>62.4</ele>
        <time>2024-04-19T08:35:21.534Z</time>
      </trkpt>
      <trkpt lat="43.68646" lon="3.86369">
        <ele>57.5</ele>
        <time>2024-04-19T08:37:24.527Z</time>
      </trkpt>
      <trkpt lat="43.68605" lon="3.86377">
        <ele>57.2</ele>
        <time>2024-04-19T08:37:39.167Z</time>
      </trkpt>
      <trkpt lat="43.6857" lon="3.8638">
        <ele>56.5</ele>
        <time>2024-04-19T08:37:51.097Z</time>
      </trkpt>
      <trkpt lat="43.68535" lon="3.86376">
        <ele>57.4</ele>
        <time>2024-04-19T08:38:04.853Z</time>
      </trkpt>
      <trkpt lat="43.6842" lon="3.86341">
        <ele>58.6</ele>
        <time>2024-04-19T08:38:48.787Z</time>
      </trkpt>
      <trkpt lat="43.68407" lon="3.86334">
        <ele>58.1</ele>
        <time>2024-04-19T08:38:53.315Z</time>
      </trkpt>
      <trkpt lat="43.68401" lon="3.86324">
        <ele>57.5</ele>
        <time>2024-04-19T08:38:56.287Z</time>
      </trkpt>
      <trkpt lat="43.68391" lon="3.86306">
        <ele>56.9</ele>
        <time>2024-04-19T08:39:01.603Z</time>
      </trkpt>
      <trkpt lat="43.68382" lon="3.86299">
        <ele>56.5</ele>
        <time>2024-04-19T08:39:04.925Z</time>
      </trkpt>
      <trkpt lat="43.68367" lon="3.86306">
        <ele>57</ele>
        <time>2024-04-19T08:39:11.245Z</time>
      </trkpt>
      <trkpt lat="43.68361" lon="3.86318">
        <ele>57</ele>
        <time>2024-04-19T08:39:15.059Z</time>
      </trkpt>
      <trkpt lat="43.68362" lon="3.86344">
        <ele>57.8</ele>
        <time>2024-04-19T08:39:22.844Z</time>
      </trkpt>
      <trkpt lat="43.68356" lon="3.8637">
        <ele>59.5</ele>
        <time>2024-04-19T08:39:32.284Z</time>
      </trkpt>
      <trkpt lat="43.68306" lon="3.86433">
        <ele>57.7</ele>
        <time>2024-04-19T08:39:54.845Z</time>
      </trkpt>
      <trkpt lat="43.6821" lon="3.86515">
        <ele>56.4</ele>
        <time>2024-04-19T08:40:34.226Z</time>
      </trkpt>
      <trkpt lat="43.68178" lon="3.8653">
        <ele>55.5</ele>
        <time>2024-04-19T08:40:45.495Z</time>
      </trkpt>
      <trkpt lat="43.68135" lon="3.8654">
        <ele>54.9</ele>
        <time>2024-04-19T08:41:00.609Z</time>
      </trkpt>
      <trkpt lat="43.68099" lon="3.86553">
        <ele>54.9</ele>
        <time>2024-04-19T08:41:14.060Z</time>
      </trkpt>
      <trkpt lat="43.68044" lon="3.86584">
        <ele>55</ele>
        <time>2024-04-19T08:41:35.644Z</time>
      </trkpt>
      <trkpt lat="43.68037" lon="3.86586">
        <ele>55</ele>
        <time>2024-04-19T08:41:38.228Z</time>
      </trkpt>
      <trkpt lat="43.68032" lon="3.86591">
        <ele>55</ele>
        <time>2024-04-19T08:41:40.458Z</time>
      </trkpt>
      <trkpt lat="43.6803" lon="3.86599">
        <ele>55</ele>
        <time>2024-04-19T08:41:42.671Z</time>
      </trkpt>
      <trkpt lat="43.68036" lon="3.86618">
        <ele>55.2</ele>
        <time>2024-04-19T08:41:48.321Z</time>
      </trkpt>
      <trkpt lat="43.68043" lon="3.86649">
        <ele>56</ele>
        <time>2024-04-19T08:41:57.771Z</time>
      </trkpt>
      <trkpt lat="43.68036" lon="3.86669">
        <ele>56.2</ele>
        <time>2024-04-19T08:42:03.809Z</time>
      </trkpt>
      <trkpt lat="43.6802" lon="3.86687">
        <ele>57.3</ele>
        <time>2024-04-19T08:42:12.645Z</time>
      </trkpt>
      <trkpt lat="43.68013" lon="3.86705">
        <ele>58.4</ele>
        <time>2024-04-19T08:42:19.439Z</time>
      </trkpt>
      <trkpt lat="43.68031" lon="3.86724">
        <ele>61.1</ele>
        <time>2024-04-19T08:42:31.600Z</time>
      </trkpt>
      <trkpt lat="43.68036" lon="3.86729">
        <ele>61.6</ele>
        <time>2024-04-19T08:42:34.500Z</time>
      </trkpt>
      <trkpt lat="43.68041" lon="3.86739">
        <ele>62.5</ele>
        <time>2024-04-19T08:42:38.949Z</time>
      </trkpt>
      <trkpt lat="43.68042" lon="3.86753">
        <ele>63.8</ele>
        <time>2024-04-19T08:42:44.583Z</time>
      </trkpt>
      <trkpt lat="43.68035" lon="3.86764">
        <ele>64.8</ele>
        <time>2024-04-19T08:42:49.797Z</time>
      </trkpt>
      <trkpt lat="43.6803" lon="3.86778">
        <ele>66.1</ele>
        <time>2024-04-19T08:42:55.773Z</time>
      </trkpt>
      <trkpt lat="43.68026" lon="3.86786">
        <ele>67</ele>
        <time>2024-04-19T08:42:59.671Z</time>
      </trkpt>
      <trkpt lat="43.6802" lon="3.86797">
        <ele>68</ele>
        <time>2024-04-19T08:43:04.677Z</time>
      </trkpt>
      <trkpt lat="43.68017" lon="3.86805">
        <ele>68.8</ele>
        <time>2024-04-19T08:43:08.221Z</time>
      </trkpt>
      <trkpt lat="43.68014" lon="3.86814">
        <ele>70</ele>
        <time>2024-04-19T08:43:12.816Z</time>
      </trkpt>
      <trkpt lat="43.6801" lon="3.86824">
        <ele>71.2</ele>
        <time>2024-04-19T08:43:17.693Z</time>
      </trkpt>
      <trkpt lat="43.68006" lon="3.86828">
        <ele>71.2</ele>
        <time>2024-04-19T08:43:19.478Z</time>
      </trkpt>
      <trkpt lat="43.67995" lon="3.86835">
        <ele>70.3</ele>
        <time>2024-04-19T08:43:23.308Z</time>
      </trkpt>
      <trkpt lat="43.67982" lon="3.86846">
        <ele>69.3</ele>
        <time>2024-04-19T08:43:28.129Z</time>
      </trkpt>
      <trkpt lat="43.67967" lon="3.86864">
        <ele>68.9</ele>
        <time>2024-04-19T08:43:34.883Z</time>
      </trkpt>
      <trkpt lat="43.67948" lon="3.8689">
        <ele>69.8</ele>
        <time>2024-04-19T08:43:45.625Z</time>
      </trkpt>
      <trkpt lat="43.67936" lon="3.86897">
        <ele>69.5</ele>
        <time>2024-04-19T08:43:50.016Z</time>
      </trkpt>
      <trkpt lat="43.67916" lon="3.86911">
        <ele>69.4</ele>
        <time>2024-04-19T08:43:58.009Z</time>
      </trkpt>
      <trkpt lat="43.67907" lon="3.86922">
        <ele>70.5</ele>
        <time>2024-04-19T08:44:03.863Z</time>
      </trkpt>
      <trkpt lat="43.67904" lon="3.86929">
        <ele>71.5</ele>
        <time>2024-04-19T08:44:07.672Z</time>
      </trkpt>
      <trkpt lat="43.67898" lon="3.86934">
        <ele>72.2</ele>
        <time>2024-04-19T08:44:11.186Z</time>
      </trkpt>
      <trkpt lat="43.67892" lon="3.86938">
        <ele>72.9</ele>
        <time>2024-04-19T08:44:14.589Z</time>
      </trkpt>
      <trkpt lat="43.67882" lon="3.86946">
        <ele>75.2</ele>
        <time>2024-04-19T08:44:22.955Z</time>
      </trkpt>
      <trkpt lat="43.67873" lon="3.86943">
        <ele>76</ele>
        <time>2024-04-19T08:44:27.387Z</time>
      </trkpt>
      <trkpt lat="43.67873" lon="3.86954">
        <ele>77.5</ele>
        <time>2024-04-19T08:44:32.917Z</time>
      </trkpt>
      <trkpt lat="43.6788" lon="3.86965">
        <ele>78</ele>
        <time>2024-04-19T08:44:37.366Z</time>
      </trkpt>
      <trkpt lat="43.67883" lon="3.86973">
        <ele>78.7</ele>
        <time>2024-04-19T08:44:40.722Z</time>
      </trkpt>
      <trkpt lat="43.67879" lon="3.86994">
        <ele>79.3</ele>
        <time>2024-04-19T08:44:47.127Z</time>
      </trkpt>
      <trkpt lat="43.67875" lon="3.87001">
        <ele>79.4</ele>
        <time>2024-04-19T08:44:49.574Z</time>
      </trkpt>
      <trkpt lat="43.67869" lon="3.87007">
        <ele>79.3</ele>
        <time>2024-04-19T08:44:52.143Z</time>
      </trkpt>
      <trkpt lat="43.67855" lon="3.87022">
        <ele>78.9</ele>
        <time>2024-04-19T08:44:58.122Z</time>
      </trkpt>
      <trkpt lat="43.67843" lon="3.87031">
        <ele>79</ele>
        <time>2024-04-19T08:45:03.170Z</time>
      </trkpt>
      <trkpt lat="43.67827" lon="3.87042">
        <ele>78.5</ele>
        <time>2024-04-19T08:45:09.105Z</time>
      </trkpt>
      <trkpt lat="43.67819" lon="3.87049">
        <ele>77.7</ele>
        <time>2024-04-19T08:45:12.100Z</time>
      </trkpt>
      <trkpt lat="43.67806" lon="3.87064">
        <ele>76.4</ele>
        <time>2024-04-19T08:45:17.456Z</time>
      </trkpt>
      <trkpt lat="43.67801" lon="3.8707">
        <ele>75.7</ele>
        <time>2024-04-19T08:45:19.550Z</time>
      </trkpt>
      <trkpt lat="43.67787" lon="3.87092">
        <ele>73.9</ele>
        <time>2024-04-19T08:45:26.254Z</time>
      </trkpt>
      <trkpt lat="43.67781" lon="3.87098">
        <ele>73.5</ele>
        <time>2024-04-19T08:45:28.596Z</time>
      </trkpt>
      <trkpt lat="43.67772" lon="3.87111">
        <ele>71.1</ele>
        <time>2024-04-19T08:45:32.714Z</time>
      </trkpt>
      <trkpt lat="43.67762" lon="3.87134">
        <ele>67.2</ele>
        <time>2024-04-19T08:45:38.853Z</time>
      </trkpt>
      <trkpt lat="43.67764" lon="3.87142">
        <ele>67.4</ele>
        <time>2024-04-19T08:45:41.305Z</time>
      </trkpt>
      <trkpt lat="43.67769" lon="3.87165">
        <ele>67.2</ele>
        <time>2024-04-19T08:45:47.367Z</time>
      </trkpt>
      <trkpt lat="43.6777" lon="3.87184">
        <ele>66.2</ele>
        <time>2024-04-19T08:45:51.726Z</time>
      </trkpt>
      <trkpt lat="43.6777" lon="3.87194">
        <ele>65.6</ele>
        <time>2024-04-19T08:45:54.013Z</time>
      </trkpt>
      <trkpt lat="43.67765" lon="3.87218">
        <ele>64.6</ele>
        <time>2024-04-19T08:45:59.727Z</time>
      </trkpt>
      <trkpt lat="43.67761" lon="3.87228">
        <ele>63.9</ele>
        <time>2024-04-19T08:46:02.342Z</time>
      </trkpt>
      <trkpt lat="43.67754" lon="3.87231">
        <ele>63.3</ele>
        <time>2024-04-19T08:46:04.660Z</time>
      </trkpt>
      <trkpt lat="43.67744" lon="3.87234">
        <ele>62.4</ele>
        <time>2024-04-19T08:46:07.897Z</time>
      </trkpt>
      <trkpt lat="43.67741" lon="3.87244">
        <ele>61.4</ele>
        <time>2024-04-19T08:46:10.373Z</time>
      </trkpt>
      <trkpt lat="43.67738" lon="3.87269">
        <ele>61</ele>
        <time>2024-04-19T08:46:16.574Z</time>
      </trkpt>
      <trkpt lat="43.67735" lon="3.87282">
        <ele>61.2</ele>
        <time>2024-04-19T08:46:20.375Z</time>
      </trkpt>
      <trkpt lat="43.67734" lon="3.87293">
        <ele>61.5</ele>
        <time>2024-04-19T08:46:23.636Z</time>
      </trkpt>
      <trkpt lat="43.67734" lon="3.87302">
        <ele>61.9</ele>
        <time>2024-04-19T08:46:26.501Z</time>
      </trkpt>
      <trkpt lat="43.67735" lon="3.87321">
        <ele>62.6</ele>
        <time>2024-04-19T08:46:32.354Z</time>
      </trkpt>
      <trkpt lat="43.6773" lon="3.87346">
        <ele>63.7</ele>
        <time>2024-04-19T08:46:40.533Z</time>
      </trkpt>
      <trkpt lat="43.67718" lon="3.8737">
        <ele>65.6</ele>
        <time>2024-04-19T08:46:50.762Z</time>
      </trkpt>
      <trkpt lat="43.6771" lon="3.8739">
        <ele>67.4</ele>
        <time>2024-04-19T08:46:59.319Z</time>
      </trkpt>
      <trkpt lat="43.67707" lon="3.87396">
        <ele>67.9</ele>
        <time>2024-04-19T08:47:01.919Z</time>
      </trkpt>
      <trkpt lat="43.67698" lon="3.87414">
        <ele>69.5</ele>
        <time>2024-04-19T08:47:09.891Z</time>
      </trkpt>
      <trkpt lat="43.67693" lon="3.87421">
        <ele>70.4</ele>
        <time>2024-04-19T08:47:13.813Z</time>
      </trkpt>
      <trkpt lat="43.6769" lon="3.87429">
        <ele>71.1</ele>
        <time>2024-04-19T08:47:17.169Z</time>
      </trkpt>
      <trkpt lat="43.67686" lon="3.87453">
        <ele>72.4</ele>
        <time>2024-04-19T08:47:25.316Z</time>
      </trkpt>
      <trkpt lat="43.67685" lon="3.87462">
        <ele>72.8</ele>
        <time>2024-04-19T08:47:28.208Z</time>
      </trkpt>
      <trkpt lat="43.67683" lon="3.87474">
        <ele>73.3</ele>
        <time>2024-04-19T08:47:32.059Z</time>
      </trkpt>
      <trkpt lat="43.6768" lon="3.87483">
        <ele>73.8</ele>
        <time>2024-04-19T08:47:35.301Z</time>
      </trkpt>
      <trkpt lat="43.67661" lon="3.87513">
        <ele>76.7</ele>
        <time>2024-04-19T08:47:49.801Z</time>
      </trkpt>
      <trkpt lat="43.67657" lon="3.87521">
        <ele>77.3</ele>
        <time>2024-04-19T08:47:53.156Z</time>
      </trkpt>
      <trkpt lat="43.67644" lon="3.87555">
        <ele>79.1</ele>
        <time>2024-04-19T08:48:05.530Z</time>
      </trkpt>
      <trkpt lat="43.67637" lon="3.8757">
        <ele>80.2</ele>
        <time>2024-04-19T08:48:11.685Z</time>
      </trkpt>
      <trkpt lat="43.67616" lon="3.87595">
        <ele>82.4</ele>
        <time>2024-04-19T08:48:24.638Z</time>
      </trkpt>
      <trkpt lat="43.6761" lon="3.876">
        <ele>83.1</ele>
        <time>2024-04-19T08:48:28.152Z</time>
      </trkpt>
      <trkpt lat="43.67603" lon="3.87603">
        <ele>83.7</ele>
        <time>2024-04-19T08:48:31.607Z</time>
      </trkpt>
      <trkpt lat="43.67598" lon="3.87612">
        <ele>83.9</ele>
        <time>2024-04-19T08:48:34.809Z</time>
      </trkpt>
      <trkpt lat="43.67587" lon="3.87624">
        <ele>84.6</ele>
        <time>2024-04-19T08:48:40.745Z</time>
      </trkpt>
      <trkpt lat="43.67568" lon="3.87643">
        <ele>86.7</ele>
        <time>2024-04-19T08:48:52.093Z</time>
      </trkpt>
      <trkpt lat="43.67561" lon="3.87652">
        <ele>87.4</ele>
        <time>2024-04-19T08:48:56.469Z</time>
      </trkpt>
      <trkpt lat="43.67556" lon="3.87656">
        <ele>88</ele>
        <time>2024-04-19T08:48:59.407Z</time>
      </trkpt>
      <trkpt lat="43.67549" lon="3.87648">
        <ele>88.5</ele>
        <time>2024-04-19T08:49:03.320Z</time>
      </trkpt>
      <trkpt lat="43.67539" lon="3.87646">
        <ele>89.2</ele>
        <time>2024-04-19T08:49:07.884Z</time>
      </trkpt>
      <trkpt lat="43.67532" lon="3.87647">
        <ele>89.7</ele>
        <time>2024-04-19T08:49:11.082Z</time>
      </trkpt>
      <trkpt lat="43.67527" lon="3.87658">
        <ele>90</ele>
        <time>2024-04-19T08:49:14.837Z</time>
      </trkpt>
      <trkpt lat="43.67521" lon="3.87668">
        <ele>90</ele>
        <time>2024-04-19T08:49:18.234Z</time>
      </trkpt>
      <trkpt lat="43.67511" lon="3.8768">
        <ele>90.5</ele>
        <time>2024-04-19T08:49:23.626Z</time>
      </trkpt>
      <trkpt lat="43.67499" lon="3.87708">
        <ele>91.9</ele>
        <time>2024-04-19T08:49:33.917Z</time>
      </trkpt>
      <trkpt lat="43.67495" lon="3.87723">
        <ele>92.7</ele>
        <time>2024-04-19T08:49:39.139Z</time>
      </trkpt>
      <trkpt lat="43.67487" lon="3.87725">
        <ele>92.2</ele>
        <time>2024-04-19T08:49:41.710Z</time>
      </trkpt>
      <trkpt lat="43.67481" lon="3.87736">
        <ele>92.1</ele>
        <time>2024-04-19T08:49:45.204Z</time>
      </trkpt>
      <trkpt lat="43.67478" lon="3.87762">
        <ele>92.5</ele>
        <time>2024-04-19T08:49:52.554Z</time>
      </trkpt>
      <trkpt lat="43.6747" lon="3.87788">
        <ele>91.4</ele>
        <time>2024-04-19T08:49:59.019Z</time>
      </trkpt>
      <trkpt lat="43.67457" lon="3.87797">
        <ele>87.4</ele>
        <time>2024-04-19T08:50:03.617Z</time>
      </trkpt>
      <trkpt lat="43.67452" lon="3.87801">
        <ele>85.7</ele>
        <time>2024-04-19T08:50:05.445Z</time>
      </trkpt>
      <trkpt lat="43.67452" lon="3.87815">
        <ele>84.9</ele>
        <time>2024-04-19T08:50:08.648Z</time>
      </trkpt>
      <trkpt lat="43.67456" lon="3.87836">
        <ele>85.2</ele>
        <time>2024-04-19T08:50:14.674Z</time>
      </trkpt>
      <trkpt lat="43.67454" lon="3.87871">
        <ele>84.7</ele>
        <time>2024-04-19T08:50:23.320Z</time>
      </trkpt>
      <trkpt lat="43.67444" lon="3.87875">
        <ele>81.6</ele>
        <time>2024-04-19T08:50:26.613Z</time>
      </trkpt>
      <trkpt lat="43.67434" lon="3.87869">
        <ele>83.8</ele>
        <time>2024-04-19T08:50:34.592Z</time>
      </trkpt>
      <trkpt lat="43.6743" lon="3.87862">
        <ele>84.2</ele>
        <time>2024-04-19T08:50:37.437Z</time>
      </trkpt>
      <trkpt lat="43.67424" lon="3.8785">
        <ele>84.2</ele>
        <time>2024-04-19T08:50:41.251Z</time>
      </trkpt>
      <trkpt lat="43.67417" lon="3.87847">
        <ele>84.9</ele>
        <time>2024-04-19T08:50:44.872Z</time>
      </trkpt>
      <trkpt lat="43.67412" lon="3.87848">
        <ele>85.8</ele>
        <time>2024-04-19T08:50:48.246Z</time>
      </trkpt>
      <trkpt lat="43.67376" lon="3.8789">
        <ele>93.5</ele>
        <time>2024-04-19T08:51:17.998Z</time>
      </trkpt>
      <trkpt lat="43.67366" lon="3.87901">
        <ele>95.4</ele>
        <time>2024-04-19T08:51:25.636Z</time>
      </trkpt>
      <trkpt lat="43.67361" lon="3.87906">
        <ele>96.2</ele>
        <time>2024-04-19T08:51:29.077Z</time>
      </trkpt>
      <trkpt lat="43.67357" lon="3.87911">
        <ele>97.1</ele>
        <time>2024-04-19T08:51:32.527Z</time>
      </trkpt>
      <trkpt lat="43.67351" lon="3.87924">
        <ele>98.5</ele>
        <time>2024-04-19T08:51:38.654Z</time>
      </trkpt>
      <trkpt lat="43.67353" lon="3.87937">
        <ele>99.1</ele>
        <time>2024-04-19T08:51:42.898Z</time>
      </trkpt>
      <trkpt lat="43.67323" lon="3.87965">
        <ele>103.7</ele>
        <time>2024-04-19T08:52:02.892Z</time>
      </trkpt>
      <trkpt lat="43.67328" lon="3.87974">
        <ele>103.8</ele>
        <time>2024-04-19T08:52:05.973Z</time>
      </trkpt>
      <trkpt lat="43.67325" lon="3.87979">
        <ele>104.6</ele>
        <time>2024-04-19T08:52:09.018Z</time>
      </trkpt>
      <trkpt lat="43.67318" lon="3.87984">
        <ele>105.7</ele>
        <time>2024-04-19T08:52:13.573Z</time>
      </trkpt>
      <trkpt lat="43.67313" lon="3.8798">
        <ele>105.8</ele>
        <time>2024-04-19T08:52:15.777Z</time>
      </trkpt>
      <trkpt lat="43.673" lon="3.87972">
        <ele>106.8</ele>
        <time>2024-04-19T08:52:22.226Z</time>
      </trkpt>
      <trkpt lat="43.67293" lon="3.87966">
        <ele>107.6</ele>
        <time>2024-04-19T08:52:26.318Z</time>
      </trkpt>
      <trkpt lat="43.67286" lon="3.87958">
        <ele>108.3</ele>
        <time>2024-04-19T08:52:30.530Z</time>
      </trkpt>
      <trkpt lat="43.67283" lon="3.87951">
        <ele>108.5</ele>
        <time>2024-04-19T08:52:32.897Z</time>
      </trkpt>
      <trkpt lat="43.67277" lon="3.87948">
        <ele>109.2</ele>
        <time>2024-04-19T08:52:36.210Z</time>
      </trkpt>
      <trkpt lat="43.67271" lon="3.87952">
        <ele>109.8</ele>
        <time>2024-04-19T08:52:39.439Z</time>
      </trkpt>
      <trkpt lat="43.67246" lon="3.87976">
        <ele>113.4</ele>
        <time>2024-04-19T08:52:55.729Z</time>
      </trkpt>
      <trkpt lat="43.67245" lon="3.87988">
        <ele>114.3</ele>
        <time>2024-04-19T08:53:00.160Z</time>
      </trkpt>
      <trkpt lat="43.67236" lon="3.88012">
        <ele>116.2</ele>
        <time>2024-04-19T08:53:09.875Z</time>
      </trkpt>
      <trkpt lat="43.67228" lon="3.88013">
        <ele>116.4</ele>
        <time>2024-04-19T08:53:13.014Z</time>
      </trkpt>
      <trkpt lat="43.67218" lon="3.88017">
        <ele>116.4</ele>
        <time>2024-04-19T08:53:16.777Z</time>
      </trkpt>
      <trkpt lat="43.67212" lon="3.88012">
        <ele>115.9</ele>
        <time>2024-04-19T08:53:18.993Z</time>
      </trkpt>
      <trkpt lat="43.67202" lon="3.87996">
        <ele>115.1</ele>
        <time>2024-04-19T08:53:23.832Z</time>
      </trkpt>
      <trkpt lat="43.67194" lon="3.87988">
        <ele>114.5</ele>
        <time>2024-04-19T08:53:26.955Z</time>
      </trkpt>
      <trkpt lat="43.67182" lon="3.87979">
        <ele>113.6</ele>
        <time>2024-04-19T08:53:31.273Z</time>
      </trkpt>
      <trkpt lat="43.67176" lon="3.87974">
        <ele>113.3</ele>
        <time>2024-04-19T08:53:33.501Z</time>
      </trkpt>
      <trkpt lat="43.67161" lon="3.87955">
        <ele>111.9</ele>
        <time>2024-04-19T08:53:39.936Z</time>
      </trkpt>
      <trkpt lat="43.67157" lon="3.87947">
        <ele>111.6</ele>
        <time>2024-04-19T08:53:42.174Z</time>
      </trkpt>
      <trkpt lat="43.6715" lon="3.87931">
        <ele>110.5</ele>
        <time>2024-04-19T08:53:46.452Z</time>
      </trkpt>
      <trkpt lat="43.67132" lon="3.87885">
        <ele>109.2</ele>
        <time>2024-04-19T08:53:58.782Z</time>
      </trkpt>
      <trkpt lat="43.67127" lon="3.87855">
        <ele>109.4</ele>
        <time>2024-04-19T08:54:07.059Z</time>
      </trkpt>
      <trkpt lat="43.67124" lon="3.87846">
        <ele>109.5</ele>
        <time>2024-04-19T08:54:09.765Z</time>
      </trkpt>
      <trkpt lat="43.67121" lon="3.87814">
        <ele>109.6</ele>
        <time>2024-04-19T08:54:18.315Z</time>
      </trkpt>
      <trkpt lat="43.6712" lon="3.87783">
        <ele>109.9</ele>
        <time>2024-04-19T08:54:26.773Z</time>
      </trkpt>
      <trkpt lat="43.67109" lon="3.87718">
        <ele>110.8</ele>
        <time>2024-04-19T08:54:45.272Z</time>
      </trkpt>
      <trkpt lat="43.67105" lon="3.8769">
        <ele>110.6</ele>
        <time>2024-04-19T08:54:52.517Z</time>
      </trkpt>
      <trkpt lat="43.67104" lon="3.87677">
        <ele>110.6</ele>
        <time>2024-04-19T08:54:55.935Z</time>
      </trkpt>
      <trkpt lat="43.67103" lon="3.8767">
        <ele>110.7</ele>
        <time>2024-04-19T08:54:57.917Z</time>
      </trkpt>
      <trkpt lat="43.67094" lon="3.87629">
        <ele>111</ele>
        <time>2024-04-19T08:55:09.462Z</time>
      </trkpt>
      <trkpt lat="43.67083" lon="3.87563">
        <ele>111</ele>
        <time>2024-04-19T08:55:27.172Z</time>
      </trkpt>
      <trkpt lat="43.67082" lon="3.87553">
        <ele>111</ele>
        <time>2024-04-19T08:55:29.812Z</time>
      </trkpt>
      <trkpt lat="43.67082" lon="3.87522">
        <ele>111.2</ele>
        <time>2024-04-19T08:55:38.145Z</time>
      </trkpt>
      <trkpt lat="43.67083" lon="3.87507">
        <ele>111.7</ele>
        <time>2024-04-19T08:55:42.700Z</time>
      </trkpt>
      <trkpt lat="43.67087" lon="3.8742">
        <ele>113.9</ele>
        <time>2024-04-19T08:56:08.140Z</time>
      </trkpt>
      <trkpt lat="43.67086" lon="3.87394">
        <ele>114.8</ele>
        <time>2024-04-19T08:56:16.063Z</time>
      </trkpt>
      <trkpt lat="43.67083" lon="3.87362">
        <ele>115</ele>
        <time>2024-04-19T08:56:24.727Z</time>
      </trkpt>
      <trkpt lat="43.67078" lon="3.87349">
        <ele>114.9</ele>
        <time>2024-04-19T08:56:28.468Z</time>
      </trkpt>
      <trkpt lat="43.67075" lon="3.87336">
        <ele>115</ele>
        <time>2024-04-19T08:56:32.150Z</time>
      </trkpt>
      <trkpt lat="43.67073" lon="3.87312">
        <ele>114.5</ele>
        <time>2024-04-19T08:56:37.944Z</time>
      </trkpt>
      <trkpt lat="43.67076" lon="3.87299">
        <ele>114</ele>
        <time>2024-04-19T08:56:41.066Z</time>
      </trkpt>
      <trkpt lat="43.67081" lon="3.87249">
        <ele>111.9</ele>
        <time>2024-04-19T08:56:52.615Z</time>
      </trkpt>
      <trkpt lat="43.67077" lon="3.87232">
        <ele>110.2</ele>
        <time>2024-04-19T08:56:56.705Z</time>
      </trkpt>
      <trkpt lat="43.67073" lon="3.87225">
        <ele>109.6</ele>
        <time>2024-04-19T08:56:58.746Z</time>
      </trkpt>
      <trkpt lat="43.67058" lon="3.87192">
        <ele>107.6</ele>
        <time>2024-04-19T08:57:07.664Z</time>
      </trkpt>
      <trkpt lat="43.67047" lon="3.87172">
        <ele>106.6</ele>
        <time>2024-04-19T08:57:13.412Z</time>
      </trkpt>
      <trkpt lat="43.67039" lon="3.87161">
        <ele>106.4</ele>
        <time>2024-04-19T08:57:17.277Z</time>
      </trkpt>
      <trkpt lat="43.67025" lon="3.87144">
        <ele>106.9</ele>
        <time>2024-04-19T08:57:24.603Z</time>
      </trkpt>
      <trkpt lat="43.67018" lon="3.87136">
        <ele>106.5</ele>
        <time>2024-04-19T08:57:27.481Z</time>
      </trkpt>
      <trkpt lat="43.67011" lon="3.87129">
        <ele>105.9</ele>
        <time>2024-04-19T08:57:30.214Z</time>
      </trkpt>
      <trkpt lat="43.66996" lon="3.87123">
        <ele>105.4</ele>
        <time>2024-04-19T08:57:35.339Z</time>
      </trkpt>
      <trkpt lat="43.66968" lon="3.87116">
        <ele>105.5</ele>
        <time>2024-04-19T08:57:45.737Z</time>
      </trkpt>
      <trkpt lat="43.66955" lon="3.87121">
        <ele>106.4</ele>
        <time>2024-04-19T08:57:51.780Z</time>
      </trkpt>
      <trkpt lat="43.66942" lon="3.87119">
        <ele>107.2</ele>
        <time>2024-04-19T08:57:57.530Z</time>
      </trkpt>
      <trkpt lat="43.66935" lon="3.87115">
        <ele>107.7</ele>
        <time>2024-04-19T08:58:00.915Z</time>
      </trkpt>
      <trkpt lat="43.66929" lon="3.87114">
        <ele>108.1</ele>
        <time>2024-04-19T08:58:03.616Z</time>
      </trkpt>
      <trkpt lat="43.66912" lon="3.87104">
        <ele>108.4</ele>
        <time>2024-04-19T08:58:10.641Z</time>
      </trkpt>
      <trkpt lat="43.66892" lon="3.87083">
        <ele>106.8</ele>
        <time>2024-04-19T08:58:18.586Z</time>
      </trkpt>
      <trkpt lat="43.66886" lon="3.8708">
        <ele>106.3</ele>
        <time>2024-04-19T08:58:20.604Z</time>
      </trkpt>
      <trkpt lat="43.66876" lon="3.87072">
        <ele>104.6</ele>
        <time>2024-04-19T08:58:24.258Z</time>
      </trkpt>
      <trkpt lat="43.66851" lon="3.87062">
        <ele>101.9</ele>
        <time>2024-04-19T08:58:32.491Z</time>
      </trkpt>
      <trkpt lat="43.66844" lon="3.87055">
        <ele>100.3</ele>
        <time>2024-04-19T08:58:35.224Z</time>
      </trkpt>
      <trkpt lat="43.668" lon="3.87037">
        <ele>93.7</ele>
        <time>2024-04-19T08:58:49.738Z</time>
      </trkpt>
      <trkpt lat="43.66793" lon="3.87034">
        <ele>92.5</ele>
        <time>2024-04-19T08:58:52.057Z</time>
      </trkpt>
      <trkpt lat="43.6679" lon="3.87024">
        <ele>90.5</ele>
        <time>2024-04-19T08:58:54.534Z</time>
      </trkpt>
      <trkpt lat="43.66785" lon="3.8702">
        <ele>89.2</ele>
        <time>2024-04-19T08:58:56.361Z</time>
      </trkpt>
      <trkpt lat="43.66778" lon="3.87016">
        <ele>87.9</ele>
        <time>2024-04-19T08:58:58.757Z</time>
      </trkpt>
      <trkpt lat="43.66765" lon="3.87005">
        <ele>84.8</ele>
        <time>2024-04-19T08:59:03.578Z</time>
      </trkpt>
      <trkpt lat="43.66757" lon="3.87005">
        <ele>84.1</ele>
        <time>2024-04-19T08:59:06.109Z</time>
      </trkpt>
      <trkpt lat="43.66752" lon="3.87001">
        <ele>83.3</ele>
        <time>2024-04-19T08:59:07.936Z</time>
      </trkpt>
      <trkpt lat="43.66736" lon="3.86981">
        <ele>80.6</ele>
        <time>2024-04-19T08:59:14.760Z</time>
      </trkpt>
      <trkpt lat="43.66732" lon="3.86975">
        <ele>80.2</ele>
        <time>2024-04-19T08:59:16.627Z</time>
      </trkpt>
      <trkpt lat="43.66725" lon="3.86961">
        <ele>79.5</ele>
        <time>2024-04-19T08:59:20.521Z</time>
      </trkpt>
      <trkpt lat="43.66719" lon="3.86963">
        <ele>79.3</ele>
        <time>2024-04-19T08:59:22.544Z</time>
      </trkpt>
      <trkpt lat="43.6671" lon="3.86956">
        <ele>78.1</ele>
        <time>2024-04-19T08:59:25.811Z</time>
      </trkpt>
      <trkpt lat="43.66701" lon="3.86946">
        <ele>76.8</ele>
        <time>2024-04-19T08:59:29.463Z</time>
      </trkpt>
      <trkpt lat="43.66656" lon="3.86919">
        <ele>72.2</ele>
        <time>2024-04-19T08:59:44.981Z</time>
      </trkpt>
      <trkpt lat="43.66644" lon="3.86904">
        <ele>71.4</ele>
        <time>2024-04-19T08:59:50.098Z</time>
      </trkpt>
      <trkpt lat="43.66637" lon="3.86881">
        <ele>70.5</ele>
        <time>2024-04-19T08:59:55.808Z</time>
      </trkpt>
      <trkpt lat="43.6664" lon="3.86873">
        <ele>70.5</ele>
        <time>2024-04-19T08:59:58.164Z</time>
      </trkpt>
      <trkpt lat="43.66645" lon="3.86866">
        <ele>70.6</ele>
        <time>2024-04-19T09:00:00.852Z</time>
      </trkpt>
      <trkpt lat="43.6664" lon="3.86857">
        <ele>69.8</ele>
        <time>2024-04-19T09:00:03.448Z</time>
      </trkpt>
      <trkpt lat="43.66636" lon="3.86852">
        <ele>68.9</ele>
        <time>2024-04-19T09:00:05.154Z</time>
      </trkpt>
      <trkpt lat="43.66629" lon="3.86846">
        <ele>67.5</ele>
        <time>2024-04-19T09:00:07.759Z</time>
      </trkpt>
      <trkpt lat="43.66617" lon="3.86839">
        <ele>65.3</ele>
        <time>2024-04-19T09:00:11.879Z</time>
      </trkpt>
      <trkpt lat="43.6661" lon="3.86839">
        <ele>64.4</ele>
        <time>2024-04-19T09:00:14.094Z</time>
      </trkpt>
      <trkpt lat="43.66605" lon="3.86834">
        <ele>64</ele>
        <time>2024-04-19T09:00:16.046Z</time>
      </trkpt>
      <trkpt lat="43.66598" lon="3.86831">
        <ele>63.8</ele>
        <time>2024-04-19T09:00:18.485Z</time>
      </trkpt>
      <trkpt lat="43.66595" lon="3.86824">
        <ele>63.2</ele>
        <time>2024-04-19T09:00:20.347Z</time>
      </trkpt>
      <trkpt lat="43.66582" lon="3.86812">
        <ele>62.6</ele>
        <time>2024-04-19T09:00:25.382Z</time>
      </trkpt>
      <trkpt lat="43.66573" lon="3.86808">
        <ele>63.3</ele>
        <time>2024-04-19T09:00:29.721Z</time>
      </trkpt>
      <trkpt lat="43.66565" lon="3.86811">
        <ele>64.2</ele>
        <time>2024-04-19T09:00:34.008Z</time>
      </trkpt>
      <trkpt lat="43.66569" lon="3.86824">
        <ele>64.5</ele>
        <time>2024-04-19T09:00:38.058Z</time>
      </trkpt>
      <trkpt lat="43.6657" lon="3.86847">
        <ele>66.2</ele>
        <time>2024-04-19T09:00:46.480Z</time>
      </trkpt>
      <trkpt lat="43.66573" lon="3.86864">
        <ele>67.4</ele>
        <time>2024-04-19T09:00:52.718Z</time>
      </trkpt>
      <trkpt lat="43.66578" lon="3.86881">
        <ele>68.1</ele>
        <time>2024-04-19T09:00:58.394Z</time>
      </trkpt>
      <trkpt lat="43.66584" lon="3.86893">
        <ele>68.1</ele>
        <time>2024-04-19T09:01:02.209Z</time>
      </trkpt>
      <trkpt lat="43.66588" lon="3.86908">
        <ele>68.7</ele>
        <time>2024-04-19T09:01:07.139Z</time>
      </trkpt>
      <trkpt lat="43.66581" lon="3.86905">
        <ele>69</ele>
        <time>2024-04-19T09:01:10.155Z</time>
      </trkpt>
      <trkpt lat="43.66573" lon="3.86892">
        <ele>69.7</ele>
        <time>2024-04-19T09:01:15.503Z</time>
      </trkpt>
      <trkpt lat="43.66537" lon="3.86853">
        <ele>70.8</ele>
        <time>2024-04-19T09:01:33.328Z</time>
      </trkpt>
      <trkpt lat="43.6652" lon="3.86844">
        <ele>71.9</ele>
        <time>2024-04-19T09:01:41.311Z</time>
      </trkpt>
      <trkpt lat="43.66497" lon="3.8684">
        <ele>73.3</ele>
        <time>2024-04-19T09:01:51.477Z</time>
      </trkpt>
      <trkpt lat="43.66493" lon="3.86845">
        <ele>74.4</ele>
        <time>2024-04-19T09:01:55.457Z</time>
      </trkpt>
      <trkpt lat="43.66491" lon="3.86852">
        <ele>75.7</ele>
        <time>2024-04-19T09:02:00.076Z</time>
      </trkpt>
      <trkpt lat="43.66486" lon="3.86862">
        <ele>77.6</ele>
        <time>2024-04-19T09:02:06.885Z</time>
      </trkpt>
      <trkpt lat="43.66482" lon="3.8695">
        <ele>88.6</ele>
        <time>2024-04-19T09:02:48.567Z</time>
      </trkpt>
      <trkpt lat="43.66481" lon="3.86959">
        <ele>89.6</ele>
        <time>2024-04-19T09:02:52.550Z</time>
      </trkpt>
      <trkpt lat="43.66482" lon="3.86975">
        <ele>91.2</ele>
        <time>2024-04-19T09:02:59.220Z</time>
      </trkpt>
      <trkpt lat="43.66487" lon="3.86995">
        <ele>92.6</ele>
        <time>2024-04-19T09:03:06.677Z</time>
      </trkpt>
      <trkpt lat="43.66483" lon="3.87048">
        <ele>95.4</ele>
        <time>2024-04-19T09:03:24.287Z</time>
      </trkpt>
      <trkpt lat="43.6648" lon="3.87057">
        <ele>95.7</ele>
        <time>2024-04-19T09:03:27.245Z</time>
      </trkpt>
      <trkpt lat="43.66458" lon="3.87071">
        <ele>95.3</ele>
        <time>2024-04-19T09:03:35.571Z</time>
      </trkpt>
      <trkpt lat="43.66447" lon="3.87085">
        <ele>95</ele>
        <time>2024-04-19T09:03:40.656Z</time>
      </trkpt>
      <trkpt lat="43.6644" lon="3.87087">
        <ele>94.5</ele>
        <time>2024-04-19T09:03:42.917Z</time>
      </trkpt>
      <trkpt lat="43.66433" lon="3.8709">
        <ele>93.8</ele>
        <time>2024-04-19T09:03:45.235Z</time>
      </trkpt>
      <trkpt lat="43.66428" lon="3.871">
        <ele>92.9</ele>
        <time>2024-04-19T09:03:48.017Z</time>
      </trkpt>
      <trkpt lat="43.66411" lon="3.87103">
        <ele>91.1</ele>
        <time>2024-04-19T09:03:53.438Z</time>
      </trkpt>
      <trkpt lat="43.66407" lon="3.87109">
        <ele>90.4</ele>
        <time>2024-04-19T09:03:55.305Z</time>
      </trkpt>
      <trkpt lat="43.66402" lon="3.87116">
        <ele>89.5</ele>
        <time>2024-04-19T09:03:57.556Z</time>
      </trkpt>
      <trkpt lat="43.66397" lon="3.87121">
        <ele>88.6</ele>
        <time>2024-04-19T09:03:59.508Z</time>
      </trkpt>
      <trkpt lat="43.66393" lon="3.87125">
        <ele>87.9</ele>
        <time>2024-04-19T09:04:01.070Z</time>
      </trkpt>
      <trkpt lat="43.66384" lon="3.87135">
        <ele>86.1</ele>
        <time>2024-04-19T09:04:04.722Z</time>
      </trkpt>
      <trkpt lat="43.66378" lon="3.87139">
        <ele>85.2</ele>
        <time>2024-04-19T09:04:06.830Z</time>
      </trkpt>
      <trkpt lat="43.6637" lon="3.87136">
        <ele>85</ele>
        <time>2024-04-19T09:04:09.615Z</time>
      </trkpt>
      <trkpt lat="43.66363" lon="3.87129">
        <ele>85.2</ele>
        <time>2024-04-19T09:04:12.972Z</time>
      </trkpt>
      <trkpt lat="43.66359" lon="3.87143">
        <ele>83.3</ele>
        <time>2024-04-19T09:04:16.417Z</time>
      </trkpt>
      <trkpt lat="43.66359" lon="3.87154">
        <ele>81.7</ele>
        <time>2024-04-19T09:04:18.934Z</time>
      </trkpt>
      <trkpt lat="43.66352" lon="3.87165">
        <ele>79.6</ele>
        <time>2024-04-19T09:04:22.286Z</time>
      </trkpt>
      <trkpt lat="43.66348" lon="3.8717">
        <ele>78.4</ele>
        <time>2024-04-19T09:04:23.992Z</time>
      </trkpt>
      <trkpt lat="43.66341" lon="3.87168">
        <ele>78.3</ele>
        <time>2024-04-19T09:04:26.468Z</time>
      </trkpt>
      <trkpt lat="43.66334" lon="3.87166">
        <ele>78.2</ele>
        <time>2024-04-19T09:04:28.944Z</time>
      </trkpt>
      <trkpt lat="43.66324" lon="3.87156">
        <ele>80</ele>
        <time>2024-04-19T09:04:36.244Z</time>
      </trkpt>
      <trkpt lat="43.66296" lon="3.87153">
        <ele>80.3</ele>
        <time>2024-04-19T09:04:46.739Z</time>
      </trkpt>
      <trkpt lat="43.66284" lon="3.87154">
        <ele>79.9</ele>
        <time>2024-04-19T09:04:50.670Z</time>
      </trkpt>
      <trkpt lat="43.66277" lon="3.87154">
        <ele>79.8</ele>
        <time>2024-04-19T09:04:53.093Z</time>
      </trkpt>
      <trkpt lat="43.66272" lon="3.87154">
        <ele>79.8</ele>
        <time>2024-04-19T09:04:54.900Z</time>
      </trkpt>
      <trkpt lat="43.66266" lon="3.87154">
        <ele>79.8</ele>
        <time>2024-04-19T09:04:57.069Z</time>
      </trkpt>
      <trkpt lat="43.6625" lon="3.87156">
        <ele>79.5</ele>
        <time>2024-04-19T09:05:02.556Z</time>
      </trkpt>
      <trkpt lat="43.66221" lon="3.87152">
        <ele>78</ele>
        <time>2024-04-19T09:05:11.775Z</time>
      </trkpt>
      <trkpt lat="43.66212" lon="3.87147">
        <ele>78.2</ele>
        <time>2024-04-19T09:05:15.514Z</time>
      </trkpt>
      <trkpt lat="43.66207" lon="3.87142">
        <ele>78.5</ele>
        <time>2024-04-19T09:05:18.118Z</time>
      </trkpt>
      <trkpt lat="43.662" lon="3.87136">
        <ele>78.7</ele>
        <time>2024-04-19T09:05:21.330Z</time>
      </trkpt>
      <trkpt lat="43.66188" lon="3.87132">
        <ele>78.3</ele>
        <time>2024-04-19T09:05:25.377Z</time>
      </trkpt>
      <trkpt lat="43.66179" lon="3.87135">
        <ele>77.3</ele>
        <time>2024-04-19T09:05:28.305Z</time>
      </trkpt>
      <trkpt lat="43.66171" lon="3.87118">
        <ele>78.6</ele>
        <time>2024-04-19T09:05:35.382Z</time>
      </trkpt>
      <trkpt lat="43.66154" lon="3.87089">
        <ele>77.6</ele>
        <time>2024-04-19T09:05:44.115Z</time>
      </trkpt>
      <trkpt lat="43.66144" lon="3.87069">
        <ele>75.5</ele>
        <time>2024-04-19T09:05:49.678Z</time>
      </trkpt>
      <trkpt lat="43.66137" lon="3.87048">
        <ele>73</ele>
        <time>2024-04-19T09:05:54.969Z</time>
      </trkpt>
      <trkpt lat="43.66132" lon="3.87036">
        <ele>71.5</ele>
        <time>2024-04-19T09:05:58.138Z</time>
      </trkpt>
      <trkpt lat="43.66125" lon="3.87025">
        <ele>70.3</ele>
        <time>2024-04-19T09:06:01.491Z</time>
      </trkpt>
      <trkpt lat="43.66119" lon="3.8702">
        <ele>69.7</ele>
        <time>2024-04-19T09:06:03.707Z</time>
      </trkpt>
      <trkpt lat="43.66119" lon="3.8701">
        <ele>69</ele>
        <time>2024-04-19T09:06:05.995Z</time>
      </trkpt>
      <trkpt lat="43.66125" lon="3.87001">
        <ele>68.6</ele>
        <time>2024-04-19T09:06:08.796Z</time>
      </trkpt>
      <trkpt lat="43.66129" lon="3.86994">
        <ele>68.4</ele>
        <time>2024-04-19T09:06:10.921Z</time>
      </trkpt>
      <trkpt lat="43.66138" lon="3.86974">
        <ele>68</ele>
        <time>2024-04-19T09:06:16.657Z</time>
      </trkpt>
      <trkpt lat="43.6615" lon="3.86965">
        <ele>68.5</ele>
        <time>2024-04-19T09:06:22.196Z</time>
      </trkpt>
      <trkpt lat="43.66165" lon="3.86947">
        <ele>69</ele>
        <time>2024-04-19T09:06:29.965Z</time>
      </trkpt>
      <trkpt lat="43.66181" lon="3.86931">
        <ele>69.8</ele>
        <time>2024-04-19T09:06:38.078Z</time>
      </trkpt>
      <trkpt lat="43.6619" lon="3.86914">
        <ele>69.5</ele>
        <time>2024-04-19T09:06:43.267Z</time>
      </trkpt>
      <trkpt lat="43.66215" lon="3.86905">
        <ele>69.9</ele>
        <time>2024-04-19T09:06:53.067Z</time>
      </trkpt>
      <trkpt lat="43.6623" lon="3.86896">
        <ele>69.8</ele>
        <time>2024-04-19T09:06:58.869Z</time>
      </trkpt>
      <trkpt lat="43.66245" lon="3.86891">
        <ele>70</ele>
        <time>2024-04-19T09:07:04.676Z</time>
      </trkpt>
      <trkpt lat="43.66257" lon="3.86882">
        <ele>69.6</ele>
        <time>2024-04-19T09:07:09.193Z</time>
      </trkpt>
      <trkpt lat="43.66274" lon="3.86876">
        <ele>69.5</ele>
        <time>2024-04-19T09:07:15.426Z</time>
      </trkpt>
      <trkpt lat="43.66277" lon="3.86871">
        <ele>69.3</ele>
        <time>2024-04-19T09:07:16.921Z</time>
      </trkpt>
      <trkpt lat="43.6627" lon="3.86835">
        <ele>66.8</ele>
        <time>2024-04-19T09:07:25.451Z</time>
      </trkpt>
      <trkpt lat="43.66264" lon="3.86819">
        <ele>65.7</ele>
        <time>2024-04-19T09:07:29.575Z</time>
      </trkpt>
      <trkpt lat="43.66257" lon="3.86809">
        <ele>65.2</ele>
        <time>2024-04-19T09:07:32.760Z</time>
      </trkpt>
      <trkpt lat="43.66236" lon="3.86783">
        <ele>63.7</ele>
        <time>2024-04-19T09:07:41.677Z</time>
      </trkpt>
      <trkpt lat="43.66231" lon="3.86776">
        <ele>63.3</ele>
        <time>2024-04-19T09:07:43.928Z</time>
      </trkpt>
      <trkpt lat="43.66225" lon="3.86763">
        <ele>62.6</ele>
        <time>2024-04-19T09:07:47.457Z</time>
      </trkpt>
      <trkpt lat="43.66222" lon="3.86752">
        <ele>62.1</ele>
        <time>2024-04-19T09:07:50.147Z</time>
      </trkpt>
      <trkpt lat="43.66225" lon="3.86738">
        <ele>62.1</ele>
        <time>2024-04-19T09:07:53.966Z</time>
      </trkpt>
      <trkpt lat="43.66242" lon="3.86731">
        <ele>62.2</ele>
        <time>2024-04-19T09:08:00.491Z</time>
      </trkpt>
      <trkpt lat="43.66267" lon="3.86731">
        <ele>62.3</ele>
        <time>2024-04-19T09:08:09.641Z</time>
      </trkpt>
      <trkpt lat="43.66293" lon="3.86726">
        <ele>61.6</ele>
        <time>2024-04-19T09:08:18.395Z</time>
      </trkpt>
      <trkpt lat="43.66306" lon="3.86725">
        <ele>61.1</ele>
        <time>2024-04-19T09:08:22.588Z</time>
      </trkpt>
      <trkpt lat="43.66323" lon="3.86735">
        <ele>61.5</ele>
        <time>2024-04-19T09:08:29.734Z</time>
      </trkpt>
      <trkpt lat="43.66332" lon="3.86744">
        <ele>61.8</ele>
        <time>2024-04-19T09:08:34.104Z</time>
      </trkpt>
      <trkpt lat="43.66338" lon="3.86749">
        <ele>62</ele>
        <time>2024-04-19T09:08:36.874Z</time>
      </trkpt>
      <trkpt lat="43.66347" lon="3.86746">
        <ele>61.8</ele>
        <time>2024-04-19T09:08:40.008Z</time>
      </trkpt>
      <trkpt lat="43.66359" lon="3.86728">
        <ele>60.5</ele>
        <time>2024-04-19T09:08:45.609Z</time>
      </trkpt>
      <trkpt lat="43.66366" lon="3.86708">
        <ele>59.3</ele>
        <time>2024-04-19T09:08:50.693Z</time>
      </trkpt>
      <trkpt lat="43.66371" lon="3.86697">
        <ele>58.7</ele>
        <time>2024-04-19T09:08:53.666Z</time>
      </trkpt>
      <trkpt lat="43.66389" lon="3.86676">
        <ele>57.3</ele>
        <time>2024-04-19T09:09:01.117Z</time>
      </trkpt>
      <trkpt lat="43.66413" lon="3.86661">
        <ele>55.3</ele>
        <time>2024-04-19T09:09:09.448Z</time>
      </trkpt>
      <trkpt lat="43.66421" lon="3.8666">
        <ele>54.9</ele>
        <time>2024-04-19T09:09:11.989Z</time>
      </trkpt>
      <trkpt lat="43.66429" lon="3.86669">
        <ele>55.2</ele>
        <time>2024-04-19T09:09:16.074Z</time>
      </trkpt>
      <trkpt lat="43.66442" lon="3.8667">
        <ele>55.2</ele>
        <time>2024-04-19T09:09:20.781Z</time>
      </trkpt>
      <trkpt lat="43.66453" lon="3.86665">
        <ele>54.9</ele>
        <time>2024-04-19T09:09:24.651Z</time>
      </trkpt>
      <trkpt lat="43.66459" lon="3.86667">
        <ele>55</ele>
        <time>2024-04-19T09:09:26.998Z</time>
      </trkpt>
      <trkpt lat="43.66475" lon="3.86669">
        <ele>55.2</ele>
        <time>2024-04-19T09:09:33.034Z</time>
      </trkpt>
      <trkpt lat="43.66481" lon="3.86668">
        <ele>55.1</ele>
        <time>2024-04-19T09:09:35.111Z</time>
      </trkpt>
      <trkpt lat="43.66505" lon="3.8666">
        <ele>54.3</ele>
        <time>2024-04-19T09:09:43.205Z</time>
      </trkpt>
      <trkpt lat="43.66519" lon="3.86651">
        <ele>53.3</ele>
        <time>2024-04-19T09:09:48.089Z</time>
      </trkpt>
      <trkpt lat="43.66527" lon="3.86649">
        <ele>53.1</ele>
        <time>2024-04-19T09:09:50.817Z</time>
      </trkpt>
      <trkpt lat="43.66538" lon="3.86649">
        <ele>52.7</ele>
        <time>2024-04-19T09:09:54.381Z</time>
      </trkpt>
      <trkpt lat="43.66549" lon="3.86647">
        <ele>52.1</ele>
        <time>2024-04-19T09:09:57.890Z</time>
      </trkpt>
      <trkpt lat="43.66558" lon="3.86646">
        <ele>51.7</ele>
        <time>2024-04-19T09:10:00.749Z</time>
      </trkpt>
      <trkpt lat="43.66571" lon="3.86646">
        <ele>51.1</ele>
        <time>2024-04-19T09:10:04.861Z</time>
      </trkpt>
      <trkpt lat="43.66577" lon="3.86645">
        <ele>50.7</ele>
        <time>2024-04-19T09:10:06.773Z</time>
      </trkpt>
      <trkpt lat="43.66601" lon="3.86646">
        <ele>50.3</ele>
        <time>2024-04-19T09:10:15.023Z</time>
      </trkpt>
      <trkpt lat="43.66626" lon="3.86653">
        <ele>50.8</ele>
        <time>2024-04-19T09:10:24.825Z</time>
      </trkpt>
      <trkpt lat="43.66633" lon="3.86654">
        <ele>51</ele>
        <time>2024-04-19T09:10:27.606Z</time>
      </trkpt>
      <trkpt lat="43.66639" lon="3.86655">
        <ele>51.2</ele>
        <time>2024-04-19T09:10:30.031Z</time>
      </trkpt>
      <trkpt lat="43.66648" lon="3.86658">
        <ele>51.3</ele>
        <time>2024-04-19T09:10:33.491Z</time>
      </trkpt>
      <trkpt lat="43.66653" lon="3.86662">
        <ele>51.6</ele>
        <time>2024-04-19T09:10:35.955Z</time>
      </trkpt>
      <trkpt lat="43.66671" lon="3.86672">
        <ele>52.3</ele>
        <time>2024-04-19T09:10:43.812Z</time>
      </trkpt>
      <trkpt lat="43.66676" lon="3.86678">
        <ele>52.6</ele>
        <time>2024-04-19T09:10:46.575Z</time>
      </trkpt>
      <trkpt lat="43.66682" lon="3.86684">
        <ele>52.8</ele>
        <time>2024-04-19T09:10:49.488Z</time>
      </trkpt>
      <trkpt lat="43.6669" lon="3.86695">
        <ele>53.4</ele>
        <time>2024-04-19T09:10:54.319Z</time>
      </trkpt>
      <trkpt lat="43.66711" lon="3.86715">
        <ele>54.3</ele>
        <time>2024-04-19T09:11:04.621Z</time>
      </trkpt>
      <trkpt lat="43.66728" lon="3.86737">
        <ele>54.9</ele>
        <time>2024-04-19T09:11:13.746Z</time>
      </trkpt>
      <trkpt lat="43.66752" lon="3.86775">
        <ele>55.4</ele>
        <time>2024-04-19T09:11:27.511Z</time>
      </trkpt>
      <trkpt lat="43.66769" lon="3.86791">
        <ele>54.4</ele>
        <time>2024-04-19T09:11:34.016Z</time>
      </trkpt>
      <trkpt lat="43.66772" lon="3.86796">
        <ele>54.3</ele>
        <time>2024-04-19T09:11:35.609Z</time>
      </trkpt>
      <trkpt lat="43.66781" lon="3.86808">
        <ele>54</ele>
        <time>2024-04-19T09:11:39.812Z</time>
      </trkpt>
      <trkpt lat="43.66789" lon="3.86815">
        <ele>54.1</ele>
        <time>2024-04-19T09:11:43.348Z</time>
      </trkpt>
      <trkpt lat="43.66794" lon="3.86821">
        <ele>54.2</ele>
        <time>2024-04-19T09:11:45.857Z</time>
      </trkpt>
      <trkpt lat="43.66806" lon="3.86832">
        <ele>53.9</ele>
        <time>2024-04-19T09:11:50.743Z</time>
      </trkpt>
      <trkpt lat="43.66824" lon="3.86846">
        <ele>55.4</ele>
        <time>2024-04-19T09:12:00.178Z</time>
      </trkpt>
      <trkpt lat="43.66846" lon="3.86856">
        <ele>56.4</ele>
        <time>2024-04-19T09:12:09.775Z</time>
      </trkpt>
      <trkpt lat="43.66856" lon="3.86858">
        <ele>56.7</ele>
        <time>2024-04-19T09:12:13.784Z</time>
      </trkpt>
      <trkpt lat="43.6687" lon="3.86864">
        <ele>57.2</ele>
        <time>2024-04-19T09:12:19.683Z</time>
      </trkpt>
      <trkpt lat="43.66889" lon="3.8687">
        <ele>57.6</ele>
        <time>2024-04-19T09:12:27.194Z</time>
      </trkpt>
      <trkpt lat="43.66924" lon="3.8687">
        <ele>57.4</ele>
        <time>2024-04-19T09:12:39.627Z</time>
      </trkpt>
      <trkpt lat="43.66934" lon="3.86873">
        <ele>58</ele>
        <time>2024-04-19T09:12:44.088Z</time>
      </trkpt>
      <trkpt lat="43.66939" lon="3.86872">
        <ele>57.9</ele>
        <time>2024-04-19T09:12:45.808Z</time>
      </trkpt>
      <trkpt lat="43.66945" lon="3.86869">
        <ele>57.4</ele>
        <time>2024-04-19T09:12:47.826Z</time>
      </trkpt>
      <trkpt lat="43.66951" lon="3.86868">
        <ele>57.2</ele>
        <time>2024-04-19T09:12:49.803Z</time>
      </trkpt>
      <trkpt lat="43.66957" lon="3.86868">
        <ele>57.2</ele>
        <time>2024-04-19T09:12:51.972Z</time>
      </trkpt>
      <trkpt lat="43.66963" lon="3.86864">
        <ele>56.5</ele>
        <time>2024-04-19T09:12:54.079Z</time>
      </trkpt>
      <trkpt lat="43.66969" lon="3.86859">
        <ele>55.8</ele>
        <time>2024-04-19T09:12:56.295Z</time>
      </trkpt>
      <trkpt lat="43.66995" lon="3.86856">
        <ele>56.1</ele>
        <time>2024-04-19T09:13:06.070Z</time>
      </trkpt>
      <trkpt lat="43.67007" lon="3.8685">
        <ele>55.7</ele>
        <time>2024-04-19T09:13:10.266Z</time>
      </trkpt>
      <trkpt lat="43.67012" lon="3.86851">
        <ele>56</ele>
        <time>2024-04-19T09:13:12.474Z</time>
      </trkpt>
      <trkpt lat="43.6702" lon="3.86849">
        <ele>56</ele>
        <time>2024-04-19T09:13:15.413Z</time>
      </trkpt>
      <trkpt lat="43.67032" lon="3.86849">
        <ele>56.5</ele>
        <time>2024-04-19T09:13:20.362Z</time>
      </trkpt>
      <trkpt lat="43.67046" lon="3.86845">
        <ele>56.6</ele>
        <time>2024-04-19T09:13:25.643Z</time>
      </trkpt>
      <trkpt lat="43.67057" lon="3.86839">
        <ele>56.1</ele>
        <time>2024-04-19T09:13:29.409Z</time>
      </trkpt>
      <trkpt lat="43.67074" lon="3.86835">
        <ele>56</ele>
        <time>2024-04-19T09:13:35.533Z</time>
      </trkpt>
      <trkpt lat="43.67087" lon="3.86834">
        <ele>56.4</ele>
        <time>2024-04-19T09:13:40.716Z</time>
      </trkpt>
      <trkpt lat="43.67098" lon="3.86831">
        <ele>56.8</ele>
        <time>2024-04-19T09:13:45.251Z</time>
      </trkpt>
      <trkpt lat="43.67111" lon="3.86826">
        <ele>56.9</ele>
        <time>2024-04-19T09:13:50.242Z</time>
      </trkpt>
      <trkpt lat="43.67126" lon="3.86822">
        <ele>56.9</ele>
        <time>2024-04-19T09:13:55.765Z</time>
      </trkpt>
      <trkpt lat="43.67134" lon="3.86817">
        <ele>56.5</ele>
        <time>2024-04-19T09:13:58.542Z</time>
      </trkpt>
      <trkpt lat="43.67142" lon="3.86816">
        <ele>56.5</ele>
        <time>2024-04-19T09:14:01.446Z</time>
      </trkpt>
      <trkpt lat="43.67146" lon="3.86822">
        <ele>57.2</ele>
        <time>2024-04-19T09:14:04.608Z</time>
      </trkpt>
      <trkpt lat="43.67153" lon="3.86835">
        <ele>58.7</ele>
        <time>2024-04-19T09:14:11.104Z</time>
      </trkpt>
      <trkpt lat="43.67166" lon="3.86852">
        <ele>60.1</ele>
        <time>2024-04-19T09:14:19.435Z</time>
      </trkpt>
      <trkpt lat="43.67174" lon="3.8685">
        <ele>60.2</ele>
        <time>2024-04-19T09:14:22.489Z</time>
      </trkpt>
      <trkpt lat="43.67178" lon="3.86845">
        <ele>59.8</ele>
        <time>2024-04-19T09:14:24.194Z</time>
      </trkpt>
      <trkpt lat="43.67184" lon="3.86844">
        <ele>60</ele>
        <time>2024-04-19T09:14:26.619Z</time>
      </trkpt>
      <trkpt lat="43.67187" lon="3.86837">
        <ele>59.2</ele>
        <time>2024-04-19T09:14:28.480Z</time>
      </trkpt>
      <trkpt lat="43.67195" lon="3.86827">
        <ele>58.4</ele>
        <time>2024-04-19T09:14:31.892Z</time>
      </trkpt>
      <trkpt lat="43.67201" lon="3.86823">
        <ele>58.4</ele>
        <time>2024-04-19T09:14:34.300Z</time>
      </trkpt>
      <trkpt lat="43.67207" lon="3.86825">
        <ele>59.2</ele>
        <time>2024-04-19T09:14:37.740Z</time>
      </trkpt>
      <trkpt lat="43.67215" lon="3.86822">
        <ele>59.4</ele>
        <time>2024-04-19T09:14:40.972Z</time>
      </trkpt>
      <trkpt lat="43.6722" lon="3.86818">
        <ele>59.1</ele>
        <time>2024-04-19T09:14:42.799Z</time>
      </trkpt>
      <trkpt lat="43.67227" lon="3.86816">
        <ele>59.1</ele>
        <time>2024-04-19T09:14:45.383Z</time>
      </trkpt>
      <trkpt lat="43.67241" lon="3.86816">
        <ele>59.6</ele>
        <time>2024-04-19T09:14:51.046Z</time>
      </trkpt>
      <trkpt lat="43.67252" lon="3.86817">
        <ele>60.2</ele>
        <time>2024-04-19T09:14:55.786Z</time>
      </trkpt>
      <trkpt lat="43.67259" lon="3.8682">
        <ele>61.2</ele>
        <time>2024-04-19T09:14:59.974Z</time>
      </trkpt>
      <trkpt lat="43.67284" lon="3.86836">
        <ele>64.6</ele>
        <time>2024-04-19T09:15:14.992Z</time>
      </trkpt>
      <trkpt lat="43.67288" lon="3.8684">
        <ele>65.2</ele>
        <time>2024-04-19T09:15:17.665Z</time>
      </trkpt>
      <trkpt lat="43.67295" lon="3.86846">
        <ele>65.9</ele>
        <time>2024-04-19T09:15:21.589Z</time>
      </trkpt>
      <trkpt lat="43.673" lon="3.86848">
        <ele>66.1</ele>
        <time>2024-04-19T09:15:23.713Z</time>
      </trkpt>
      <trkpt lat="43.67307" lon="3.86851">
        <ele>66.2</ele>
        <time>2024-04-19T09:15:26.477Z</time>
      </trkpt>
      <trkpt lat="43.67312" lon="3.86847">
        <ele>65.6</ele>
        <time>2024-04-19T09:15:28.304Z</time>
      </trkpt>
      <trkpt lat="43.67315" lon="3.8684">
        <ele>65.1</ele>
        <time>2024-04-19T09:15:30.166Z</time>
      </trkpt>
      <trkpt lat="43.67323" lon="3.86831">
        <ele>64.1</ele>
        <time>2024-04-19T09:15:33.429Z</time>
      </trkpt>
      <trkpt lat="43.67328" lon="3.86827">
        <ele>63.5</ele>
        <time>2024-04-19T09:15:35.256Z</time>
      </trkpt>
      <trkpt lat="43.67333" lon="3.86823">
        <ele>62.9</ele>
        <time>2024-04-19T09:15:37.083Z</time>
      </trkpt>
      <trkpt lat="43.67338" lon="3.86812">
        <ele>61.5</ele>
        <time>2024-04-19T09:15:40.056Z</time>
      </trkpt>
      <trkpt lat="43.67341" lon="3.86801">
        <ele>60.4</ele>
        <time>2024-04-19T09:15:42.745Z</time>
      </trkpt>
      <trkpt lat="43.67344" lon="3.86792">
        <ele>59.6</ele>
        <time>2024-04-19T09:15:45.013Z</time>
      </trkpt>
      <trkpt lat="43.67349" lon="3.86786">
        <ele>59</ele>
        <time>2024-04-19T09:15:47.107Z</time>
      </trkpt>
      <trkpt lat="43.67367" lon="3.86781">
        <ele>58</ele>
        <time>2024-04-19T09:15:52.914Z</time>
      </trkpt>
      <trkpt lat="43.67374" lon="3.86781">
        <ele>57.8</ele>
        <time>2024-04-19T09:15:55.235Z</time>
      </trkpt>
      <trkpt lat="43.67381" lon="3.8678">
        <ele>57.4</ele>
        <time>2024-04-19T09:15:57.461Z</time>
      </trkpt>
      <trkpt lat="43.67372" lon="3.86778">
        <ele>57.6</ele>
        <time>2024-04-19T09:16:00.990Z</time>
      </trkpt>
      <trkpt lat="43.67366" lon="3.86773">
        <ele>57.5</ele>
        <time>2024-04-19T09:16:03.415Z</time>
      </trkpt>
      <trkpt lat="43.67365" lon="3.86754">
        <ele>56.1</ele>
        <time>2024-04-19T09:16:07.774Z</time>
      </trkpt>
      <trkpt lat="43.67359" lon="3.86745">
        <ele>55.8</ele>
        <time>2024-04-19T09:16:10.663Z</time>
      </trkpt>
      <trkpt lat="43.67346" lon="3.86737">
        <ele>55.5</ele>
        <time>2024-04-19T09:16:15.488Z</time>
      </trkpt>
      <trkpt lat="43.67337" lon="3.86707">
        <ele>54.7</ele>
        <time>2024-04-19T09:16:23.152Z</time>
      </trkpt>
      <trkpt lat="43.67331" lon="3.86679">
        <ele>48.7</ele>
        <time>2024-04-19T09:16:29.833Z</time>
      </trkpt>
      <trkpt lat="43.67324" lon="3.8665">
        <ele>45.6</ele>
        <time>2024-04-19T09:16:36.828Z</time>
      </trkpt>
      <trkpt lat="43.67304" lon="3.86556">
        <ele>51</ele>
        <time>2024-04-19T09:17:09.596Z</time>
      </trkpt>
      <trkpt lat="43.67301" lon="3.86536">
        <ele>50.8</ele>
        <time>2024-04-19T09:17:14.721Z</time>
      </trkpt>
      <trkpt lat="43.67301" lon="3.86514">
        <ele>50.9</ele>
        <time>2024-04-19T09:17:20.586Z</time>
      </trkpt>
      <trkpt lat="43.67298" lon="3.86505">
        <ele>51</ele>
        <time>2024-04-19T09:17:23.292Z</time>
      </trkpt>
      <trkpt lat="43.67296" lon="3.86488">
        <ele>51</ele>
        <time>2024-04-19T09:17:27.796Z</time>
      </trkpt>
      <trkpt lat="43.67303" lon="3.86472">
        <ele>51</ele>
        <time>2024-04-19T09:17:32.685Z</time>
      </trkpt>
      <trkpt lat="43.67322" lon="3.8644">
        <ele>51</ele>
        <time>2024-04-19T09:17:43.511Z</time>
      </trkpt>
      <trkpt lat="43.67336" lon="3.86432">
        <ele>51.1</ele>
        <time>2024-04-19T09:17:49.100Z</time>
      </trkpt>
      <trkpt lat="43.67353" lon="3.86433">
        <ele>52</ele>
        <time>2024-04-19T09:17:56.379Z</time>
      </trkpt>
      <trkpt lat="43.67358" lon="3.86428">
        <ele>52.4</ele>
        <time>2024-04-19T09:17:59.125Z</time>
      </trkpt>
      <trkpt lat="43.67356" lon="3.86421">
        <ele>52.5</ele>
        <time>2024-04-19T09:18:01.209Z</time>
      </trkpt>
      <trkpt lat="43.67351" lon="3.86416">
        <ele>52.3</ele>
        <time>2024-04-19T09:18:03.232Z</time>
      </trkpt>
      <trkpt lat="43.67345" lon="3.86409">
        <ele>52.1</ele>
        <time>2024-04-19T09:18:05.859Z</time>
      </trkpt>
      <trkpt lat="43.67332" lon="3.86385">
        <ele>52.2</ele>
        <time>2024-04-19T09:18:13.811Z</time>
      </trkpt>
      <trkpt lat="43.67299" lon="3.86329">
        <ele>52.7</ele>
        <time>2024-04-19T09:18:33.267Z</time>
      </trkpt>
      <trkpt lat="43.67291" lon="3.86311">
        <ele>52.8</ele>
        <time>2024-04-19T09:18:38.904Z</time>
      </trkpt>
      <trkpt lat="43.67292" lon="3.86287">
        <ele>53.3</ele>
        <time>2024-04-19T09:18:45.783Z</time>
      </trkpt>
      <trkpt lat="43.67285" lon="3.86274">
        <ele>53.5</ele>
        <time>2024-04-19T09:18:50.251Z</time>
      </trkpt>
      <trkpt lat="43.67282" lon="3.86267">
        <ele>53.8</ele>
        <time>2024-04-19T09:18:52.753Z</time>
      </trkpt>
      <trkpt lat="43.67316" lon="3.86243">
        <ele>54.5</ele>
        <time>2024-04-19T09:19:07.365Z</time>
      </trkpt>
      <trkpt lat="43.67329" lon="3.86232">
        <ele>54.9</ele>
        <time>2024-04-19T09:19:13.346Z</time>
      </trkpt>
      <trkpt lat="43.67338" lon="3.86216">
        <ele>56</ele>
        <time>2024-04-19T09:19:20.098Z</time>
      </trkpt>
      <trkpt lat="43.67344" lon="3.86208">
        <ele>57.2</ele>
        <time>2024-04-19T09:19:24.994Z</time>
      </trkpt>
      <trkpt lat="43.67355" lon="3.86196">
        <ele>58.8</ele>
        <time>2024-04-19T09:19:32.385Z</time>
      </trkpt>
      <trkpt lat="43.67361" lon="3.8619">
        <ele>59.6</ele>
        <time>2024-04-19T09:19:36.207Z</time>
      </trkpt>
      <trkpt lat="43.67366" lon="3.86186">
        <ele>60.2</ele>
        <time>2024-04-19T09:19:39.145Z</time>
      </trkpt>
      <trkpt lat="43.67376" lon="3.8618">
        <ele>61.1</ele>
        <time>2024-04-19T09:19:44.296Z</time>
      </trkpt>
      <trkpt lat="43.67389" lon="3.86166">
        <ele>63.1</ele>
        <time>2024-04-19T09:19:53.213Z</time>
      </trkpt>
      <trkpt lat="43.67394" lon="3.86159">
        <ele>63.5</ele>
        <time>2024-04-19T09:19:56.291Z</time>
      </trkpt>
      <trkpt lat="43.67398" lon="3.86153">
        <ele>64</ele>
        <time>2024-04-19T09:19:59.100Z</time>
      </trkpt>
      <trkpt lat="43.67401" lon="3.86139">
        <ele>65.6</ele>
        <time>2024-04-19T09:20:05.479Z</time>
      </trkpt>
      <trkpt lat="43.67401" lon="3.86125">
        <ele>67.1</ele>
        <time>2024-04-19T09:20:11.519Z</time>
      </trkpt>
      <trkpt lat="43.67404" lon="3.86114">
        <ele>68.1</ele>
        <time>2024-04-19T09:20:16.059Z</time>
      </trkpt>
      <trkpt lat="43.67407" lon="3.86104">
        <ele>68.8</ele>
        <time>2024-04-19T09:20:19.846Z</time>
      </trkpt>
      <trkpt lat="43.67409" lon="3.86098">
        <ele>69.1</ele>
        <time>2024-04-19T09:20:21.958Z</time>
      </trkpt>
      <trkpt lat="43.67403" lon="3.86076">
        <ele>69.6</ele>
        <time>2024-04-19T09:20:28.700Z</time>
      </trkpt>
      <trkpt lat="43.67401" lon="3.86068">
        <ele>69.1</ele>
        <time>2024-04-19T09:20:30.636Z</time>
      </trkpt>
      <trkpt lat="43.67401" lon="3.86036">
        <ele>66.6</ele>
        <time>2024-04-19T09:20:37.958Z</time>
      </trkpt>
      <trkpt lat="43.67398" lon="3.86024">
        <ele>65.2</ele>
        <time>2024-04-19T09:20:40.863Z</time>
      </trkpt>
      <trkpt lat="43.67398" lon="3.86016">
        <ele>64.2</ele>
        <time>2024-04-19T09:20:42.693Z</time>
      </trkpt>
      <trkpt lat="43.67401" lon="3.86">
        <ele>62.4</ele>
        <time>2024-04-19T09:20:46.475Z</time>
      </trkpt>
      <trkpt lat="43.67406" lon="3.85983">
        <ele>61.4</ele>
        <time>2024-04-19T09:20:50.673Z</time>
      </trkpt>
      <trkpt lat="43.67407" lon="3.85975">
        <ele>60.9</ele>
        <time>2024-04-19T09:20:52.531Z</time>
      </trkpt>
      <trkpt lat="43.67408" lon="3.85926">
        <ele>60.2</ele>
        <time>2024-04-19T09:21:04.601Z</time>
      </trkpt>
      <trkpt lat="43.67402" lon="3.85917">
        <ele>60.5</ele>
        <time>2024-04-19T09:21:08.161Z</time>
      </trkpt>
      <trkpt lat="43.67397" lon="3.85914">
        <ele>60.7</ele>
        <time>2024-04-19T09:21:10.373Z</time>
      </trkpt>
      <trkpt lat="43.67388" lon="3.85906">
        <ele>61</ele>
        <time>2024-04-19T09:21:14.596Z</time>
      </trkpt>
      <trkpt lat="43.67387" lon="3.85885">
        <ele>61.1</ele>
        <time>2024-04-19T09:21:20.212Z</time>
      </trkpt>
      <trkpt lat="43.67387" lon="3.85833">
        <ele>62.1</ele>
        <time>2024-04-19T09:21:34.989Z</time>
      </trkpt>
      <trkpt lat="43.67381" lon="3.85813">
        <ele>63</ele>
        <time>2024-04-19T09:21:41.790Z</time>
      </trkpt>
      <trkpt lat="43.67371" lon="3.85822">
        <ele>63.1</ele>
        <time>2024-04-19T09:21:46.217Z</time>
      </trkpt>
      <trkpt lat="43.6733" lon="3.85863">
        <ele>62.9</ele>
        <time>2024-04-19T09:22:04.289Z</time>
      </trkpt>
      <trkpt lat="43.67323" lon="3.85867">
        <ele>62.7</ele>
        <time>2024-04-19T09:22:06.816Z</time>
      </trkpt>
      <trkpt lat="43.67315" lon="3.8587">
        <ele>62.6</ele>
        <time>2024-04-19T09:22:09.704Z</time>
      </trkpt>
      <trkpt lat="43.67274" lon="3.85873">
        <ele>62.7</ele>
        <time>2024-04-19T09:22:24.659Z</time>
      </trkpt>
      <trkpt lat="43.67258" lon="3.8588">
        <ele>63</ele>
        <time>2024-04-19T09:22:31.073Z</time>
      </trkpt>
      <trkpt lat="43.67214" lon="3.85921">
        <ele>64.3</ele>
        <time>2024-04-19T09:22:51.782Z</time>
      </trkpt>
      <trkpt lat="43.67175" lon="3.85945">
        <ele>65.4</ele>
        <time>2024-04-19T09:23:08.510Z</time>
      </trkpt>
      <trkpt lat="43.67158" lon="3.85952">
        <ele>66.1</ele>
        <time>2024-04-19T09:23:15.772Z</time>
      </trkpt>
      <trkpt lat="43.67136" lon="3.85953">
        <ele>67.6</ele>
        <time>2024-04-19T09:23:25.678Z</time>
      </trkpt>
      <trkpt lat="43.67128" lon="3.85956">
        <ele>68</ele>
        <time>2024-04-19T09:23:29.170Z</time>
      </trkpt>
      <trkpt lat="43.67117" lon="3.85972">
        <ele>67.6</ele>
        <time>2024-04-19T09:23:34.520Z</time>
      </trkpt>
      <trkpt lat="43.67108" lon="3.86002">
        <ele>65</ele>
        <time>2024-04-19T09:23:41.951Z</time>
      </trkpt>
      <trkpt lat="43.67094" lon="3.86041">
        <ele>61.5</ele>
        <time>2024-04-19T09:23:51.913Z</time>
      </trkpt>
      <trkpt lat="43.67069" lon="3.86069">
        <ele>59.3</ele>
        <time>2024-04-19T09:24:02.090Z</time>
      </trkpt>
      <trkpt lat="43.67052" lon="3.86091">
        <ele>57.6</ele>
        <time>2024-04-19T09:24:09.456Z</time>
      </trkpt>
      <trkpt lat="43.67028" lon="3.86137">
        <ele>55.1</ele>
        <time>2024-04-19T09:24:22.433Z</time>
      </trkpt>
      <trkpt lat="43.67021" lon="3.86149">
        <ele>55.2</ele>
        <time>2024-04-19T09:24:26.578Z</time>
      </trkpt>
      <trkpt lat="43.67016" lon="3.86149">
        <ele>55.3</ele>
        <time>2024-04-19T09:24:28.502Z</time>
      </trkpt>
      <trkpt lat="43.67008" lon="3.86143">
        <ele>55.6</ele>
        <time>2024-04-19T09:24:32.151Z</time>
      </trkpt>
      <trkpt lat="43.67" lon="3.86133">
        <ele>56.2</ele>
        <time>2024-04-19T09:24:36.807Z</time>
      </trkpt>
      <trkpt lat="43.66998" lon="3.86123">
        <ele>56.6</ele>
        <time>2024-04-19T09:24:40.021Z</time>
      </trkpt>
      <trkpt lat="43.66985" lon="3.86093">
        <ele>58.3</ele>
        <time>2024-04-19T09:24:51.369Z</time>
      </trkpt>
      <trkpt lat="43.66967" lon="3.86076">
        <ele>58.3</ele>
        <time>2024-04-19T09:24:59.249Z</time>
      </trkpt>
      <trkpt lat="43.66934" lon="3.86069">
        <ele>57.7</ele>
        <time>2024-04-19T09:25:10.676Z</time>
      </trkpt>
      <trkpt lat="43.66929" lon="3.86071">
        <ele>57.8</ele>
        <time>2024-04-19T09:25:12.674Z</time>
      </trkpt>
      <trkpt lat="43.66918" lon="3.86081">
        <ele>58</ele>
        <time>2024-04-19T09:25:17.663Z</time>
      </trkpt>
      <trkpt lat="43.66908" lon="3.86091">
        <ele>59.6</ele>
        <time>2024-04-19T09:25:24.544Z</time>
      </trkpt>
      <trkpt lat="43.66902" lon="3.86097">
        <ele>60.6</ele>
        <time>2024-04-19T09:25:28.754Z</time>
      </trkpt>
      <trkpt lat="43.66897" lon="3.86098">
        <ele>61.5</ele>
        <time>2024-04-19T09:25:32.128Z</time>
      </trkpt>
      <trkpt lat="43.66893" lon="3.8609">
        <ele>62.3</ele>
        <time>2024-04-19T09:25:35.832Z</time>
      </trkpt>
      <trkpt lat="43.6689" lon="3.8608">
        <ele>62.8</ele>
        <time>2024-04-19T09:25:39.306Z</time>
      </trkpt>
      <trkpt lat="43.66876" lon="3.86017">
        <ele>65.3</ele>
        <time>2024-04-19T09:25:59.669Z</time>
      </trkpt>
      <trkpt lat="43.66867" lon="3.85998">
        <ele>66.9</ele>
        <time>2024-04-19T09:26:07.838Z</time>
      </trkpt>
      <trkpt lat="43.66866" lon="3.85939">
        <ele>66.7</ele>
        <time>2024-04-19T09:26:23.050Z</time>
      </trkpt>
      <trkpt lat="43.6686" lon="3.85917">
        <ele>67.1</ele>
        <time>2024-04-19T09:26:29.667Z</time>
      </trkpt>
      <trkpt lat="43.66844" lon="3.85895">
        <ele>67.8</ele>
        <time>2024-04-19T09:26:38.659Z</time>
      </trkpt>
      <trkpt lat="43.6683" lon="3.85869">
        <ele>68.3</ele>
        <time>2024-04-19T09:26:47.718Z</time>
      </trkpt>
      <trkpt lat="43.66824" lon="3.85826">
        <ele>68.3</ele>
        <time>2024-04-19T09:26:59.170Z</time>
      </trkpt>
      <trkpt lat="43.66819" lon="3.85805">
        <ele>68.5</ele>
        <time>2024-04-19T09:27:05.180Z</time>
      </trkpt>
      <trkpt lat="43.66808" lon="3.85772">
        <ele>69.2</ele>
        <time>2024-04-19T09:27:15.508Z</time>
      </trkpt>
      <trkpt lat="43.66794" lon="3.85761">
        <ele>70.6</ele>
        <time>2024-04-19T09:27:23.231Z</time>
      </trkpt>
      <trkpt lat="43.66782" lon="3.85754">
        <ele>71.7</ele>
        <time>2024-04-19T09:27:29.425Z</time>
      </trkpt>
      <trkpt lat="43.66776" lon="3.85768">
        <ele>72.2</ele>
        <time>2024-04-19T09:27:34.292Z</time>
      </trkpt>
      <trkpt lat="43.6677" lon="3.85772">
        <ele>72.8</ele>
        <time>2024-04-19T09:27:37.521Z</time>
      </trkpt>
      <trkpt lat="43.66763" lon="3.85762">
        <ele>73.6</ele>
        <time>2024-04-19T09:27:42.228Z</time>
        <extensions>
          <visugpx:TrkExtension xmlns:visugpx="https://www.visugpx.com/editgpx/">
            <visugpx:node>1</visugpx:node>
            </visugpx:TrkExtension>
        </extensions>
      </trkpt>
    </trkseg>
  </trk>
</gpx>